<?xml version="1.0" encoding="UTF-8" standalone="no" ?>
<gpx xmlns="http://www.topografix.com/GPX/1/1" xmlns:xsi="http://www.w3.org/2001/XMLSchema-instance" xsi:schemaLocation="http://www.topografix.com/GPX/1/1 http://www.topografix.com/GPX/1/1/gpx.xsd" version="1.1" creator="VisuGPX - https://www.visugpx.com">
  <metadata>
    <name>Vélo bleu - Circuit 13</name>
    <desc><![CDATA[Petit patrimoine sur ce circuit :
- Lavoirs de Reynel, Busson, Epizon, germisay, Morionvilliers, Leurville, Orquevaux, Humberville, Manois.
- Châteaux de Reynel, et d'Orquevaux.]]></desc>
  </metadata>
  <trk>
    <name><![CDATA[Sortie vélo le matin 22]]></name>
    <trkseg>
      <trkpt lat="48.24993" lon="5.32927">
        <ele>256.65</ele>
        <time>2025-01-04T13:47:06.000Z</time>
      </trkpt>
      <trkpt lat="48.25015" lon="5.32928">
        <ele>256.41</ele>
        <time>2025-01-04T13:47:06.004Z</time>
      </trkpt>
      <trkpt lat="48.25034" lon="5.32933">
        <ele>256.09</ele>
        <time>2025-01-04T13:47:06.011Z</time>
      </trkpt>
      <trkpt lat="48.25051" lon="5.32943">
        <ele>255.8</ele>
        <time>2025-01-04T13:47:06.021Z</time>
      </trkpt>
      <trkpt lat="48.25068" lon="5.32954">
        <ele>255.53</ele>
        <time>2025-01-04T13:47:06.034Z</time>
      </trkpt>
      <trkpt lat="48.25089" lon="5.32972">
        <ele>255.26</ele>
        <time>2025-01-04T13:47:06.050Z</time>
      </trkpt>
      <trkpt lat="48.25103" lon="5.32983">
        <ele>255.04</ele>
        <time>2025-01-04T13:47:06.069Z</time>
      </trkpt>
      <trkpt lat="48.25112" lon="5.32994">
        <ele>254.94</ele>
        <time>2025-01-04T13:47:06.090Z</time>
      </trkpt>
      <trkpt lat="48.25119" lon="5.33003">
        <ele>254.97</ele>
        <time>2025-01-04T13:47:06.112Z</time>
      </trkpt>
      <trkpt lat="48.25119" lon="5.33004">
        <ele>255.05</ele>
        <time>2025-01-04T13:47:06.134Z</time>
      </trkpt>
      <trkpt lat="48.25121" lon="5.33006">
        <ele>255.19</ele>
        <time>2025-01-04T13:47:06.157Z</time>
      </trkpt>
      <trkpt lat="48.25122" lon="5.33007">
        <ele>255.38</ele>
        <time>2025-01-04T13:47:06.180Z</time>
      </trkpt>
      <trkpt lat="48.25131" lon="5.33018">
        <ele>255.67</ele>
        <time>2025-01-04T13:47:06.205Z</time>
      </trkpt>
      <trkpt lat="48.25143" lon="5.33035">
        <ele>255.99</ele>
        <time>2025-01-04T13:47:06.232Z</time>
      </trkpt>
      <trkpt lat="48.25166" lon="5.33059">
        <ele>256.32</ele>
        <time>2025-01-04T13:47:06.264Z</time>
      </trkpt>
      <trkpt lat="48.25187" lon="5.33079">
        <ele>256.64</ele>
        <time>2025-01-04T13:47:06.300Z</time>
      </trkpt>
      <trkpt lat="48.2521" lon="5.33103">
        <ele>257.03</ele>
        <time>2025-01-04T13:47:06.340Z</time>
      </trkpt>
      <trkpt lat="48.25234" lon="5.3313">
        <ele>257.47</ele>
        <time>2025-01-04T13:47:06.385Z</time>
      </trkpt>
      <trkpt lat="48.25237" lon="5.33134">
        <ele>257.86</ele>
        <time>2025-01-04T13:47:06.431Z</time>
      </trkpt>
      <trkpt lat="48.2525" lon="5.3315">
        <ele>258.22</ele>
        <time>2025-01-04T13:47:06.480Z</time>
      </trkpt>
      <trkpt lat="48.25273" lon="5.33178">
        <ele>258.5</ele>
        <time>2025-01-04T13:47:06.533Z</time>
      </trkpt>
      <trkpt lat="48.25277" lon="5.33182">
        <ele>258.78</ele>
        <time>2025-01-04T13:47:06.587Z</time>
      </trkpt>
      <trkpt lat="48.25289" lon="5.33197">
        <ele>259.03</ele>
        <time>2025-01-04T13:47:06.644Z</time>
      </trkpt>
      <trkpt lat="48.25301" lon="5.33212">
        <ele>259.29</ele>
        <time>2025-01-04T13:47:06.703Z</time>
      </trkpt>
      <trkpt lat="48.25316" lon="5.33229">
        <ele>259.49</ele>
        <time>2025-01-04T13:47:06.765Z</time>
      </trkpt>
      <trkpt lat="48.2533" lon="5.33246">
        <ele>259.68</ele>
        <time>2025-01-04T13:47:06.830Z</time>
      </trkpt>
      <trkpt lat="48.25347" lon="5.33255">
        <ele>259.87</ele>
        <time>2025-01-04T13:47:06.898Z</time>
      </trkpt>
      <trkpt lat="48.25363" lon="5.33264">
        <ele>260.08</ele>
        <time>2025-01-04T13:47:06.968Z</time>
      </trkpt>
      <trkpt lat="48.2539" lon="5.33277">
        <ele>260.34</ele>
        <time>2025-01-04T13:47:07.043Z</time>
      </trkpt>
      <trkpt lat="48.2541" lon="5.33286">
        <ele>260.6</ele>
        <time>2025-01-04T13:47:07.121Z</time>
      </trkpt>
      <trkpt lat="48.25429" lon="5.33295">
        <ele>260.86</ele>
        <time>2025-01-04T13:47:07.203Z</time>
      </trkpt>
      <trkpt lat="48.25445" lon="5.33303">
        <ele>261.07</ele>
        <time>2025-01-04T13:47:07.287Z</time>
      </trkpt>
      <trkpt lat="48.25462" lon="5.3331">
        <ele>261.24</ele>
        <time>2025-01-04T13:47:07.374Z</time>
      </trkpt>
      <trkpt lat="48.25466" lon="5.33313">
        <ele>261.36</ele>
        <time>2025-01-04T13:47:07.462Z</time>
      </trkpt>
      <trkpt lat="48.2549" lon="5.33336">
        <ele>261.39</ele>
        <time>2025-01-04T13:47:07.554Z</time>
      </trkpt>
      <trkpt lat="48.25496" lon="5.33341">
        <ele>261.39</ele>
        <time>2025-01-04T13:47:07.647Z</time>
      </trkpt>
      <trkpt lat="48.25505" lon="5.33333">
        <ele>261.35</ele>
        <time>2025-01-04T13:47:07.742Z</time>
      </trkpt>
      <trkpt lat="48.25518" lon="5.33326">
        <ele>261.24</ele>
        <time>2025-01-04T13:47:07.839Z</time>
      </trkpt>
      <trkpt lat="48.25522" lon="5.33325">
        <ele>261.09</ele>
        <time>2025-01-04T13:47:07.937Z</time>
      </trkpt>
      <trkpt lat="48.25527" lon="5.33324">
        <ele>260.9</ele>
        <time>2025-01-04T13:47:08.036Z</time>
      </trkpt>
      <trkpt lat="48.25537" lon="5.33327">
        <ele>260.68</ele>
        <time>2025-01-04T13:47:08.136Z</time>
      </trkpt>
      <trkpt lat="48.25561" lon="5.33334">
        <ele>260.38</ele>
        <time>2025-01-04T13:47:08.240Z</time>
      </trkpt>
      <trkpt lat="48.25586" lon="5.33342">
        <ele>260</ele>
        <time>2025-01-04T13:47:08.348Z</time>
      </trkpt>
      <trkpt lat="48.25609" lon="5.33348">
        <ele>259.58</ele>
        <time>2025-01-04T13:47:08.460Z</time>
      </trkpt>
      <trkpt lat="48.25633" lon="5.33355">
        <ele>259.17</ele>
        <time>2025-01-04T13:47:08.576Z</time>
      </trkpt>
      <trkpt lat="48.25652" lon="5.33357">
        <ele>258.75</ele>
        <time>2025-01-04T13:47:08.695Z</time>
      </trkpt>
      <trkpt lat="48.2567" lon="5.3336">
        <ele>258.32</ele>
        <time>2025-01-04T13:47:08.817Z</time>
      </trkpt>
      <trkpt lat="48.25677" lon="5.33359">
        <ele>257.87</ele>
        <time>2025-01-04T13:47:08.940Z</time>
      </trkpt>
      <trkpt lat="48.25701" lon="5.33345">
        <ele>257.34</ele>
        <time>2025-01-04T13:47:09.067Z</time>
      </trkpt>
      <trkpt lat="48.25726" lon="5.33331">
        <ele>256.84</ele>
        <time>2025-01-04T13:47:09.198Z</time>
      </trkpt>
      <trkpt lat="48.2575" lon="5.33317">
        <ele>256.32</ele>
        <time>2025-01-04T13:47:09.334Z</time>
      </trkpt>
      <trkpt lat="48.25776" lon="5.333">
        <ele>255.85</ele>
        <time>2025-01-04T13:47:09.474Z</time>
      </trkpt>
      <trkpt lat="48.25801" lon="5.33283">
        <ele>255.29</ele>
        <time>2025-01-04T13:47:09.619Z</time>
      </trkpt>
      <trkpt lat="48.25808" lon="5.33279">
        <ele>254.76</ele>
        <time>2025-01-04T13:47:09.765Z</time>
      </trkpt>
      <trkpt lat="48.25835" lon="5.33262">
        <ele>254.2</ele>
        <time>2025-01-04T13:47:09.915Z</time>
      </trkpt>
      <trkpt lat="48.25861" lon="5.33245">
        <ele>253.61</ele>
        <time>2025-01-04T13:47:10.070Z</time>
      </trkpt>
      <trkpt lat="48.25885" lon="5.3323">
        <ele>252.98</ele>
        <time>2025-01-04T13:47:10.229Z</time>
      </trkpt>
      <trkpt lat="48.25908" lon="5.33215">
        <ele>252.4</ele>
        <time>2025-01-04T13:47:10.392Z</time>
      </trkpt>
      <trkpt lat="48.25932" lon="5.33199">
        <ele>251.9</ele>
        <time>2025-01-04T13:47:10.559Z</time>
      </trkpt>
      <trkpt lat="48.25957" lon="5.33183">
        <ele>251.45</ele>
        <time>2025-01-04T13:47:10.731Z</time>
      </trkpt>
      <trkpt lat="48.25982" lon="5.33166">
        <ele>251</ele>
        <time>2025-01-04T13:47:10.907Z</time>
      </trkpt>
      <trkpt lat="48.26006" lon="5.33149">
        <ele>250.66</ele>
        <time>2025-01-04T13:47:11.087Z</time>
      </trkpt>
      <trkpt lat="48.2602" lon="5.3314">
        <ele>250.43</ele>
        <time>2025-01-04T13:47:11.270Z</time>
      </trkpt>
      <trkpt lat="48.26038" lon="5.33126">
        <ele>250.24</ele>
        <time>2025-01-04T13:47:11.456Z</time>
      </trkpt>
      <trkpt lat="48.26056" lon="5.33112">
        <ele>250.11</ele>
        <time>2025-01-04T13:47:11.645Z</time>
      </trkpt>
      <trkpt lat="48.26064" lon="5.33096">
        <ele>250.08</ele>
        <time>2025-01-04T13:47:11.837Z</time>
      </trkpt>
      <trkpt lat="48.26072" lon="5.33079">
        <ele>250.1</ele>
        <time>2025-01-04T13:47:12.031Z</time>
      </trkpt>
      <trkpt lat="48.26084" lon="5.33046">
        <ele>250.12</ele>
        <time>2025-01-04T13:47:12.229Z</time>
      </trkpt>
      <trkpt lat="48.26096" lon="5.33013">
        <ele>250.26</ele>
        <time>2025-01-04T13:47:12.431Z</time>
      </trkpt>
      <trkpt lat="48.26108" lon="5.32979">
        <ele>250.54</ele>
        <time>2025-01-04T13:47:12.637Z</time>
      </trkpt>
      <trkpt lat="48.26119" lon="5.32945">
        <ele>250.83</ele>
        <time>2025-01-04T13:47:12.847Z</time>
      </trkpt>
      <trkpt lat="48.26127" lon="5.32919">
        <ele>251.09</ele>
        <time>2025-01-04T13:47:13.060Z</time>
      </trkpt>
      <trkpt lat="48.2613" lon="5.32911">
        <ele>251.39</ele>
        <time>2025-01-04T13:47:13.274Z</time>
      </trkpt>
      <trkpt lat="48.26132" lon="5.32905">
        <ele>251.75</ele>
        <time>2025-01-04T13:47:13.489Z</time>
      </trkpt>
      <trkpt lat="48.26148" lon="5.32903">
        <ele>252.11</ele>
        <time>2025-01-04T13:47:13.706Z</time>
      </trkpt>
      <trkpt lat="48.26156" lon="5.32913">
        <ele>252.54</ele>
        <time>2025-01-04T13:47:13.925Z</time>
      </trkpt>
      <trkpt lat="48.2616" lon="5.32918">
        <ele>253</ele>
        <time>2025-01-04T13:47:14.145Z</time>
      </trkpt>
      <trkpt lat="48.26177" lon="5.32938">
        <ele>253.53</ele>
        <time>2025-01-04T13:47:14.368Z</time>
      </trkpt>
      <trkpt lat="48.26193" lon="5.32958">
        <ele>254.06</ele>
        <time>2025-01-04T13:47:14.595Z</time>
      </trkpt>
      <trkpt lat="48.26216" lon="5.32986">
        <ele>254.64</ele>
        <time>2025-01-04T13:47:14.826Z</time>
      </trkpt>
      <trkpt lat="48.26238" lon="5.33013">
        <ele>255.19</ele>
        <time>2025-01-04T13:47:15.062Z</time>
      </trkpt>
      <trkpt lat="48.26248" lon="5.33026">
        <ele>255.75</ele>
        <time>2025-01-04T13:47:15.300Z</time>
      </trkpt>
      <trkpt lat="48.26271" lon="5.33052">
        <ele>256.34</ele>
        <time>2025-01-04T13:47:15.543Z</time>
      </trkpt>
      <trkpt lat="48.26293" lon="5.33079">
        <ele>256.95</ele>
        <time>2025-01-04T13:47:15.790Z</time>
      </trkpt>
      <trkpt lat="48.26297" lon="5.33085">
        <ele>257.48</ele>
        <time>2025-01-04T13:47:16.038Z</time>
      </trkpt>
      <trkpt lat="48.26315" lon="5.33107">
        <ele>257.98</ele>
        <time>2025-01-04T13:47:16.290Z</time>
      </trkpt>
      <trkpt lat="48.26333" lon="5.33129">
        <ele>258.4</ele>
        <time>2025-01-04T13:47:16.546Z</time>
      </trkpt>
      <trkpt lat="48.26355" lon="5.33155">
        <ele>258.72</ele>
        <time>2025-01-04T13:47:16.806Z</time>
      </trkpt>
      <trkpt lat="48.26376" lon="5.3318">
        <ele>259.19</ele>
        <time>2025-01-04T13:47:17.070Z</time>
      </trkpt>
      <trkpt lat="48.26391" lon="5.33199">
        <ele>259.61</ele>
        <time>2025-01-04T13:47:17.337Z</time>
      </trkpt>
      <trkpt lat="48.26406" lon="5.33217">
        <ele>259.96</ele>
        <time>2025-01-04T13:47:17.608Z</time>
      </trkpt>
      <trkpt lat="48.26413" lon="5.33225">
        <ele>260.22</ele>
        <time>2025-01-04T13:47:17.880Z</time>
      </trkpt>
      <trkpt lat="48.26421" lon="5.33231">
        <ele>260.42</ele>
        <time>2025-01-04T13:47:18.153Z</time>
      </trkpt>
      <trkpt lat="48.26426" lon="5.33232">
        <ele>260.57</ele>
        <time>2025-01-04T13:47:18.427Z</time>
      </trkpt>
      <trkpt lat="48.26454" lon="5.33239">
        <ele>260.67</ele>
        <time>2025-01-04T13:47:18.706Z</time>
      </trkpt>
      <trkpt lat="48.26474" lon="5.33244">
        <ele>260.69</ele>
        <time>2025-01-04T13:47:18.988Z</time>
      </trkpt>
      <trkpt lat="48.26491" lon="5.33248">
        <ele>260.66</ele>
        <time>2025-01-04T13:47:19.273Z</time>
      </trkpt>
      <trkpt lat="48.26507" lon="5.33252">
        <ele>260.53</ele>
        <time>2025-01-04T13:47:19.560Z</time>
      </trkpt>
      <trkpt lat="48.26531" lon="5.33257">
        <ele>260.32</ele>
        <time>2025-01-04T13:47:19.851Z</time>
      </trkpt>
      <trkpt lat="48.26554" lon="5.33262">
        <ele>260.1</ele>
        <time>2025-01-04T13:47:20.146Z</time>
      </trkpt>
      <trkpt lat="48.2658" lon="5.33266">
        <ele>259.92</ele>
        <time>2025-01-04T13:47:20.445Z</time>
      </trkpt>
      <trkpt lat="48.26606" lon="5.33271">
        <ele>259.75</ele>
        <time>2025-01-04T13:47:20.748Z</time>
      </trkpt>
      <trkpt lat="48.26628" lon="5.33276">
        <ele>259.49</ele>
        <time>2025-01-04T13:47:21.055Z</time>
      </trkpt>
      <trkpt lat="48.26651" lon="5.3328">
        <ele>259.14</ele>
        <time>2025-01-04T13:47:21.366Z</time>
      </trkpt>
      <trkpt lat="48.26673" lon="5.33284">
        <ele>258.73</ele>
        <time>2025-01-04T13:47:21.680Z</time>
      </trkpt>
      <trkpt lat="48.26695" lon="5.33288">
        <ele>258.28</ele>
        <time>2025-01-04T13:47:21.998Z</time>
      </trkpt>
      <trkpt lat="48.26723" lon="5.33293">
        <ele>257.71</ele>
        <time>2025-01-04T13:47:22.320Z</time>
      </trkpt>
      <trkpt lat="48.26751" lon="5.33299">
        <ele>257.12</ele>
        <time>2025-01-04T13:47:22.647Z</time>
      </trkpt>
      <trkpt lat="48.26776" lon="5.33303">
        <ele>256.54</ele>
        <time>2025-01-04T13:47:22.978Z</time>
      </trkpt>
      <trkpt lat="48.268" lon="5.33308">
        <ele>255.99</ele>
        <time>2025-01-04T13:47:23.313Z</time>
      </trkpt>
      <trkpt lat="48.2683" lon="5.33314">
        <ele>255.46</ele>
        <time>2025-01-04T13:47:23.653Z</time>
      </trkpt>
      <trkpt lat="48.26861" lon="5.33319">
        <ele>254.94</ele>
        <time>2025-01-04T13:47:23.997Z</time>
      </trkpt>
      <trkpt lat="48.2689" lon="5.33325">
        <ele>254.45</ele>
        <time>2025-01-04T13:47:24.346Z</time>
      </trkpt>
      <trkpt lat="48.26919" lon="5.3333">
        <ele>254.01</ele>
        <time>2025-01-04T13:47:24.700Z</time>
      </trkpt>
      <trkpt lat="48.26927" lon="5.33332">
        <ele>253.63</ele>
        <time>2025-01-04T13:47:25.055Z</time>
      </trkpt>
      <trkpt lat="48.26952" lon="5.33337">
        <ele>253.28</ele>
        <time>2025-01-04T13:47:25.414Z</time>
      </trkpt>
      <trkpt lat="48.26977" lon="5.33341">
        <ele>252.92</ele>
        <time>2025-01-04T13:47:25.777Z</time>
      </trkpt>
      <trkpt lat="48.26998" lon="5.33345">
        <ele>252.63</ele>
        <time>2025-01-04T13:47:26.144Z</time>
      </trkpt>
      <trkpt lat="48.27019" lon="5.33349">
        <ele>252.4</ele>
        <time>2025-01-04T13:47:26.514Z</time>
      </trkpt>
      <trkpt lat="48.27046" lon="5.33354">
        <ele>252.17</ele>
        <time>2025-01-04T13:47:26.888Z</time>
      </trkpt>
      <trkpt lat="48.27073" lon="5.33359">
        <ele>251.88</ele>
        <time>2025-01-04T13:47:27.267Z</time>
      </trkpt>
      <trkpt lat="48.27099" lon="5.33364">
        <ele>251.61</ele>
        <time>2025-01-04T13:47:27.650Z</time>
      </trkpt>
      <trkpt lat="48.27126" lon="5.33369">
        <ele>251.38</ele>
        <time>2025-01-04T13:47:28.037Z</time>
      </trkpt>
      <trkpt lat="48.27142" lon="5.33372">
        <ele>251.2</ele>
        <time>2025-01-04T13:47:28.427Z</time>
      </trkpt>
      <trkpt lat="48.27159" lon="5.33376">
        <ele>251.03</ele>
        <time>2025-01-04T13:47:28.820Z</time>
      </trkpt>
      <trkpt lat="48.27184" lon="5.3338">
        <ele>250.85</ele>
        <time>2025-01-04T13:47:29.216Z</time>
      </trkpt>
      <trkpt lat="48.27208" lon="5.33385">
        <ele>250.78</ele>
        <time>2025-01-04T13:47:29.616Z</time>
      </trkpt>
      <trkpt lat="48.27236" lon="5.3339">
        <ele>250.74</ele>
        <time>2025-01-04T13:47:30.021Z</time>
      </trkpt>
      <trkpt lat="48.27264" lon="5.33395">
        <ele>250.68</ele>
        <time>2025-01-04T13:47:30.431Z</time>
      </trkpt>
      <trkpt lat="48.27291" lon="5.33401">
        <ele>250.63</ele>
        <time>2025-01-04T13:47:30.845Z</time>
      </trkpt>
      <trkpt lat="48.27318" lon="5.33406">
        <ele>250.64</ele>
        <time>2025-01-04T13:47:31.263Z</time>
      </trkpt>
      <trkpt lat="48.2734" lon="5.3341">
        <ele>250.64</ele>
        <time>2025-01-04T13:47:31.685Z</time>
      </trkpt>
      <trkpt lat="48.27362" lon="5.33414">
        <ele>250.66</ele>
        <time>2025-01-04T13:47:32.110Z</time>
      </trkpt>
      <trkpt lat="48.27381" lon="5.33418">
        <ele>250.73</ele>
        <time>2025-01-04T13:47:32.538Z</time>
      </trkpt>
      <trkpt lat="48.27401" lon="5.33421">
        <ele>250.84</ele>
        <time>2025-01-04T13:47:32.970Z</time>
      </trkpt>
      <trkpt lat="48.27423" lon="5.33425">
        <ele>250.97</ele>
        <time>2025-01-04T13:47:33.405Z</time>
      </trkpt>
      <trkpt lat="48.27445" lon="5.33429">
        <ele>251.09</ele>
        <time>2025-01-04T13:47:33.844Z</time>
      </trkpt>
      <trkpt lat="48.27468" lon="5.33433">
        <ele>251.22</ele>
        <time>2025-01-04T13:47:34.286Z</time>
      </trkpt>
      <trkpt lat="48.27485" lon="5.33437">
        <ele>251.35</ele>
        <time>2025-01-04T13:47:34.731Z</time>
      </trkpt>
      <trkpt lat="48.27509" lon="5.33441">
        <ele>251.55</ele>
        <time>2025-01-04T13:47:35.180Z</time>
      </trkpt>
      <trkpt lat="48.27532" lon="5.33445">
        <ele>251.77</ele>
        <time>2025-01-04T13:47:35.633Z</time>
      </trkpt>
      <trkpt lat="48.27553" lon="5.33449">
        <ele>251.98</ele>
        <time>2025-01-04T13:47:36.089Z</time>
      </trkpt>
      <trkpt lat="48.27575" lon="5.33453">
        <ele>252.24</ele>
        <time>2025-01-04T13:47:36.549Z</time>
      </trkpt>
      <trkpt lat="48.27593" lon="5.33456">
        <ele>252.53</ele>
        <time>2025-01-04T13:47:37.011Z</time>
      </trkpt>
      <trkpt lat="48.2761" lon="5.3346">
        <ele>252.82</ele>
        <time>2025-01-04T13:47:37.476Z</time>
      </trkpt>
      <trkpt lat="48.27641" lon="5.33453">
        <ele>253.07</ele>
        <time>2025-01-04T13:47:37.946Z</time>
      </trkpt>
      <trkpt lat="48.27649" lon="5.33441">
        <ele>253.33</ele>
        <time>2025-01-04T13:47:38.418Z</time>
      </trkpt>
      <trkpt lat="48.27652" lon="5.33436">
        <ele>253.58</ele>
        <time>2025-01-04T13:47:38.891Z</time>
      </trkpt>
      <trkpt lat="48.27656" lon="5.33429">
        <ele>253.84</ele>
        <time>2025-01-04T13:47:39.365Z</time>
      </trkpt>
      <trkpt lat="48.27669" lon="5.33407">
        <ele>254.15</ele>
        <time>2025-01-04T13:47:39.842Z</time>
      </trkpt>
      <trkpt lat="48.27671" lon="5.3337">
        <ele>254.37</ele>
        <time>2025-01-04T13:47:40.323Z</time>
      </trkpt>
      <trkpt lat="48.27672" lon="5.33333">
        <ele>254.51</ele>
        <time>2025-01-04T13:47:40.808Z</time>
      </trkpt>
      <trkpt lat="48.27674" lon="5.33293">
        <ele>254.74</ele>
        <time>2025-01-04T13:47:41.297Z</time>
      </trkpt>
      <trkpt lat="48.27675" lon="5.33252">
        <ele>255.05</ele>
        <time>2025-01-04T13:47:41.791Z</time>
      </trkpt>
      <trkpt lat="48.27675" lon="5.33244">
        <ele>255.32</ele>
        <time>2025-01-04T13:47:42.286Z</time>
      </trkpt>
      <trkpt lat="48.27677" lon="5.3321">
        <ele>255.63</ele>
        <time>2025-01-04T13:47:42.784Z</time>
      </trkpt>
      <trkpt lat="48.27678" lon="5.33176">
        <ele>255.9</ele>
        <time>2025-01-04T13:47:43.286Z</time>
      </trkpt>
      <trkpt lat="48.27685" lon="5.3317">
        <ele>256.23</ele>
        <time>2025-01-04T13:47:43.789Z</time>
      </trkpt>
      <trkpt lat="48.27689" lon="5.33168">
        <ele>256.56</ele>
        <time>2025-01-04T13:47:44.293Z</time>
      </trkpt>
      <trkpt lat="48.27693" lon="5.33165">
        <ele>256.9</ele>
        <time>2025-01-04T13:47:44.797Z</time>
      </trkpt>
      <trkpt lat="48.27697" lon="5.33161">
        <ele>257.27</ele>
        <time>2025-01-04T13:47:45.302Z</time>
      </trkpt>
      <trkpt lat="48.27707" lon="5.33154">
        <ele>257.65</ele>
        <time>2025-01-04T13:47:45.809Z</time>
      </trkpt>
      <trkpt lat="48.27725" lon="5.33149">
        <ele>258.1</ele>
        <time>2025-01-04T13:47:46.319Z</time>
      </trkpt>
      <trkpt lat="48.27743" lon="5.33144">
        <ele>258.63</ele>
        <time>2025-01-04T13:47:46.832Z</time>
      </trkpt>
      <trkpt lat="48.27748" lon="5.33144">
        <ele>259.13</ele>
        <time>2025-01-04T13:47:47.346Z</time>
      </trkpt>
      <trkpt lat="48.27753" lon="5.33144">
        <ele>259.66</ele>
        <time>2025-01-04T13:47:47.860Z</time>
      </trkpt>
      <trkpt lat="48.27779" lon="5.33158">
        <ele>260.3</ele>
        <time>2025-01-04T13:47:48.379Z</time>
      </trkpt>
      <trkpt lat="48.27805" lon="5.33172">
        <ele>260.92</ele>
        <time>2025-01-04T13:47:48.902Z</time>
      </trkpt>
      <trkpt lat="48.27831" lon="5.33186">
        <ele>261.45</ele>
        <time>2025-01-04T13:47:49.430Z</time>
      </trkpt>
      <trkpt lat="48.27842" lon="5.33192">
        <ele>262.03</ele>
        <time>2025-01-04T13:47:49.960Z</time>
      </trkpt>
      <trkpt lat="48.27868" lon="5.33206">
        <ele>262.62</ele>
        <time>2025-01-04T13:47:50.494Z</time>
      </trkpt>
      <trkpt lat="48.27895" lon="5.3322">
        <ele>263.29</ele>
        <time>2025-01-04T13:47:51.033Z</time>
      </trkpt>
      <trkpt lat="48.27922" lon="5.33235">
        <ele>263.99</ele>
        <time>2025-01-04T13:47:51.576Z</time>
      </trkpt>
      <trkpt lat="48.27948" lon="5.33249">
        <ele>264.72</ele>
        <time>2025-01-04T13:47:52.124Z</time>
      </trkpt>
      <trkpt lat="48.27974" lon="5.33263">
        <ele>265.47</ele>
        <time>2025-01-04T13:47:52.676Z</time>
      </trkpt>
      <trkpt lat="48.28" lon="5.33277">
        <ele>266.25</ele>
        <time>2025-01-04T13:47:53.232Z</time>
      </trkpt>
      <trkpt lat="48.28004" lon="5.33279">
        <ele>267</ele>
        <time>2025-01-04T13:47:53.789Z</time>
      </trkpt>
      <trkpt lat="48.28021" lon="5.33288">
        <ele>267.83</ele>
        <time>2025-01-04T13:47:54.349Z</time>
      </trkpt>
      <trkpt lat="48.28038" lon="5.33297">
        <ele>268.7</ele>
        <time>2025-01-04T13:47:54.912Z</time>
      </trkpt>
      <trkpt lat="48.28059" lon="5.33309">
        <ele>269.53</ele>
        <time>2025-01-04T13:47:55.478Z</time>
      </trkpt>
      <trkpt lat="48.2808" lon="5.3332">
        <ele>270.3</ele>
        <time>2025-01-04T13:47:56.048Z</time>
      </trkpt>
      <trkpt lat="48.28096" lon="5.33329">
        <ele>271.17</ele>
        <time>2025-01-04T13:47:56.621Z</time>
      </trkpt>
      <trkpt lat="48.28112" lon="5.33337">
        <ele>271.98</ele>
        <time>2025-01-04T13:47:57.196Z</time>
      </trkpt>
      <trkpt lat="48.28139" lon="5.33352">
        <ele>272.78</ele>
        <time>2025-01-04T13:47:57.776Z</time>
      </trkpt>
      <trkpt lat="48.2816" lon="5.33364">
        <ele>273.47</ele>
        <time>2025-01-04T13:47:58.360Z</time>
      </trkpt>
      <trkpt lat="48.28173" lon="5.3337">
        <ele>274.19</ele>
        <time>2025-01-04T13:47:58.946Z</time>
      </trkpt>
      <trkpt lat="48.28196" lon="5.33378">
        <ele>274.93</ele>
        <time>2025-01-04T13:47:59.536Z</time>
      </trkpt>
      <trkpt lat="48.28225" lon="5.33384">
        <ele>275.6</ele>
        <time>2025-01-04T13:48:00.130Z</time>
      </trkpt>
      <trkpt lat="48.2823" lon="5.33383">
        <ele>276.26</ele>
        <time>2025-01-04T13:48:00.725Z</time>
      </trkpt>
      <trkpt lat="48.28242" lon="5.33382">
        <ele>276.92</ele>
        <time>2025-01-04T13:48:01.322Z</time>
      </trkpt>
      <trkpt lat="48.28247" lon="5.33382">
        <ele>277.58</ele>
        <time>2025-01-04T13:48:01.920Z</time>
      </trkpt>
      <trkpt lat="48.28251" lon="5.33382">
        <ele>278.25</ele>
        <time>2025-01-04T13:48:02.519Z</time>
      </trkpt>
      <trkpt lat="48.28273" lon="5.3338">
        <ele>278.99</ele>
        <time>2025-01-04T13:48:03.121Z</time>
      </trkpt>
      <trkpt lat="48.28304" lon="5.33377">
        <ele>279.62</ele>
        <time>2025-01-04T13:48:03.728Z</time>
      </trkpt>
      <trkpt lat="48.28324" lon="5.33379">
        <ele>280.21</ele>
        <time>2025-01-04T13:48:04.338Z</time>
      </trkpt>
      <trkpt lat="48.28344" lon="5.33381">
        <ele>280.81</ele>
        <time>2025-01-04T13:48:04.951Z</time>
      </trkpt>
      <trkpt lat="48.28368" lon="5.33386">
        <ele>281.48</ele>
        <time>2025-01-04T13:48:05.568Z</time>
      </trkpt>
      <trkpt lat="48.28391" lon="5.33391">
        <ele>282.29</ele>
        <time>2025-01-04T13:48:06.189Z</time>
      </trkpt>
      <trkpt lat="48.28412" lon="5.33396">
        <ele>283.15</ele>
        <time>2025-01-04T13:48:06.813Z</time>
      </trkpt>
      <trkpt lat="48.28432" lon="5.334">
        <ele>284.09</ele>
        <time>2025-01-04T13:48:07.441Z</time>
      </trkpt>
      <trkpt lat="48.28438" lon="5.33402">
        <ele>285.01</ele>
        <time>2025-01-04T13:48:08.070Z</time>
      </trkpt>
      <trkpt lat="48.28453" lon="5.33414">
        <ele>286.02</ele>
        <time>2025-01-04T13:48:08.701Z</time>
      </trkpt>
      <trkpt lat="48.28458" lon="5.33418">
        <ele>287.04</ele>
        <time>2025-01-04T13:48:09.333Z</time>
      </trkpt>
      <trkpt lat="48.28478" lon="5.3345">
        <ele>288.26</ele>
        <time>2025-01-04T13:48:09.970Z</time>
      </trkpt>
      <trkpt lat="48.28491" lon="5.33485">
        <ele>289.49</ele>
        <time>2025-01-04T13:48:10.611Z</time>
      </trkpt>
      <trkpt lat="48.28505" lon="5.33523">
        <ele>290.69</ele>
        <time>2025-01-04T13:48:11.257Z</time>
      </trkpt>
      <trkpt lat="48.28517" lon="5.33553">
        <ele>291.8</ele>
        <time>2025-01-04T13:48:11.907Z</time>
      </trkpt>
      <trkpt lat="48.28526" lon="5.3357">
        <ele>292.97</ele>
        <time>2025-01-04T13:48:12.559Z</time>
      </trkpt>
      <trkpt lat="48.28547" lon="5.33594">
        <ele>294.33</ele>
        <time>2025-01-04T13:48:13.215Z</time>
      </trkpt>
      <trkpt lat="48.28564" lon="5.33604">
        <ele>295.66</ele>
        <time>2025-01-04T13:48:13.874Z</time>
      </trkpt>
      <trkpt lat="48.28575" lon="5.33611">
        <ele>296.98</ele>
        <time>2025-01-04T13:48:14.535Z</time>
      </trkpt>
      <trkpt lat="48.28589" lon="5.33617">
        <ele>298.27</ele>
        <time>2025-01-04T13:48:15.198Z</time>
      </trkpt>
      <trkpt lat="48.28606" lon="5.33617">
        <ele>299.66</ele>
        <time>2025-01-04T13:48:15.864Z</time>
      </trkpt>
      <trkpt lat="48.28622" lon="5.33614">
        <ele>300.98</ele>
        <time>2025-01-04T13:48:16.533Z</time>
      </trkpt>
      <trkpt lat="48.28635" lon="5.33612">
        <ele>302.32</ele>
        <time>2025-01-04T13:48:17.204Z</time>
      </trkpt>
      <trkpt lat="48.28653" lon="5.33609">
        <ele>303.62</ele>
        <time>2025-01-04T13:48:17.878Z</time>
      </trkpt>
      <trkpt lat="48.28676" lon="5.33606">
        <ele>304.94</ele>
        <time>2025-01-04T13:48:18.555Z</time>
      </trkpt>
      <trkpt lat="48.28706" lon="5.336">
        <ele>306.29</ele>
        <time>2025-01-04T13:48:19.237Z</time>
      </trkpt>
      <trkpt lat="48.28722" lon="5.33598">
        <ele>307.58</ele>
        <time>2025-01-04T13:48:19.922Z</time>
      </trkpt>
      <trkpt lat="48.28738" lon="5.33595">
        <ele>308.9</ele>
        <time>2025-01-04T13:48:20.609Z</time>
      </trkpt>
      <trkpt lat="48.28743" lon="5.33594">
        <ele>310.18</ele>
        <time>2025-01-04T13:48:21.297Z</time>
      </trkpt>
      <trkpt lat="48.28758" lon="5.33592">
        <ele>311.5</ele>
        <time>2025-01-04T13:48:21.988Z</time>
      </trkpt>
      <trkpt lat="48.28778" lon="5.33589">
        <ele>312.85</ele>
        <time>2025-01-04T13:48:22.682Z</time>
      </trkpt>
      <trkpt lat="48.28799" lon="5.33585">
        <ele>314.22</ele>
        <time>2025-01-04T13:48:23.379Z</time>
      </trkpt>
      <trkpt lat="48.2881" lon="5.33583">
        <ele>315.56</ele>
        <time>2025-01-04T13:48:24.078Z</time>
      </trkpt>
      <trkpt lat="48.28824" lon="5.33581">
        <ele>316.96</ele>
        <time>2025-01-04T13:48:24.779Z</time>
      </trkpt>
      <trkpt lat="48.2885" lon="5.33577">
        <ele>318.31</ele>
        <time>2025-01-04T13:48:25.484Z</time>
      </trkpt>
      <trkpt lat="48.28866" lon="5.33578">
        <ele>319.49</ele>
        <time>2025-01-04T13:48:26.192Z</time>
      </trkpt>
      <trkpt lat="48.28882" lon="5.33579">
        <ele>320.61</ele>
        <time>2025-01-04T13:48:26.902Z</time>
      </trkpt>
      <trkpt lat="48.289" lon="5.3358">
        <ele>321.69</ele>
        <time>2025-01-04T13:48:27.615Z</time>
      </trkpt>
      <trkpt lat="48.28904" lon="5.3358">
        <ele>322.65</ele>
        <time>2025-01-04T13:48:28.329Z</time>
      </trkpt>
      <trkpt lat="48.28913" lon="5.33581">
        <ele>323.54</ele>
        <time>2025-01-04T13:48:29.044Z</time>
      </trkpt>
      <trkpt lat="48.28918" lon="5.33581">
        <ele>324.31</ele>
        <time>2025-01-04T13:48:29.760Z</time>
      </trkpt>
      <trkpt lat="48.28923" lon="5.33581">
        <ele>324.99</ele>
        <time>2025-01-04T13:48:30.477Z</time>
      </trkpt>
      <trkpt lat="48.28933" lon="5.33582">
        <ele>325.57</ele>
        <time>2025-01-04T13:48:31.196Z</time>
      </trkpt>
      <trkpt lat="48.28943" lon="5.33583">
        <ele>326.08</ele>
        <time>2025-01-04T13:48:31.916Z</time>
      </trkpt>
      <trkpt lat="48.28956" lon="5.33583">
        <ele>326.56</ele>
        <time>2025-01-04T13:48:32.638Z</time>
      </trkpt>
      <trkpt lat="48.28969" lon="5.33584">
        <ele>326.92</ele>
        <time>2025-01-04T13:48:33.362Z</time>
      </trkpt>
      <trkpt lat="48.28993" lon="5.33585">
        <ele>327.12</ele>
        <time>2025-01-04T13:48:34.090Z</time>
      </trkpt>
      <trkpt lat="48.2902" lon="5.33587">
        <ele>327.22</ele>
        <time>2025-01-04T13:48:34.823Z</time>
      </trkpt>
      <trkpt lat="48.29044" lon="5.33587">
        <ele>327.23</ele>
        <time>2025-01-04T13:48:35.559Z</time>
      </trkpt>
      <trkpt lat="48.29054" lon="5.33586">
        <ele>327.1</ele>
        <time>2025-01-04T13:48:36.297Z</time>
      </trkpt>
      <trkpt lat="48.29058" lon="5.33585">
        <ele>326.8</ele>
        <time>2025-01-04T13:48:37.036Z</time>
      </trkpt>
      <trkpt lat="48.2907" lon="5.33583">
        <ele>326.41</ele>
        <time>2025-01-04T13:48:37.777Z</time>
      </trkpt>
      <trkpt lat="48.29082" lon="5.33582">
        <ele>325.9</ele>
        <time>2025-01-04T13:48:38.520Z</time>
      </trkpt>
      <trkpt lat="48.29087" lon="5.33581">
        <ele>325.23</ele>
        <time>2025-01-04T13:48:39.263Z</time>
      </trkpt>
      <trkpt lat="48.2909" lon="5.33622">
        <ele>323.63</ele>
        <time>2025-01-04T13:48:40.011Z</time>
      </trkpt>
      <trkpt lat="48.29092" lon="5.33662">
        <ele>322.34</ele>
        <time>2025-01-04T13:48:40.763Z</time>
      </trkpt>
      <trkpt lat="48.29091" lon="5.33669">
        <ele>321.35</ele>
        <time>2025-01-04T13:48:41.516Z</time>
      </trkpt>
      <trkpt lat="48.2909" lon="5.33684">
        <ele>320.3</ele>
        <time>2025-01-04T13:48:42.271Z</time>
      </trkpt>
      <trkpt lat="48.29089" lon="5.33701">
        <ele>319.24</ele>
        <time>2025-01-04T13:48:43.027Z</time>
      </trkpt>
      <trkpt lat="48.29087" lon="5.33723">
        <ele>318.04</ele>
        <time>2025-01-04T13:48:43.786Z</time>
      </trkpt>
      <trkpt lat="48.29087" lon="5.33731">
        <ele>316.86</ele>
        <time>2025-01-04T13:48:44.545Z</time>
      </trkpt>
      <trkpt lat="48.29087" lon="5.33738">
        <ele>315.64</ele>
        <time>2025-01-04T13:48:45.305Z</time>
      </trkpt>
      <trkpt lat="48.29086" lon="5.3376">
        <ele>314.37</ele>
        <time>2025-01-04T13:48:46.068Z</time>
      </trkpt>
      <trkpt lat="48.29085" lon="5.33771">
        <ele>313.07</ele>
        <time>2025-01-04T13:48:46.832Z</time>
      </trkpt>
      <trkpt lat="48.29085" lon="5.3378">
        <ele>311.77</ele>
        <time>2025-01-04T13:48:47.597Z</time>
      </trkpt>
      <trkpt lat="48.29084" lon="5.33785">
        <ele>310.46</ele>
        <time>2025-01-04T13:48:48.362Z</time>
      </trkpt>
      <trkpt lat="48.29082" lon="5.33794">
        <ele>309.13</ele>
        <time>2025-01-04T13:48:49.128Z</time>
      </trkpt>
      <trkpt lat="48.29079" lon="5.33818">
        <ele>307.67</ele>
        <time>2025-01-04T13:48:49.897Z</time>
      </trkpt>
      <trkpt lat="48.29081" lon="5.33832">
        <ele>306.34</ele>
        <time>2025-01-04T13:48:50.667Z</time>
      </trkpt>
      <trkpt lat="48.29082" lon="5.33842">
        <ele>305.04</ele>
        <time>2025-01-04T13:48:51.439Z</time>
      </trkpt>
      <trkpt lat="48.29087" lon="5.33852">
        <ele>303.79</ele>
        <time>2025-01-04T13:48:52.212Z</time>
      </trkpt>
      <trkpt lat="48.29088" lon="5.33856">
        <ele>302.56</ele>
        <time>2025-01-04T13:48:52.985Z</time>
      </trkpt>
      <trkpt lat="48.29099" lon="5.33872">
        <ele>301.4</ele>
        <time>2025-01-04T13:48:53.761Z</time>
      </trkpt>
      <trkpt lat="48.29113" lon="5.33888">
        <ele>300.27</ele>
        <time>2025-01-04T13:48:54.540Z</time>
      </trkpt>
      <trkpt lat="48.29122" lon="5.33899">
        <ele>299.08</ele>
        <time>2025-01-04T13:48:55.320Z</time>
      </trkpt>
      <trkpt lat="48.29125" lon="5.33902">
        <ele>297.95</ele>
        <time>2025-01-04T13:48:56.101Z</time>
      </trkpt>
      <trkpt lat="48.29127" lon="5.33905">
        <ele>296.85</ele>
        <time>2025-01-04T13:48:56.883Z</time>
      </trkpt>
      <trkpt lat="48.29129" lon="5.33907">
        <ele>295.8</ele>
        <time>2025-01-04T13:48:57.665Z</time>
      </trkpt>
      <trkpt lat="48.29137" lon="5.33919">
        <ele>294.72</ele>
        <time>2025-01-04T13:48:58.449Z</time>
      </trkpt>
      <trkpt lat="48.29145" lon="5.33938">
        <ele>293.59</ele>
        <time>2025-01-04T13:48:59.235Z</time>
      </trkpt>
      <trkpt lat="48.29152" lon="5.33959">
        <ele>292.49</ele>
        <time>2025-01-04T13:49:00.024Z</time>
      </trkpt>
      <trkpt lat="48.29154" lon="5.3397">
        <ele>291.56</ele>
        <time>2025-01-04T13:49:00.814Z</time>
      </trkpt>
      <trkpt lat="48.29155" lon="5.33978">
        <ele>290.75</ele>
        <time>2025-01-04T13:49:01.605Z</time>
      </trkpt>
      <trkpt lat="48.29158" lon="5.33987">
        <ele>290</ele>
        <time>2025-01-04T13:49:02.397Z</time>
      </trkpt>
      <trkpt lat="48.29159" lon="5.33991">
        <ele>289.36</ele>
        <time>2025-01-04T13:49:03.189Z</time>
      </trkpt>
      <trkpt lat="48.29161" lon="5.33995">
        <ele>288.82</ele>
        <time>2025-01-04T13:49:03.982Z</time>
      </trkpt>
      <trkpt lat="48.29165" lon="5.33997">
        <ele>288.37</ele>
        <time>2025-01-04T13:49:04.775Z</time>
      </trkpt>
      <trkpt lat="48.29165" lon="5.33997">
        <ele>288.01</ele>
        <time>2025-01-04T13:49:05.569Z</time>
      </trkpt>
      <trkpt lat="48.29166" lon="5.33996">
        <ele>287.75</ele>
        <time>2025-01-04T13:49:06.363Z</time>
      </trkpt>
      <trkpt lat="48.29165" lon="5.33996">
        <ele>287.58</ele>
        <time>2025-01-04T13:49:07.157Z</time>
      </trkpt>
      <trkpt lat="48.29163" lon="5.33997">
        <ele>287.5</ele>
        <time>2025-01-04T13:49:07.951Z</time>
      </trkpt>
      <trkpt lat="48.29162" lon="5.33998">
        <ele>287.51</ele>
        <time>2025-01-04T13:49:08.745Z</time>
      </trkpt>
      <trkpt lat="48.29163" lon="5.34">
        <ele>287.61</ele>
        <time>2025-01-04T13:49:09.540Z</time>
      </trkpt>
      <trkpt lat="48.29163" lon="5.34">
        <ele>287.8</ele>
        <time>2025-01-04T13:49:10.335Z</time>
      </trkpt>
      <trkpt lat="48.29163" lon="5.33991">
        <ele>288.12</ele>
        <time>2025-01-04T13:49:11.131Z</time>
      </trkpt>
      <trkpt lat="48.29163" lon="5.33986">
        <ele>288.52</ele>
        <time>2025-01-04T13:49:11.927Z</time>
      </trkpt>
      <trkpt lat="48.29158" lon="5.33974">
        <ele>289.03</ele>
        <time>2025-01-04T13:49:12.725Z</time>
      </trkpt>
      <trkpt lat="48.29153" lon="5.3396">
        <ele>289.64</ele>
        <time>2025-01-04T13:49:13.524Z</time>
      </trkpt>
      <trkpt lat="48.29146" lon="5.3395">
        <ele>290.3</ele>
        <time>2025-01-04T13:49:14.325Z</time>
      </trkpt>
      <trkpt lat="48.29145" lon="5.33949">
        <ele>290.97</ele>
        <time>2025-01-04T13:49:15.126Z</time>
      </trkpt>
      <trkpt lat="48.29143" lon="5.33945">
        <ele>291.72</ele>
        <time>2025-01-04T13:49:15.928Z</time>
      </trkpt>
      <trkpt lat="48.29141" lon="5.33945">
        <ele>292.49</ele>
        <time>2025-01-04T13:49:16.730Z</time>
      </trkpt>
      <trkpt lat="48.29133" lon="5.33929">
        <ele>293.47</ele>
        <time>2025-01-04T13:49:17.534Z</time>
      </trkpt>
      <trkpt lat="48.29128" lon="5.33917">
        <ele>294.47</ele>
        <time>2025-01-04T13:49:18.340Z</time>
      </trkpt>
      <trkpt lat="48.29123" lon="5.33906">
        <ele>295.49</ele>
        <time>2025-01-04T13:49:19.147Z</time>
      </trkpt>
      <trkpt lat="48.29114" lon="5.33891">
        <ele>296.55</ele>
        <time>2025-01-04T13:49:19.956Z</time>
      </trkpt>
      <trkpt lat="48.2911" lon="5.33886">
        <ele>297.61</ele>
        <time>2025-01-04T13:49:20.766Z</time>
      </trkpt>
      <trkpt lat="48.29106" lon="5.3388">
        <ele>298.67</ele>
        <time>2025-01-04T13:49:21.577Z</time>
      </trkpt>
      <trkpt lat="48.29099" lon="5.33867">
        <ele>299.75</ele>
        <time>2025-01-04T13:49:22.390Z</time>
      </trkpt>
      <trkpt lat="48.29098" lon="5.33865">
        <ele>300.89</ele>
        <time>2025-01-04T13:49:23.203Z</time>
      </trkpt>
      <trkpt lat="48.29093" lon="5.33859">
        <ele>302.03</ele>
        <time>2025-01-04T13:49:24.017Z</time>
      </trkpt>
      <trkpt lat="48.29085" lon="5.33847">
        <ele>303.2</ele>
        <time>2025-01-04T13:49:24.833Z</time>
      </trkpt>
      <trkpt lat="48.29079" lon="5.33821">
        <ele>304.51</ele>
        <time>2025-01-04T13:49:25.652Z</time>
      </trkpt>
      <trkpt lat="48.29084" lon="5.33805">
        <ele>305.94</ele>
        <time>2025-01-04T13:49:26.473Z</time>
      </trkpt>
      <trkpt lat="48.29084" lon="5.33788">
        <ele>307.31</ele>
        <time>2025-01-04T13:49:27.295Z</time>
      </trkpt>
      <trkpt lat="48.29086" lon="5.33771">
        <ele>308.71</ele>
        <time>2025-01-04T13:49:28.119Z</time>
      </trkpt>
      <trkpt lat="48.29087" lon="5.33753">
        <ele>310.11</ele>
        <time>2025-01-04T13:49:28.945Z</time>
      </trkpt>
      <trkpt lat="48.29089" lon="5.3373">
        <ele>311.54</ele>
        <time>2025-01-04T13:49:29.774Z</time>
      </trkpt>
      <trkpt lat="48.29094" lon="5.33704">
        <ele>313.01</ele>
        <time>2025-01-04T13:49:30.606Z</time>
      </trkpt>
      <trkpt lat="48.29099" lon="5.33685">
        <ele>314.42</ele>
        <time>2025-01-04T13:49:31.440Z</time>
      </trkpt>
      <trkpt lat="48.29099" lon="5.33661">
        <ele>315.89</ele>
        <time>2025-01-04T13:49:32.276Z</time>
      </trkpt>
      <trkpt lat="48.29104" lon="5.33644">
        <ele>317.48</ele>
        <time>2025-01-04T13:49:33.114Z</time>
      </trkpt>
      <trkpt lat="48.29113" lon="5.33641">
        <ele>319.01</ele>
        <time>2025-01-04T13:49:33.954Z</time>
      </trkpt>
      <trkpt lat="48.29127" lon="5.33638">
        <ele>320.57</ele>
        <time>2025-01-04T13:49:34.796Z</time>
      </trkpt>
      <trkpt lat="48.2914" lon="5.33636">
        <ele>322.1</ele>
        <time>2025-01-04T13:49:35.640Z</time>
      </trkpt>
      <trkpt lat="48.29157" lon="5.33634">
        <ele>323.59</ele>
        <time>2025-01-04T13:49:36.487Z</time>
      </trkpt>
      <trkpt lat="48.29172" lon="5.33629">
        <ele>325.24</ele>
        <time>2025-01-04T13:49:37.336Z</time>
      </trkpt>
      <trkpt lat="48.29188" lon="5.33628">
        <ele>326.85</ele>
        <time>2025-01-04T13:49:38.188Z</time>
      </trkpt>
      <trkpt lat="48.29198" lon="5.33626">
        <ele>328.39</ele>
        <time>2025-01-04T13:49:39.041Z</time>
      </trkpt>
      <trkpt lat="48.29214" lon="5.33623">
        <ele>329.9</ele>
        <time>2025-01-04T13:49:39.897Z</time>
      </trkpt>
      <trkpt lat="48.29226" lon="5.33585">
        <ele>331.62</ele>
        <time>2025-01-04T13:49:40.758Z</time>
      </trkpt>
      <trkpt lat="48.2924" lon="5.33586">
        <ele>332.95</ele>
        <time>2025-01-04T13:49:41.621Z</time>
      </trkpt>
      <trkpt lat="48.29254" lon="5.33586">
        <ele>334.24</ele>
        <time>2025-01-04T13:49:42.486Z</time>
      </trkpt>
      <trkpt lat="48.29265" lon="5.33587">
        <ele>335.45</ele>
        <time>2025-01-04T13:49:43.353Z</time>
      </trkpt>
      <trkpt lat="48.29276" lon="5.33587">
        <ele>336.6</ele>
        <time>2025-01-04T13:49:44.222Z</time>
      </trkpt>
      <trkpt lat="48.29291" lon="5.33588">
        <ele>337.7</ele>
        <time>2025-01-04T13:49:45.093Z</time>
      </trkpt>
      <trkpt lat="48.29308" lon="5.33586">
        <ele>338.74</ele>
        <time>2025-01-04T13:49:45.967Z</time>
      </trkpt>
      <trkpt lat="48.29322" lon="5.33584">
        <ele>339.68</ele>
        <time>2025-01-04T13:49:46.843Z</time>
      </trkpt>
      <trkpt lat="48.29333" lon="5.33583">
        <ele>340.58</ele>
        <time>2025-01-04T13:49:47.721Z</time>
      </trkpt>
      <trkpt lat="48.29342" lon="5.33582">
        <ele>341.39</ele>
        <time>2025-01-04T13:49:48.600Z</time>
      </trkpt>
      <trkpt lat="48.29344" lon="5.33582">
        <ele>342.13</ele>
        <time>2025-01-04T13:49:49.479Z</time>
      </trkpt>
      <trkpt lat="48.29355" lon="5.33585">
        <ele>342.83</ele>
        <time>2025-01-04T13:49:50.360Z</time>
      </trkpt>
      <trkpt lat="48.29366" lon="5.33598">
        <ele>343.5</ele>
        <time>2025-01-04T13:49:51.243Z</time>
      </trkpt>
      <trkpt lat="48.29369" lon="5.33601">
        <ele>344.07</ele>
        <time>2025-01-04T13:49:52.127Z</time>
      </trkpt>
      <trkpt lat="48.29384" lon="5.33621">
        <ele>344.68</ele>
        <time>2025-01-04T13:49:53.014Z</time>
      </trkpt>
      <trkpt lat="48.29399" lon="5.33641">
        <ele>345.18</ele>
        <time>2025-01-04T13:49:53.904Z</time>
      </trkpt>
      <trkpt lat="48.29412" lon="5.33636">
        <ele>345.56</ele>
        <time>2025-01-04T13:49:54.797Z</time>
      </trkpt>
      <trkpt lat="48.29413" lon="5.33635">
        <ele>345.91</ele>
        <time>2025-01-04T13:49:55.690Z</time>
      </trkpt>
      <trkpt lat="48.29415" lon="5.33635">
        <ele>346.23</ele>
        <time>2025-01-04T13:49:56.583Z</time>
      </trkpt>
      <trkpt lat="48.29417" lon="5.33634">
        <ele>346.52</ele>
        <time>2025-01-04T13:49:57.476Z</time>
      </trkpt>
      <trkpt lat="48.29418" lon="5.33634">
        <ele>346.78</ele>
        <time>2025-01-04T13:49:58.370Z</time>
      </trkpt>
      <trkpt lat="48.29405" lon="5.33638">
        <ele>347.03</ele>
        <time>2025-01-04T13:49:59.266Z</time>
      </trkpt>
      <trkpt lat="48.294" lon="5.3364">
        <ele>347.26</ele>
        <time>2025-01-04T13:50:00.163Z</time>
      </trkpt>
      <trkpt lat="48.29384" lon="5.33641">
        <ele>347.46</ele>
        <time>2025-01-04T13:50:01.062Z</time>
      </trkpt>
      <trkpt lat="48.29369" lon="5.33638">
        <ele>347.55</ele>
        <time>2025-01-04T13:50:01.964Z</time>
      </trkpt>
      <trkpt lat="48.29356" lon="5.33646">
        <ele>347.7</ele>
        <time>2025-01-04T13:50:02.868Z</time>
      </trkpt>
      <trkpt lat="48.29344" lon="5.33657">
        <ele>347.86</ele>
        <time>2025-01-04T13:50:03.774Z</time>
      </trkpt>
      <trkpt lat="48.29333" lon="5.33667">
        <ele>348.03</ele>
        <time>2025-01-04T13:50:04.682Z</time>
      </trkpt>
      <trkpt lat="48.29317" lon="5.33681">
        <ele>348.23</ele>
        <time>2025-01-04T13:50:05.593Z</time>
      </trkpt>
      <trkpt lat="48.2931" lon="5.33708">
        <ele>348.65</ele>
        <time>2025-01-04T13:50:06.507Z</time>
      </trkpt>
      <trkpt lat="48.29312" lon="5.33726">
        <ele>349.05</ele>
        <time>2025-01-04T13:50:07.423Z</time>
      </trkpt>
      <trkpt lat="48.29322" lon="5.33735">
        <ele>349.36</ele>
        <time>2025-01-04T13:50:08.341Z</time>
      </trkpt>
      <trkpt lat="48.29341" lon="5.33743">
        <ele>349.67</ele>
        <time>2025-01-04T13:50:09.262Z</time>
      </trkpt>
      <trkpt lat="48.29371" lon="5.33749">
        <ele>350.01</ele>
        <time>2025-01-04T13:50:10.188Z</time>
      </trkpt>
      <trkpt lat="48.29401" lon="5.33755">
        <ele>350.37</ele>
        <time>2025-01-04T13:50:11.119Z</time>
      </trkpt>
      <trkpt lat="48.29429" lon="5.3376">
        <ele>350.66</ele>
        <time>2025-01-04T13:50:12.054Z</time>
      </trkpt>
      <trkpt lat="48.29457" lon="5.33765">
        <ele>350.97</ele>
        <time>2025-01-04T13:50:12.994Z</time>
      </trkpt>
      <trkpt lat="48.29464" lon="5.33766">
        <ele>351.25</ele>
        <time>2025-01-04T13:50:13.935Z</time>
      </trkpt>
      <trkpt lat="48.29476" lon="5.33767">
        <ele>351.51</ele>
        <time>2025-01-04T13:50:14.878Z</time>
      </trkpt>
      <trkpt lat="48.29508" lon="5.33769">
        <ele>351.8</ele>
        <time>2025-01-04T13:50:15.826Z</time>
      </trkpt>
      <trkpt lat="48.29536" lon="5.33771">
        <ele>352.11</ele>
        <time>2025-01-04T13:50:16.779Z</time>
      </trkpt>
      <trkpt lat="48.29551" lon="5.33772">
        <ele>352.38</ele>
        <time>2025-01-04T13:50:17.734Z</time>
      </trkpt>
      <trkpt lat="48.29575" lon="5.33774">
        <ele>352.59</ele>
        <time>2025-01-04T13:50:18.693Z</time>
      </trkpt>
      <trkpt lat="48.29596" lon="5.33777">
        <ele>352.75</ele>
        <time>2025-01-04T13:50:19.655Z</time>
      </trkpt>
      <trkpt lat="48.29617" lon="5.3378">
        <ele>352.9</ele>
        <time>2025-01-04T13:50:20.621Z</time>
      </trkpt>
      <trkpt lat="48.29635" lon="5.33782">
        <ele>353.07</ele>
        <time>2025-01-04T13:50:21.590Z</time>
      </trkpt>
      <trkpt lat="48.29653" lon="5.33785">
        <ele>353.21</ele>
        <time>2025-01-04T13:50:22.561Z</time>
      </trkpt>
      <trkpt lat="48.29681" lon="5.33788">
        <ele>353.34</ele>
        <time>2025-01-04T13:50:23.537Z</time>
      </trkpt>
      <trkpt lat="48.29708" lon="5.33792">
        <ele>353.5</ele>
        <time>2025-01-04T13:50:24.517Z</time>
      </trkpt>
      <trkpt lat="48.29739" lon="5.33796">
        <ele>353.61</ele>
        <time>2025-01-04T13:50:25.502Z</time>
      </trkpt>
      <trkpt lat="48.29757" lon="5.33798">
        <ele>353.7</ele>
        <time>2025-01-04T13:50:26.490Z</time>
      </trkpt>
      <trkpt lat="48.29776" lon="5.338">
        <ele>353.77</ele>
        <time>2025-01-04T13:50:27.481Z</time>
      </trkpt>
      <trkpt lat="48.29797" lon="5.33803">
        <ele>353.86</ele>
        <time>2025-01-04T13:50:28.476Z</time>
      </trkpt>
      <trkpt lat="48.29819" lon="5.33806">
        <ele>353.98</ele>
        <time>2025-01-04T13:50:29.474Z</time>
      </trkpt>
      <trkpt lat="48.29842" lon="5.33809">
        <ele>354.09</ele>
        <time>2025-01-04T13:50:30.476Z</time>
      </trkpt>
      <trkpt lat="48.29865" lon="5.33812">
        <ele>354.16</ele>
        <time>2025-01-04T13:50:31.481Z</time>
      </trkpt>
      <trkpt lat="48.29875" lon="5.33816">
        <ele>354.23</ele>
        <time>2025-01-04T13:50:32.488Z</time>
      </trkpt>
      <trkpt lat="48.29888" lon="5.33828">
        <ele>354.31</ele>
        <time>2025-01-04T13:50:33.498Z</time>
      </trkpt>
      <trkpt lat="48.2991" lon="5.33855">
        <ele>354.39</ele>
        <time>2025-01-04T13:50:34.512Z</time>
      </trkpt>
      <trkpt lat="48.29929" lon="5.33884">
        <ele>354.51</ele>
        <time>2025-01-04T13:50:35.530Z</time>
      </trkpt>
      <trkpt lat="48.29948" lon="5.33913">
        <ele>354.56</ele>
        <time>2025-01-04T13:50:36.553Z</time>
      </trkpt>
      <trkpt lat="48.29963" lon="5.33936">
        <ele>354.61</ele>
        <time>2025-01-04T13:50:37.579Z</time>
      </trkpt>
      <trkpt lat="48.29978" lon="5.3396">
        <ele>354.71</ele>
        <time>2025-01-04T13:50:38.609Z</time>
      </trkpt>
      <trkpt lat="48.29993" lon="5.33982">
        <ele>354.86</ele>
        <time>2025-01-04T13:50:39.642Z</time>
      </trkpt>
      <trkpt lat="48.30009" lon="5.34006">
        <ele>355.02</ele>
        <time>2025-01-04T13:50:40.679Z</time>
      </trkpt>
      <trkpt lat="48.30024" lon="5.34029">
        <ele>355.22</ele>
        <time>2025-01-04T13:50:41.719Z</time>
      </trkpt>
      <trkpt lat="48.30042" lon="5.34056">
        <ele>355.4</ele>
        <time>2025-01-04T13:50:42.763Z</time>
      </trkpt>
      <trkpt lat="48.30059" lon="5.34082">
        <ele>355.55</ele>
        <time>2025-01-04T13:50:43.811Z</time>
      </trkpt>
      <trkpt lat="48.30074" lon="5.34104">
        <ele>355.67</ele>
        <time>2025-01-04T13:50:44.862Z</time>
      </trkpt>
      <trkpt lat="48.30089" lon="5.34127">
        <ele>355.76</ele>
        <time>2025-01-04T13:50:45.917Z</time>
      </trkpt>
      <trkpt lat="48.30103" lon="5.34139">
        <ele>355.89</ele>
        <time>2025-01-04T13:50:46.974Z</time>
      </trkpt>
      <trkpt lat="48.30117" lon="5.34151">
        <ele>356.06</ele>
        <time>2025-01-04T13:50:48.034Z</time>
      </trkpt>
      <trkpt lat="48.30143" lon="5.34169">
        <ele>356.26</ele>
        <time>2025-01-04T13:50:49.099Z</time>
      </trkpt>
      <trkpt lat="48.30169" lon="5.34187">
        <ele>356.5</ele>
        <time>2025-01-04T13:50:50.168Z</time>
      </trkpt>
      <trkpt lat="48.30193" lon="5.34204">
        <ele>356.7</ele>
        <time>2025-01-04T13:50:51.242Z</time>
      </trkpt>
      <trkpt lat="48.30218" lon="5.34221">
        <ele>356.98</ele>
        <time>2025-01-04T13:50:52.320Z</time>
      </trkpt>
      <trkpt lat="48.3024" lon="5.34236">
        <ele>357.26</ele>
        <time>2025-01-04T13:50:53.402Z</time>
      </trkpt>
      <trkpt lat="48.30262" lon="5.34252">
        <ele>357.55</ele>
        <time>2025-01-04T13:50:54.488Z</time>
      </trkpt>
      <trkpt lat="48.30287" lon="5.34269">
        <ele>357.83</ele>
        <time>2025-01-04T13:50:55.578Z</time>
      </trkpt>
      <trkpt lat="48.30311" lon="5.34286">
        <ele>358.11</ele>
        <time>2025-01-04T13:50:56.672Z</time>
      </trkpt>
      <trkpt lat="48.30334" lon="5.34301">
        <ele>358.4</ele>
        <time>2025-01-04T13:50:57.770Z</time>
      </trkpt>
      <trkpt lat="48.30356" lon="5.34317">
        <ele>358.68</ele>
        <time>2025-01-04T13:50:58.872Z</time>
      </trkpt>
      <trkpt lat="48.30379" lon="5.34333">
        <ele>358.94</ele>
        <time>2025-01-04T13:50:59.978Z</time>
      </trkpt>
      <trkpt lat="48.30402" lon="5.34349">
        <ele>359.23</ele>
        <time>2025-01-04T13:51:01.088Z</time>
      </trkpt>
      <trkpt lat="48.3042" lon="5.34361">
        <ele>359.54</ele>
        <time>2025-01-04T13:51:02.201Z</time>
      </trkpt>
      <trkpt lat="48.30437" lon="5.34373">
        <ele>359.85</ele>
        <time>2025-01-04T13:51:03.318Z</time>
      </trkpt>
      <trkpt lat="48.30462" lon="5.34391">
        <ele>360.19</ele>
        <time>2025-01-04T13:51:04.439Z</time>
      </trkpt>
      <trkpt lat="48.30487" lon="5.34408">
        <ele>360.52</ele>
        <time>2025-01-04T13:51:05.564Z</time>
      </trkpt>
      <trkpt lat="48.30492" lon="5.34411">
        <ele>360.85</ele>
        <time>2025-01-04T13:51:06.690Z</time>
      </trkpt>
      <trkpt lat="48.30511" lon="5.34424">
        <ele>361.22</ele>
        <time>2025-01-04T13:51:07.820Z</time>
      </trkpt>
      <trkpt lat="48.3053" lon="5.34437">
        <ele>361.62</ele>
        <time>2025-01-04T13:51:08.953Z</time>
      </trkpt>
      <trkpt lat="48.30553" lon="5.34452">
        <ele>362.05</ele>
        <time>2025-01-04T13:51:10.090Z</time>
      </trkpt>
      <trkpt lat="48.30562" lon="5.34459">
        <ele>362.43</ele>
        <time>2025-01-04T13:51:11.229Z</time>
      </trkpt>
      <trkpt lat="48.30577" lon="5.34469">
        <ele>362.83</ele>
        <time>2025-01-04T13:51:12.370Z</time>
      </trkpt>
      <trkpt lat="48.30592" lon="5.34479">
        <ele>363.25</ele>
        <time>2025-01-04T13:51:13.514Z</time>
      </trkpt>
      <trkpt lat="48.30614" lon="5.34494">
        <ele>363.68</ele>
        <time>2025-01-04T13:51:14.662Z</time>
      </trkpt>
      <trkpt lat="48.30635" lon="5.34508">
        <ele>364.12</ele>
        <time>2025-01-04T13:51:15.813Z</time>
      </trkpt>
      <trkpt lat="48.3066" lon="5.34525">
        <ele>364.57</ele>
        <time>2025-01-04T13:51:16.969Z</time>
      </trkpt>
      <trkpt lat="48.30686" lon="5.34543">
        <ele>364.97</ele>
        <time>2025-01-04T13:51:18.129Z</time>
      </trkpt>
      <trkpt lat="48.30707" lon="5.34557">
        <ele>365.4</ele>
        <time>2025-01-04T13:51:19.293Z</time>
      </trkpt>
      <trkpt lat="48.30728" lon="5.34571">
        <ele>365.87</ele>
        <time>2025-01-04T13:51:20.461Z</time>
      </trkpt>
      <trkpt lat="48.30752" lon="5.34587">
        <ele>366.37</ele>
        <time>2025-01-04T13:51:21.633Z</time>
      </trkpt>
      <trkpt lat="48.30775" lon="5.34603">
        <ele>366.87</ele>
        <time>2025-01-04T13:51:22.809Z</time>
      </trkpt>
      <trkpt lat="48.30798" lon="5.34619">
        <ele>367.45</ele>
        <time>2025-01-04T13:51:23.989Z</time>
      </trkpt>
      <trkpt lat="48.30817" lon="5.34631">
        <ele>368.02</ele>
        <time>2025-01-04T13:51:25.172Z</time>
      </trkpt>
      <trkpt lat="48.30838" lon="5.34646">
        <ele>368.61</ele>
        <time>2025-01-04T13:51:26.359Z</time>
      </trkpt>
      <trkpt lat="48.30846" lon="5.34651">
        <ele>369.22</ele>
        <time>2025-01-04T13:51:27.547Z</time>
      </trkpt>
      <trkpt lat="48.30846" lon="5.34651">
        <ele>369.85</ele>
        <time>2025-01-04T13:51:28.735Z</time>
      </trkpt>
      <trkpt lat="48.30866" lon="5.34665">
        <ele>370.5</ele>
        <time>2025-01-04T13:51:29.927Z</time>
      </trkpt>
      <trkpt lat="48.30886" lon="5.34678">
        <ele>371.14</ele>
        <time>2025-01-04T13:51:31.123Z</time>
      </trkpt>
      <trkpt lat="48.30904" lon="5.34691">
        <ele>371.85</ele>
        <time>2025-01-04T13:51:32.322Z</time>
      </trkpt>
      <trkpt lat="48.30922" lon="5.34703">
        <ele>372.72</ele>
        <time>2025-01-04T13:51:33.524Z</time>
      </trkpt>
      <trkpt lat="48.30926" lon="5.34706">
        <ele>373.56</ele>
        <time>2025-01-04T13:51:34.727Z</time>
      </trkpt>
      <trkpt lat="48.30948" lon="5.3472">
        <ele>374.57</ele>
        <time>2025-01-04T13:51:35.933Z</time>
      </trkpt>
      <trkpt lat="48.30952" lon="5.34723">
        <ele>375.47</ele>
        <time>2025-01-04T13:51:37.140Z</time>
      </trkpt>
      <trkpt lat="48.30979" lon="5.34741">
        <ele>376.48</ele>
        <time>2025-01-04T13:51:38.352Z</time>
      </trkpt>
      <trkpt lat="48.30995" lon="5.34752">
        <ele>377.39</ele>
        <time>2025-01-04T13:51:39.567Z</time>
      </trkpt>
      <trkpt lat="48.31011" lon="5.34763">
        <ele>378.39</ele>
        <time>2025-01-04T13:51:40.784Z</time>
      </trkpt>
      <trkpt lat="48.3102" lon="5.34769">
        <ele>379.4</ele>
        <time>2025-01-04T13:51:42.003Z</time>
      </trkpt>
      <trkpt lat="48.31045" lon="5.34786">
        <ele>380.43</ele>
        <time>2025-01-04T13:51:43.226Z</time>
      </trkpt>
      <trkpt lat="48.31066" lon="5.34801">
        <ele>381.47</ele>
        <time>2025-01-04T13:51:44.453Z</time>
      </trkpt>
      <trkpt lat="48.31088" lon="5.34815">
        <ele>382.53</ele>
        <time>2025-01-04T13:51:45.684Z</time>
      </trkpt>
      <trkpt lat="48.31109" lon="5.3483">
        <ele>383.62</ele>
        <time>2025-01-04T13:51:46.919Z</time>
      </trkpt>
      <trkpt lat="48.3113" lon="5.34844">
        <ele>384.81</ele>
        <time>2025-01-04T13:51:48.157Z</time>
      </trkpt>
      <trkpt lat="48.31155" lon="5.3486">
        <ele>386.03</ele>
        <time>2025-01-04T13:51:49.400Z</time>
      </trkpt>
      <trkpt lat="48.31175" lon="5.34874">
        <ele>387.17</ele>
        <time>2025-01-04T13:51:50.646Z</time>
      </trkpt>
      <trkpt lat="48.31187" lon="5.34882">
        <ele>388.26</ele>
        <time>2025-01-04T13:51:51.894Z</time>
      </trkpt>
      <trkpt lat="48.31207" lon="5.34896">
        <ele>389.37</ele>
        <time>2025-01-04T13:51:53.146Z</time>
      </trkpt>
      <trkpt lat="48.31227" lon="5.34909">
        <ele>390.46</ele>
        <time>2025-01-04T13:51:54.401Z</time>
      </trkpt>
      <trkpt lat="48.31243" lon="5.3492">
        <ele>391.51</ele>
        <time>2025-01-04T13:51:55.659Z</time>
      </trkpt>
      <trkpt lat="48.31251" lon="5.34926">
        <ele>392.51</ele>
        <time>2025-01-04T13:51:56.919Z</time>
      </trkpt>
      <trkpt lat="48.31254" lon="5.34928">
        <ele>393.46</ele>
        <time>2025-01-04T13:51:58.179Z</time>
      </trkpt>
      <trkpt lat="48.31267" lon="5.34937">
        <ele>394.4</ele>
        <time>2025-01-04T13:51:59.441Z</time>
      </trkpt>
      <trkpt lat="48.31287" lon="5.3495">
        <ele>395.33</ele>
        <time>2025-01-04T13:52:00.707Z</time>
      </trkpt>
      <trkpt lat="48.31303" lon="5.34961">
        <ele>396.2</ele>
        <time>2025-01-04T13:52:01.976Z</time>
      </trkpt>
      <trkpt lat="48.3132" lon="5.34973">
        <ele>397.04</ele>
        <time>2025-01-04T13:52:03.248Z</time>
      </trkpt>
      <trkpt lat="48.31332" lon="5.34981">
        <ele>397.8</ele>
        <time>2025-01-04T13:52:04.522Z</time>
      </trkpt>
      <trkpt lat="48.31348" lon="5.34992">
        <ele>398.52</ele>
        <time>2025-01-04T13:52:05.799Z</time>
      </trkpt>
      <trkpt lat="48.31372" lon="5.35008">
        <ele>399.18</ele>
        <time>2025-01-04T13:52:07.080Z</time>
      </trkpt>
      <trkpt lat="48.31388" lon="5.35019">
        <ele>399.75</ele>
        <time>2025-01-04T13:52:08.364Z</time>
      </trkpt>
      <trkpt lat="48.31408" lon="5.35032">
        <ele>400.24</ele>
        <time>2025-01-04T13:52:09.651Z</time>
      </trkpt>
      <trkpt lat="48.31412" lon="5.35035">
        <ele>400.67</ele>
        <time>2025-01-04T13:52:10.939Z</time>
      </trkpt>
      <trkpt lat="48.31428" lon="5.35045">
        <ele>401.07</ele>
        <time>2025-01-04T13:52:12.230Z</time>
      </trkpt>
      <trkpt lat="48.31431" lon="5.35048">
        <ele>401.38</ele>
        <time>2025-01-04T13:52:13.521Z</time>
      </trkpt>
      <trkpt lat="48.31448" lon="5.35059">
        <ele>401.63</ele>
        <time>2025-01-04T13:52:14.815Z</time>
      </trkpt>
      <trkpt lat="48.31456" lon="5.35065">
        <ele>401.81</ele>
        <time>2025-01-04T13:52:16.111Z</time>
      </trkpt>
      <trkpt lat="48.3147" lon="5.35074">
        <ele>401.93</ele>
        <time>2025-01-04T13:52:17.409Z</time>
      </trkpt>
      <trkpt lat="48.31478" lon="5.3508">
        <ele>401.99</ele>
        <time>2025-01-04T13:52:18.708Z</time>
      </trkpt>
      <trkpt lat="48.3149" lon="5.35088">
        <ele>402</ele>
        <time>2025-01-04T13:52:20.010Z</time>
      </trkpt>
      <trkpt lat="48.31495" lon="5.35091">
        <ele>401.97</ele>
        <time>2025-01-04T13:52:21.312Z</time>
      </trkpt>
      <trkpt lat="48.31514" lon="5.35104">
        <ele>401.88</ele>
        <time>2025-01-04T13:52:22.618Z</time>
      </trkpt>
      <trkpt lat="48.31524" lon="5.35111">
        <ele>401.78</ele>
        <time>2025-01-04T13:52:23.926Z</time>
      </trkpt>
      <trkpt lat="48.3154" lon="5.35122">
        <ele>401.63</ele>
        <time>2025-01-04T13:52:25.236Z</time>
      </trkpt>
      <trkpt lat="48.31552" lon="5.3513">
        <ele>401.48</ele>
        <time>2025-01-04T13:52:26.549Z</time>
      </trkpt>
      <trkpt lat="48.31564" lon="5.35138">
        <ele>401.35</ele>
        <time>2025-01-04T13:52:27.864Z</time>
      </trkpt>
      <trkpt lat="48.3158" lon="5.35149">
        <ele>401.23</ele>
        <time>2025-01-04T13:52:29.181Z</time>
      </trkpt>
      <trkpt lat="48.31596" lon="5.35159">
        <ele>401.04</ele>
        <time>2025-01-04T13:52:30.501Z</time>
      </trkpt>
      <trkpt lat="48.31613" lon="5.35171">
        <ele>400.83</ele>
        <time>2025-01-04T13:52:31.824Z</time>
      </trkpt>
      <trkpt lat="48.31631" lon="5.35183">
        <ele>400.58</ele>
        <time>2025-01-04T13:52:33.150Z</time>
      </trkpt>
      <trkpt lat="48.31648" lon="5.35195">
        <ele>400.35</ele>
        <time>2025-01-04T13:52:34.479Z</time>
      </trkpt>
      <trkpt lat="48.31666" lon="5.35207">
        <ele>400.13</ele>
        <time>2025-01-04T13:52:35.812Z</time>
      </trkpt>
      <trkpt lat="48.31687" lon="5.35222">
        <ele>399.95</ele>
        <time>2025-01-04T13:52:37.148Z</time>
      </trkpt>
      <trkpt lat="48.31709" lon="5.35236">
        <ele>399.84</ele>
        <time>2025-01-04T13:52:38.488Z</time>
      </trkpt>
      <trkpt lat="48.31727" lon="5.35249">
        <ele>399.74</ele>
        <time>2025-01-04T13:52:39.831Z</time>
      </trkpt>
      <trkpt lat="48.31745" lon="5.35261">
        <ele>399.65</ele>
        <time>2025-01-04T13:52:41.178Z</time>
      </trkpt>
      <trkpt lat="48.31771" lon="5.35278">
        <ele>399.63</ele>
        <time>2025-01-04T13:52:42.529Z</time>
      </trkpt>
      <trkpt lat="48.31776" lon="5.35282">
        <ele>399.59</ele>
        <time>2025-01-04T13:52:43.881Z</time>
      </trkpt>
      <trkpt lat="48.3178" lon="5.35284">
        <ele>399.57</ele>
        <time>2025-01-04T13:52:45.234Z</time>
      </trkpt>
      <trkpt lat="48.31783" lon="5.35287">
        <ele>399.56</ele>
        <time>2025-01-04T13:52:46.587Z</time>
      </trkpt>
      <trkpt lat="48.31805" lon="5.35302">
        <ele>399.63</ele>
        <time>2025-01-04T13:52:47.944Z</time>
      </trkpt>
      <trkpt lat="48.3182" lon="5.35312">
        <ele>399.66</ele>
        <time>2025-01-04T13:52:49.304Z</time>
      </trkpt>
      <trkpt lat="48.31829" lon="5.35318">
        <ele>399.69</ele>
        <time>2025-01-04T13:52:50.665Z</time>
      </trkpt>
      <trkpt lat="48.31845" lon="5.35329">
        <ele>399.72</ele>
        <time>2025-01-04T13:52:52.029Z</time>
      </trkpt>
      <trkpt lat="48.31867" lon="5.35344">
        <ele>399.77</ele>
        <time>2025-01-04T13:52:53.397Z</time>
      </trkpt>
      <trkpt lat="48.31893" lon="5.35362">
        <ele>399.82</ele>
        <time>2025-01-04T13:52:54.769Z</time>
      </trkpt>
      <trkpt lat="48.31915" lon="5.35377">
        <ele>399.86</ele>
        <time>2025-01-04T13:52:56.145Z</time>
      </trkpt>
      <trkpt lat="48.3192" lon="5.3538">
        <ele>399.88</ele>
        <time>2025-01-04T13:52:57.522Z</time>
      </trkpt>
      <trkpt lat="48.31935" lon="5.35391">
        <ele>399.9</ele>
        <time>2025-01-04T13:52:58.902Z</time>
      </trkpt>
      <trkpt lat="48.31945" lon="5.35397">
        <ele>399.91</ele>
        <time>2025-01-04T13:53:00.284Z</time>
      </trkpt>
      <trkpt lat="48.31954" lon="5.35404">
        <ele>399.92</ele>
        <time>2025-01-04T13:53:01.667Z</time>
      </trkpt>
      <trkpt lat="48.31968" lon="5.35414">
        <ele>399.91</ele>
        <time>2025-01-04T13:53:03.053Z</time>
      </trkpt>
      <trkpt lat="48.31973" lon="5.35417">
        <ele>399.89</ele>
        <time>2025-01-04T13:53:04.440Z</time>
      </trkpt>
      <trkpt lat="48.31988" lon="5.35427">
        <ele>399.86</ele>
        <time>2025-01-04T13:53:05.829Z</time>
      </trkpt>
      <trkpt lat="48.31998" lon="5.35434">
        <ele>399.82</ele>
        <time>2025-01-04T13:53:07.220Z</time>
      </trkpt>
      <trkpt lat="48.32008" lon="5.35441">
        <ele>399.77</ele>
        <time>2025-01-04T13:53:08.613Z</time>
      </trkpt>
      <trkpt lat="48.32029" lon="5.35456">
        <ele>399.7</ele>
        <time>2025-01-04T13:53:10.009Z</time>
      </trkpt>
      <trkpt lat="48.3204" lon="5.35463">
        <ele>399.59</ele>
        <time>2025-01-04T13:53:11.407Z</time>
      </trkpt>
      <trkpt lat="48.32055" lon="5.35474">
        <ele>399.44</ele>
        <time>2025-01-04T13:53:12.808Z</time>
      </trkpt>
      <trkpt lat="48.3207" lon="5.35484">
        <ele>399.26</ele>
        <time>2025-01-04T13:53:14.212Z</time>
      </trkpt>
      <trkpt lat="48.32097" lon="5.35502">
        <ele>398.98</ele>
        <time>2025-01-04T13:53:15.620Z</time>
      </trkpt>
      <trkpt lat="48.32123" lon="5.3552">
        <ele>398.79</ele>
        <time>2025-01-04T13:53:17.033Z</time>
      </trkpt>
      <trkpt lat="48.32148" lon="5.35537">
        <ele>398.71</ele>
        <time>2025-01-04T13:53:18.450Z</time>
      </trkpt>
      <trkpt lat="48.32173" lon="5.35554">
        <ele>398.63</ele>
        <time>2025-01-04T13:53:19.872Z</time>
      </trkpt>
      <trkpt lat="48.322" lon="5.35573">
        <ele>398.54</ele>
        <time>2025-01-04T13:53:21.299Z</time>
      </trkpt>
      <trkpt lat="48.32227" lon="5.35592">
        <ele>398.43</ele>
        <time>2025-01-04T13:53:22.730Z</time>
      </trkpt>
      <trkpt lat="48.32252" lon="5.35609">
        <ele>398.38</ele>
        <time>2025-01-04T13:53:24.166Z</time>
      </trkpt>
      <trkpt lat="48.32277" lon="5.35626">
        <ele>398.42</ele>
        <time>2025-01-04T13:53:25.606Z</time>
      </trkpt>
      <trkpt lat="48.32295" lon="5.35639">
        <ele>398.48</ele>
        <time>2025-01-04T13:53:27.049Z</time>
      </trkpt>
      <trkpt lat="48.32312" lon="5.35651">
        <ele>398.57</ele>
        <time>2025-01-04T13:53:28.495Z</time>
      </trkpt>
      <trkpt lat="48.32329" lon="5.35662">
        <ele>398.64</ele>
        <time>2025-01-04T13:53:29.944Z</time>
      </trkpt>
      <trkpt lat="48.32344" lon="5.35672">
        <ele>398.66</ele>
        <time>2025-01-04T13:53:31.396Z</time>
      </trkpt>
      <trkpt lat="48.32358" lon="5.35682">
        <ele>398.65</ele>
        <time>2025-01-04T13:53:32.850Z</time>
      </trkpt>
      <trkpt lat="48.32377" lon="5.35695">
        <ele>398.64</ele>
        <time>2025-01-04T13:53:34.308Z</time>
      </trkpt>
      <trkpt lat="48.32397" lon="5.35709">
        <ele>398.61</ele>
        <time>2025-01-04T13:53:35.769Z</time>
      </trkpt>
      <trkpt lat="48.32413" lon="5.3572">
        <ele>398.55</ele>
        <time>2025-01-04T13:53:37.233Z</time>
      </trkpt>
      <trkpt lat="48.32428" lon="5.35731">
        <ele>398.43</ele>
        <time>2025-01-04T13:53:38.700Z</time>
      </trkpt>
      <trkpt lat="48.32448" lon="5.35741">
        <ele>398.28</ele>
        <time>2025-01-04T13:53:40.170Z</time>
      </trkpt>
      <trkpt lat="48.32467" lon="5.35751">
        <ele>398.09</ele>
        <time>2025-01-04T13:53:41.643Z</time>
      </trkpt>
      <trkpt lat="48.32471" lon="5.35752">
        <ele>397.86</ele>
        <time>2025-01-04T13:53:43.117Z</time>
      </trkpt>
      <trkpt lat="48.3249" lon="5.35757">
        <ele>397.55</ele>
        <time>2025-01-04T13:53:44.594Z</time>
      </trkpt>
      <trkpt lat="48.32511" lon="5.35761">
        <ele>397.19</ele>
        <time>2025-01-04T13:53:46.074Z</time>
      </trkpt>
      <trkpt lat="48.32532" lon="5.35765">
        <ele>396.82</ele>
        <time>2025-01-04T13:53:47.558Z</time>
      </trkpt>
      <trkpt lat="48.32551" lon="5.35769">
        <ele>396.41</ele>
        <time>2025-01-04T13:53:49.045Z</time>
      </trkpt>
      <trkpt lat="48.3257" lon="5.35773">
        <ele>395.92</ele>
        <time>2025-01-04T13:53:50.535Z</time>
      </trkpt>
      <trkpt lat="48.32573" lon="5.35774">
        <ele>395.39</ele>
        <time>2025-01-04T13:53:52.026Z</time>
      </trkpt>
      <trkpt lat="48.32578" lon="5.35761">
        <ele>394.81</ele>
        <time>2025-01-04T13:53:53.518Z</time>
      </trkpt>
      <trkpt lat="48.3258" lon="5.35731">
        <ele>394.17</ele>
        <time>2025-01-04T13:53:55.013Z</time>
      </trkpt>
      <trkpt lat="48.32583" lon="5.35698">
        <ele>393.48</ele>
        <time>2025-01-04T13:53:56.512Z</time>
      </trkpt>
      <trkpt lat="48.32586" lon="5.35664">
        <ele>392.73</ele>
        <time>2025-01-04T13:53:58.015Z</time>
      </trkpt>
      <trkpt lat="48.32591" lon="5.3563">
        <ele>391.98</ele>
        <time>2025-01-04T13:53:59.521Z</time>
      </trkpt>
      <trkpt lat="48.32596" lon="5.35627">
        <ele>391.21</ele>
        <time>2025-01-04T13:54:01.028Z</time>
      </trkpt>
      <trkpt lat="48.32604" lon="5.35631">
        <ele>390.4</ele>
        <time>2025-01-04T13:54:02.536Z</time>
      </trkpt>
      <trkpt lat="48.32621" lon="5.35642">
        <ele>389.51</ele>
        <time>2025-01-04T13:54:04.047Z</time>
      </trkpt>
      <trkpt lat="48.32639" lon="5.35653">
        <ele>388.59</ele>
        <time>2025-01-04T13:54:05.561Z</time>
      </trkpt>
      <trkpt lat="48.32656" lon="5.35664">
        <ele>387.65</ele>
        <time>2025-01-04T13:54:07.078Z</time>
      </trkpt>
      <trkpt lat="48.32673" lon="5.35674">
        <ele>386.68</ele>
        <time>2025-01-04T13:54:08.598Z</time>
      </trkpt>
      <trkpt lat="48.3269" lon="5.35684">
        <ele>385.73</ele>
        <time>2025-01-04T13:54:10.121Z</time>
      </trkpt>
      <trkpt lat="48.32705" lon="5.35693">
        <ele>384.89</ele>
        <time>2025-01-04T13:54:11.647Z</time>
      </trkpt>
      <trkpt lat="48.3272" lon="5.35702">
        <ele>384.1</ele>
        <time>2025-01-04T13:54:13.175Z</time>
      </trkpt>
      <trkpt lat="48.32736" lon="5.35713">
        <ele>383.34</ele>
        <time>2025-01-04T13:54:14.706Z</time>
      </trkpt>
      <trkpt lat="48.32753" lon="5.35723">
        <ele>382.62</ele>
        <time>2025-01-04T13:54:16.240Z</time>
      </trkpt>
      <trkpt lat="48.32766" lon="5.35737">
        <ele>381.95</ele>
        <time>2025-01-04T13:54:17.777Z</time>
      </trkpt>
      <trkpt lat="48.3277" lon="5.35742">
        <ele>381.34</ele>
        <time>2025-01-04T13:54:19.315Z</time>
      </trkpt>
      <trkpt lat="48.32787" lon="5.35726">
        <ele>380.76</ele>
        <time>2025-01-04T13:54:20.856Z</time>
      </trkpt>
      <trkpt lat="48.32793" lon="5.35718">
        <ele>380.24</ele>
        <time>2025-01-04T13:54:22.398Z</time>
      </trkpt>
      <trkpt lat="48.32804" lon="5.35703">
        <ele>379.78</ele>
        <time>2025-01-04T13:54:23.943Z</time>
      </trkpt>
      <trkpt lat="48.32812" lon="5.35692">
        <ele>379.39</ele>
        <time>2025-01-04T13:54:25.489Z</time>
      </trkpt>
      <trkpt lat="48.32813" lon="5.3569">
        <ele>379.09</ele>
        <time>2025-01-04T13:54:27.036Z</time>
      </trkpt>
      <trkpt lat="48.32808" lon="5.35696">
        <ele>378.85</ele>
        <time>2025-01-04T13:54:28.584Z</time>
      </trkpt>
      <trkpt lat="48.32807" lon="5.35699">
        <ele>378.67</ele>
        <time>2025-01-04T13:54:30.132Z</time>
      </trkpt>
      <trkpt lat="48.32795" lon="5.35716">
        <ele>378.57</ele>
        <time>2025-01-04T13:54:31.682Z</time>
      </trkpt>
      <trkpt lat="48.32776" lon="5.35743">
        <ele>378.57</ele>
        <time>2025-01-04T13:54:33.237Z</time>
      </trkpt>
      <trkpt lat="48.32765" lon="5.35761">
        <ele>378.53</ele>
        <time>2025-01-04T13:54:34.794Z</time>
      </trkpt>
      <trkpt lat="48.32754" lon="5.3578">
        <ele>378.58</ele>
        <time>2025-01-04T13:54:36.354Z</time>
      </trkpt>
      <trkpt lat="48.32744" lon="5.35805">
        <ele>378.67</ele>
        <time>2025-01-04T13:54:37.917Z</time>
      </trkpt>
      <trkpt lat="48.32744" lon="5.35807">
        <ele>378.77</ele>
        <time>2025-01-04T13:54:39.480Z</time>
      </trkpt>
      <trkpt lat="48.32742" lon="5.35811">
        <ele>378.9</ele>
        <time>2025-01-04T13:54:41.044Z</time>
      </trkpt>
      <trkpt lat="48.32742" lon="5.35815">
        <ele>379.05</ele>
        <time>2025-01-04T13:54:42.608Z</time>
      </trkpt>
      <trkpt lat="48.32736" lon="5.35838">
        <ele>379.24</ele>
        <time>2025-01-04T13:54:44.175Z</time>
      </trkpt>
      <trkpt lat="48.32727" lon="5.35881">
        <ele>379.5</ele>
        <time>2025-01-04T13:54:45.747Z</time>
      </trkpt>
      <trkpt lat="48.32721" lon="5.35905">
        <ele>379.71</ele>
        <time>2025-01-04T13:54:47.321Z</time>
      </trkpt>
      <trkpt lat="48.32715" lon="5.35929">
        <ele>379.94</ele>
        <time>2025-01-04T13:54:48.898Z</time>
      </trkpt>
      <trkpt lat="48.32703" lon="5.35947">
        <ele>380.22</ele>
        <time>2025-01-04T13:54:50.478Z</time>
      </trkpt>
      <trkpt lat="48.32695" lon="5.35959">
        <ele>380.51</ele>
        <time>2025-01-04T13:54:52.060Z</time>
      </trkpt>
      <trkpt lat="48.32691" lon="5.35964">
        <ele>380.76</ele>
        <time>2025-01-04T13:54:53.642Z</time>
      </trkpt>
      <trkpt lat="48.32692" lon="5.35969">
        <ele>381.01</ele>
        <time>2025-01-04T13:54:55.225Z</time>
      </trkpt>
      <trkpt lat="48.32697" lon="5.35989">
        <ele>381.24</ele>
        <time>2025-01-04T13:54:56.810Z</time>
      </trkpt>
      <trkpt lat="48.32703" lon="5.3601">
        <ele>381.48</ele>
        <time>2025-01-04T13:54:58.398Z</time>
      </trkpt>
      <trkpt lat="48.32705" lon="5.36019">
        <ele>381.7</ele>
        <time>2025-01-04T13:54:59.987Z</time>
      </trkpt>
      <trkpt lat="48.32701" lon="5.3602">
        <ele>381.93</ele>
        <time>2025-01-04T13:55:01.576Z</time>
      </trkpt>
      <trkpt lat="48.32698" lon="5.3602">
        <ele>382.14</ele>
        <time>2025-01-04T13:55:03.166Z</time>
      </trkpt>
      <trkpt lat="48.32694" lon="5.36021">
        <ele>382.34</ele>
        <time>2025-01-04T13:55:04.756Z</time>
      </trkpt>
      <trkpt lat="48.32702" lon="5.36005">
        <ele>382.44</ele>
        <time>2025-01-04T13:55:06.348Z</time>
      </trkpt>
      <trkpt lat="48.327" lon="5.35997">
        <ele>382.6</ele>
        <time>2025-01-04T13:55:07.941Z</time>
      </trkpt>
      <trkpt lat="48.32702" lon="5.36013">
        <ele>382.77</ele>
        <time>2025-01-04T13:55:09.536Z</time>
      </trkpt>
      <trkpt lat="48.32703" lon="5.3601">
        <ele>381.48</ele>
        <time>2025-01-04T13:55:11.131Z</time>
      </trkpt>
      <trkpt lat="48.32711" lon="5.36023">
        <ele>383.01</ele>
        <time>2025-01-04T13:55:12.728Z</time>
      </trkpt>
      <trkpt lat="48.32721" lon="5.36037">
        <ele>383.11</ele>
        <time>2025-01-04T13:55:14.327Z</time>
      </trkpt>
      <trkpt lat="48.32722" lon="5.36038">
        <ele>383.23</ele>
        <time>2025-01-04T13:55:15.927Z</time>
      </trkpt>
      <trkpt lat="48.32724" lon="5.3604">
        <ele>383.36</ele>
        <time>2025-01-04T13:55:17.527Z</time>
      </trkpt>
      <trkpt lat="48.32727" lon="5.36043">
        <ele>383.49</ele>
        <time>2025-01-04T13:55:19.127Z</time>
      </trkpt>
      <trkpt lat="48.32744" lon="5.3606">
        <ele>383.58</ele>
        <time>2025-01-04T13:55:20.731Z</time>
      </trkpt>
      <trkpt lat="48.3277" lon="5.36079">
        <ele>383.73</ele>
        <time>2025-01-04T13:55:22.339Z</time>
      </trkpt>
      <trkpt lat="48.32791" lon="5.3609">
        <ele>383.89</ele>
        <time>2025-01-04T13:55:23.951Z</time>
      </trkpt>
      <trkpt lat="48.32812" lon="5.361">
        <ele>384.05</ele>
        <time>2025-01-04T13:55:25.566Z</time>
      </trkpt>
      <trkpt lat="48.32829" lon="5.36106">
        <ele>384.22</ele>
        <time>2025-01-04T13:55:27.184Z</time>
      </trkpt>
      <trkpt lat="48.32845" lon="5.36111">
        <ele>384.43</ele>
        <time>2025-01-04T13:55:28.805Z</time>
      </trkpt>
      <trkpt lat="48.32875" lon="5.36116">
        <ele>384.71</ele>
        <time>2025-01-04T13:55:30.431Z</time>
      </trkpt>
      <trkpt lat="48.32891" lon="5.36118">
        <ele>384.97</ele>
        <time>2025-01-04T13:55:32.059Z</time>
      </trkpt>
      <trkpt lat="48.32908" lon="5.36121">
        <ele>385.23</ele>
        <time>2025-01-04T13:55:33.690Z</time>
      </trkpt>
      <trkpt lat="48.32929" lon="5.36128">
        <ele>385.49</ele>
        <time>2025-01-04T13:55:35.325Z</time>
      </trkpt>
      <trkpt lat="48.3295" lon="5.36135">
        <ele>385.74</ele>
        <time>2025-01-04T13:55:36.963Z</time>
      </trkpt>
      <trkpt lat="48.32967" lon="5.36142">
        <ele>386.01</ele>
        <time>2025-01-04T13:55:38.604Z</time>
      </trkpt>
      <trkpt lat="48.32983" lon="5.3615">
        <ele>386.27</ele>
        <time>2025-01-04T13:55:40.247Z</time>
      </trkpt>
      <trkpt lat="48.33002" lon="5.36158">
        <ele>386.53</ele>
        <time>2025-01-04T13:55:41.894Z</time>
      </trkpt>
      <trkpt lat="48.33022" lon="5.36167">
        <ele>386.74</ele>
        <time>2025-01-04T13:55:43.544Z</time>
      </trkpt>
      <trkpt lat="48.33043" lon="5.36176">
        <ele>387</ele>
        <time>2025-01-04T13:55:45.198Z</time>
      </trkpt>
      <trkpt lat="48.33065" lon="5.36185">
        <ele>387.26</ele>
        <time>2025-01-04T13:55:46.855Z</time>
      </trkpt>
      <trkpt lat="48.33089" lon="5.36193">
        <ele>387.53</ele>
        <time>2025-01-04T13:55:48.516Z</time>
      </trkpt>
      <trkpt lat="48.33113" lon="5.362">
        <ele>387.81</ele>
        <time>2025-01-04T13:55:50.181Z</time>
      </trkpt>
      <trkpt lat="48.33135" lon="5.36207">
        <ele>388.07</ele>
        <time>2025-01-04T13:55:51.850Z</time>
      </trkpt>
      <trkpt lat="48.33157" lon="5.36214">
        <ele>388.35</ele>
        <time>2025-01-04T13:55:53.522Z</time>
      </trkpt>
      <trkpt lat="48.33176" lon="5.36219">
        <ele>388.69</ele>
        <time>2025-01-04T13:55:55.197Z</time>
      </trkpt>
      <trkpt lat="48.33194" lon="5.36225">
        <ele>389.05</ele>
        <time>2025-01-04T13:55:56.875Z</time>
      </trkpt>
      <trkpt lat="48.33221" lon="5.36231">
        <ele>389.43</ele>
        <time>2025-01-04T13:55:58.558Z</time>
      </trkpt>
      <trkpt lat="48.33248" lon="5.36238">
        <ele>389.79</ele>
        <time>2025-01-04T13:56:00.245Z</time>
      </trkpt>
      <trkpt lat="48.33254" lon="5.36239">
        <ele>390.23</ele>
        <time>2025-01-04T13:56:01.933Z</time>
      </trkpt>
      <trkpt lat="48.33277" lon="5.36239">
        <ele>390.68</ele>
        <time>2025-01-04T13:56:03.625Z</time>
      </trkpt>
      <trkpt lat="48.333" lon="5.36239">
        <ele>391.23</ele>
        <time>2025-01-04T13:56:05.320Z</time>
      </trkpt>
      <trkpt lat="48.33326" lon="5.36233">
        <ele>391.84</ele>
        <time>2025-01-04T13:56:07.019Z</time>
      </trkpt>
      <trkpt lat="48.33351" lon="5.36227">
        <ele>392.49</ele>
        <time>2025-01-04T13:56:08.723Z</time>
      </trkpt>
      <trkpt lat="48.33378" lon="5.3622">
        <ele>393.22</ele>
        <time>2025-01-04T13:56:10.431Z</time>
      </trkpt>
      <trkpt lat="48.33406" lon="5.36213">
        <ele>394.04</ele>
        <time>2025-01-04T13:56:12.143Z</time>
      </trkpt>
      <trkpt lat="48.33421" lon="5.3621">
        <ele>394.87</ele>
        <time>2025-01-04T13:56:13.858Z</time>
      </trkpt>
      <trkpt lat="48.33437" lon="5.36206">
        <ele>395.72</ele>
        <time>2025-01-04T13:56:15.576Z</time>
      </trkpt>
      <trkpt lat="48.33454" lon="5.36203">
        <ele>396.57</ele>
        <time>2025-01-04T13:56:17.296Z</time>
      </trkpt>
      <trkpt lat="48.33471" lon="5.362">
        <ele>397.46</ele>
        <time>2025-01-04T13:56:19.019Z</time>
      </trkpt>
      <trkpt lat="48.33487" lon="5.36197">
        <ele>398.34</ele>
        <time>2025-01-04T13:56:20.745Z</time>
      </trkpt>
      <trkpt lat="48.33503" lon="5.36194">
        <ele>399.22</ele>
        <time>2025-01-04T13:56:22.473Z</time>
      </trkpt>
      <trkpt lat="48.33532" lon="5.36189">
        <ele>400.15</ele>
        <time>2025-01-04T13:56:24.206Z</time>
      </trkpt>
      <trkpt lat="48.3356" lon="5.36184">
        <ele>401.06</ele>
        <time>2025-01-04T13:56:25.943Z</time>
      </trkpt>
      <trkpt lat="48.33585" lon="5.3618">
        <ele>401.98</ele>
        <time>2025-01-04T13:56:27.684Z</time>
      </trkpt>
      <trkpt lat="48.33609" lon="5.36176">
        <ele>402.83</ele>
        <time>2025-01-04T13:56:29.429Z</time>
      </trkpt>
      <trkpt lat="48.33634" lon="5.36171">
        <ele>403.64</ele>
        <time>2025-01-04T13:56:31.178Z</time>
      </trkpt>
      <trkpt lat="48.33659" lon="5.36167">
        <ele>404.41</ele>
        <time>2025-01-04T13:56:32.931Z</time>
      </trkpt>
      <trkpt lat="48.33686" lon="5.36162">
        <ele>405.14</ele>
        <time>2025-01-04T13:56:34.689Z</time>
      </trkpt>
      <trkpt lat="48.33717" lon="5.36157">
        <ele>405.84</ele>
        <time>2025-01-04T13:56:36.452Z</time>
      </trkpt>
      <trkpt lat="48.33737" lon="5.36153">
        <ele>406.46</ele>
        <time>2025-01-04T13:56:38.218Z</time>
      </trkpt>
      <trkpt lat="48.33757" lon="5.3615">
        <ele>407.03</ele>
        <time>2025-01-04T13:56:39.987Z</time>
      </trkpt>
      <trkpt lat="48.33779" lon="5.36146">
        <ele>407.58</ele>
        <time>2025-01-04T13:56:41.760Z</time>
      </trkpt>
      <trkpt lat="48.33801" lon="5.36142">
        <ele>408.08</ele>
        <time>2025-01-04T13:56:43.536Z</time>
      </trkpt>
      <trkpt lat="48.3382" lon="5.36142">
        <ele>408.45</ele>
        <time>2025-01-04T13:56:45.315Z</time>
      </trkpt>
      <trkpt lat="48.33838" lon="5.36142">
        <ele>408.74</ele>
        <time>2025-01-04T13:56:47.097Z</time>
      </trkpt>
      <trkpt lat="48.33856" lon="5.36142">
        <ele>408.94</ele>
        <time>2025-01-04T13:56:48.882Z</time>
      </trkpt>
      <trkpt lat="48.33874" lon="5.36142">
        <ele>409.06</ele>
        <time>2025-01-04T13:56:50.670Z</time>
      </trkpt>
      <trkpt lat="48.339" lon="5.36142">
        <ele>409.13</ele>
        <time>2025-01-04T13:56:52.462Z</time>
      </trkpt>
      <trkpt lat="48.33925" lon="5.36142">
        <ele>409.2</ele>
        <time>2025-01-04T13:56:54.258Z</time>
      </trkpt>
      <trkpt lat="48.33954" lon="5.36143">
        <ele>409.24</ele>
        <time>2025-01-04T13:56:56.059Z</time>
      </trkpt>
      <trkpt lat="48.33983" lon="5.36143">
        <ele>409.23</ele>
        <time>2025-01-04T13:56:57.864Z</time>
      </trkpt>
      <trkpt lat="48.34" lon="5.36143">
        <ele>409.17</ele>
        <time>2025-01-04T13:56:59.672Z</time>
      </trkpt>
      <trkpt lat="48.3403" lon="5.36144">
        <ele>409.1</ele>
        <time>2025-01-04T13:57:01.485Z</time>
      </trkpt>
      <trkpt lat="48.3406" lon="5.36145">
        <ele>409.02</ele>
        <time>2025-01-04T13:57:03.303Z</time>
      </trkpt>
      <trkpt lat="48.34069" lon="5.36146">
        <ele>408.97</ele>
        <time>2025-01-04T13:57:05.122Z</time>
      </trkpt>
      <trkpt lat="48.34096" lon="5.36141">
        <ele>408.84</ele>
        <time>2025-01-04T13:57:06.946Z</time>
      </trkpt>
      <trkpt lat="48.34123" lon="5.36136">
        <ele>408.79</ele>
        <time>2025-01-04T13:57:08.774Z</time>
      </trkpt>
      <trkpt lat="48.3415" lon="5.36125">
        <ele>408.79</ele>
        <time>2025-01-04T13:57:10.606Z</time>
      </trkpt>
      <trkpt lat="48.34176" lon="5.36113">
        <ele>408.8</ele>
        <time>2025-01-04T13:57:12.443Z</time>
      </trkpt>
      <trkpt lat="48.34184" lon="5.36109">
        <ele>408.81</ele>
        <time>2025-01-04T13:57:14.281Z</time>
      </trkpt>
      <trkpt lat="48.34213" lon="5.36095">
        <ele>408.83</ele>
        <time>2025-01-04T13:57:16.124Z</time>
      </trkpt>
      <trkpt lat="48.34242" lon="5.36081">
        <ele>408.9</ele>
        <time>2025-01-04T13:57:17.972Z</time>
      </trkpt>
      <trkpt lat="48.34269" lon="5.36068">
        <ele>409.06</ele>
        <time>2025-01-04T13:57:19.824Z</time>
      </trkpt>
      <trkpt lat="48.34295" lon="5.36055">
        <ele>409.27</ele>
        <time>2025-01-04T13:57:21.681Z</time>
      </trkpt>
      <trkpt lat="48.34321" lon="5.36043">
        <ele>409.43</ele>
        <time>2025-01-04T13:57:23.542Z</time>
      </trkpt>
      <trkpt lat="48.34346" lon="5.3603">
        <ele>409.64</ele>
        <time>2025-01-04T13:57:25.407Z</time>
      </trkpt>
      <trkpt lat="48.34363" lon="5.36022">
        <ele>409.78</ele>
        <time>2025-01-04T13:57:27.275Z</time>
      </trkpt>
      <trkpt lat="48.3438" lon="5.36014">
        <ele>409.87</ele>
        <time>2025-01-04T13:57:29.146Z</time>
      </trkpt>
      <trkpt lat="48.34403" lon="5.36003">
        <ele>409.97</ele>
        <time>2025-01-04T13:57:31.021Z</time>
      </trkpt>
      <trkpt lat="48.34425" lon="5.35993">
        <ele>410.04</ele>
        <time>2025-01-04T13:57:32.900Z</time>
      </trkpt>
      <trkpt lat="48.34441" lon="5.35985">
        <ele>410.1</ele>
        <time>2025-01-04T13:57:34.781Z</time>
      </trkpt>
      <trkpt lat="48.34457" lon="5.35977">
        <ele>410.1</ele>
        <time>2025-01-04T13:57:36.665Z</time>
      </trkpt>
      <trkpt lat="48.34483" lon="5.35967">
        <ele>410.05</ele>
        <time>2025-01-04T13:57:38.553Z</time>
      </trkpt>
      <trkpt lat="48.34498" lon="5.3596">
        <ele>409.98</ele>
        <time>2025-01-04T13:57:40.444Z</time>
      </trkpt>
      <trkpt lat="48.34513" lon="5.35954">
        <ele>409.87</ele>
        <time>2025-01-04T13:57:42.337Z</time>
      </trkpt>
      <trkpt lat="48.34541" lon="5.35943">
        <ele>409.72</ele>
        <time>2025-01-04T13:57:44.235Z</time>
      </trkpt>
      <trkpt lat="48.34559" lon="5.35935">
        <ele>409.59</ele>
        <time>2025-01-04T13:57:46.136Z</time>
      </trkpt>
      <trkpt lat="48.34576" lon="5.35928">
        <ele>409.44</ele>
        <time>2025-01-04T13:57:48.040Z</time>
      </trkpt>
      <trkpt lat="48.34595" lon="5.3592">
        <ele>409.24</ele>
        <time>2025-01-04T13:57:49.947Z</time>
      </trkpt>
      <trkpt lat="48.34614" lon="5.35913">
        <ele>409.02</ele>
        <time>2025-01-04T13:57:51.857Z</time>
      </trkpt>
      <trkpt lat="48.34642" lon="5.35901">
        <ele>408.82</ele>
        <time>2025-01-04T13:57:53.772Z</time>
      </trkpt>
      <trkpt lat="48.34671" lon="5.35889">
        <ele>408.61</ele>
        <time>2025-01-04T13:57:55.691Z</time>
      </trkpt>
      <trkpt lat="48.34694" lon="5.35883">
        <ele>408.34</ele>
        <time>2025-01-04T13:57:57.614Z</time>
      </trkpt>
      <trkpt lat="48.34717" lon="5.35877">
        <ele>407.99</ele>
        <time>2025-01-04T13:57:59.541Z</time>
      </trkpt>
      <trkpt lat="48.34725" lon="5.35874">
        <ele>407.69</ele>
        <time>2025-01-04T13:58:01.469Z</time>
      </trkpt>
      <trkpt lat="48.34742" lon="5.3587">
        <ele>407.36</ele>
        <time>2025-01-04T13:58:03.400Z</time>
      </trkpt>
      <trkpt lat="48.34764" lon="5.35868">
        <ele>406.98</ele>
        <time>2025-01-04T13:58:05.335Z</time>
      </trkpt>
      <trkpt lat="48.34786" lon="5.35866">
        <ele>406.64</ele>
        <time>2025-01-04T13:58:07.273Z</time>
      </trkpt>
      <trkpt lat="48.34814" lon="5.35865">
        <ele>406.3</ele>
        <time>2025-01-04T13:58:09.216Z</time>
      </trkpt>
      <trkpt lat="48.34841" lon="5.35863">
        <ele>406.02</ele>
        <time>2025-01-04T13:58:11.163Z</time>
      </trkpt>
      <trkpt lat="48.34863" lon="5.35861">
        <ele>405.77</ele>
        <time>2025-01-04T13:58:13.113Z</time>
      </trkpt>
      <trkpt lat="48.34885" lon="5.3586">
        <ele>405.51</ele>
        <time>2025-01-04T13:58:15.067Z</time>
      </trkpt>
      <trkpt lat="48.34908" lon="5.35859">
        <ele>405.18</ele>
        <time>2025-01-04T13:58:17.025Z</time>
      </trkpt>
      <trkpt lat="48.3493" lon="5.35857">
        <ele>404.85</ele>
        <time>2025-01-04T13:58:18.986Z</time>
      </trkpt>
      <trkpt lat="48.34953" lon="5.35856">
        <ele>404.52</ele>
        <time>2025-01-04T13:58:20.951Z</time>
      </trkpt>
      <trkpt lat="48.34975" lon="5.35854">
        <ele>404.22</ele>
        <time>2025-01-04T13:58:22.919Z</time>
      </trkpt>
      <trkpt lat="48.35001" lon="5.35853">
        <ele>403.97</ele>
        <time>2025-01-04T13:58:24.891Z</time>
      </trkpt>
      <trkpt lat="48.35026" lon="5.35851">
        <ele>403.77</ele>
        <time>2025-01-04T13:58:26.868Z</time>
      </trkpt>
      <trkpt lat="48.35053" lon="5.35849">
        <ele>403.61</ele>
        <time>2025-01-04T13:58:28.849Z</time>
      </trkpt>
      <trkpt lat="48.35081" lon="5.35847">
        <ele>403.43</ele>
        <time>2025-01-04T13:58:30.834Z</time>
      </trkpt>
      <trkpt lat="48.35107" lon="5.35846">
        <ele>403.33</ele>
        <time>2025-01-04T13:58:32.824Z</time>
      </trkpt>
      <trkpt lat="48.35133" lon="5.35844">
        <ele>403.2</ele>
        <time>2025-01-04T13:58:34.818Z</time>
      </trkpt>
      <trkpt lat="48.3515" lon="5.35843">
        <ele>403.03</ele>
        <time>2025-01-04T13:58:36.814Z</time>
      </trkpt>
      <trkpt lat="48.35167" lon="5.35842">
        <ele>402.88</ele>
        <time>2025-01-04T13:58:38.813Z</time>
      </trkpt>
      <trkpt lat="48.35174" lon="5.35842">
        <ele>402.74</ele>
        <time>2025-01-04T13:58:40.813Z</time>
      </trkpt>
      <trkpt lat="48.35196" lon="5.3584">
        <ele>402.6</ele>
        <time>2025-01-04T13:58:42.817Z</time>
      </trkpt>
      <trkpt lat="48.35218" lon="5.35839">
        <ele>402.5</ele>
        <time>2025-01-04T13:58:44.824Z</time>
      </trkpt>
      <trkpt lat="48.35239" lon="5.35837">
        <ele>402.43</ele>
        <time>2025-01-04T13:58:46.835Z</time>
      </trkpt>
      <trkpt lat="48.35259" lon="5.35836">
        <ele>402.37</ele>
        <time>2025-01-04T13:58:48.849Z</time>
      </trkpt>
      <trkpt lat="48.35273" lon="5.35835">
        <ele>402.33</ele>
        <time>2025-01-04T13:58:50.865Z</time>
      </trkpt>
      <trkpt lat="48.35291" lon="5.35835">
        <ele>402.26</ele>
        <time>2025-01-04T13:58:52.884Z</time>
      </trkpt>
      <trkpt lat="48.35316" lon="5.35835">
        <ele>402.21</ele>
        <time>2025-01-04T13:58:54.907Z</time>
      </trkpt>
      <trkpt lat="48.35341" lon="5.35836">
        <ele>402.14</ele>
        <time>2025-01-04T13:58:56.934Z</time>
      </trkpt>
      <trkpt lat="48.35363" lon="5.35836">
        <ele>402.05</ele>
        <time>2025-01-04T13:58:58.965Z</time>
      </trkpt>
      <trkpt lat="48.35385" lon="5.35835">
        <ele>402.01</ele>
        <time>2025-01-04T13:59:00.999Z</time>
      </trkpt>
      <trkpt lat="48.35405" lon="5.35832">
        <ele>401.98</ele>
        <time>2025-01-04T13:59:03.036Z</time>
      </trkpt>
      <trkpt lat="48.35424" lon="5.35826">
        <ele>401.93</ele>
        <time>2025-01-04T13:59:05.076Z</time>
      </trkpt>
      <trkpt lat="48.35447" lon="5.35816">
        <ele>401.83</ele>
        <time>2025-01-04T13:59:07.120Z</time>
      </trkpt>
      <trkpt lat="48.3547" lon="5.35806">
        <ele>401.75</ele>
        <time>2025-01-04T13:59:09.168Z</time>
      </trkpt>
      <trkpt lat="48.35492" lon="5.35795">
        <ele>401.68</ele>
        <time>2025-01-04T13:59:11.220Z</time>
      </trkpt>
      <trkpt lat="48.35515" lon="5.35784">
        <ele>401.69</ele>
        <time>2025-01-04T13:59:13.276Z</time>
      </trkpt>
      <trkpt lat="48.35539" lon="5.35771">
        <ele>401.69</ele>
        <time>2025-01-04T13:59:15.336Z</time>
      </trkpt>
      <trkpt lat="48.35563" lon="5.35759">
        <ele>401.63</ele>
        <time>2025-01-04T13:59:17.400Z</time>
      </trkpt>
      <trkpt lat="48.35579" lon="5.35749">
        <ele>401.61</ele>
        <time>2025-01-04T13:59:19.467Z</time>
      </trkpt>
      <trkpt lat="48.35595" lon="5.3574">
        <ele>401.51</ele>
        <time>2025-01-04T13:59:21.536Z</time>
      </trkpt>
      <trkpt lat="48.35623" lon="5.35724">
        <ele>401.39</ele>
        <time>2025-01-04T13:59:23.610Z</time>
      </trkpt>
      <trkpt lat="48.35651" lon="5.35707">
        <ele>401.24</ele>
        <time>2025-01-04T13:59:25.689Z</time>
      </trkpt>
      <trkpt lat="48.35675" lon="5.35694">
        <ele>401.17</ele>
        <time>2025-01-04T13:59:27.772Z</time>
      </trkpt>
      <trkpt lat="48.35698" lon="5.3568">
        <ele>401.04</ele>
        <time>2025-01-04T13:59:29.859Z</time>
      </trkpt>
      <trkpt lat="48.35722" lon="5.3567">
        <ele>400.85</ele>
        <time>2025-01-04T13:59:31.950Z</time>
      </trkpt>
      <trkpt lat="48.35747" lon="5.35659">
        <ele>400.61</ele>
        <time>2025-01-04T13:59:34.045Z</time>
      </trkpt>
      <trkpt lat="48.35763" lon="5.35653">
        <ele>400.37</ele>
        <time>2025-01-04T13:59:36.143Z</time>
      </trkpt>
      <trkpt lat="48.35779" lon="5.35647">
        <ele>400.14</ele>
        <time>2025-01-04T13:59:38.243Z</time>
      </trkpt>
      <trkpt lat="48.35802" lon="5.35632">
        <ele>399.92</ele>
        <time>2025-01-04T13:59:40.347Z</time>
      </trkpt>
      <trkpt lat="48.35825" lon="5.35617">
        <ele>399.62</ele>
        <time>2025-01-04T13:59:42.455Z</time>
      </trkpt>
      <trkpt lat="48.35848" lon="5.35601">
        <ele>399.26</ele>
        <time>2025-01-04T13:59:44.567Z</time>
      </trkpt>
      <trkpt lat="48.35854" lon="5.35596">
        <ele>398.87</ele>
        <time>2025-01-04T13:59:46.681Z</time>
      </trkpt>
      <trkpt lat="48.35872" lon="5.35583">
        <ele>398.45</ele>
        <time>2025-01-04T13:59:48.798Z</time>
      </trkpt>
      <trkpt lat="48.3589" lon="5.3557">
        <ele>397.99</ele>
        <time>2025-01-04T13:59:50.918Z</time>
      </trkpt>
      <trkpt lat="48.35907" lon="5.35559">
        <ele>397.51</ele>
        <time>2025-01-04T13:59:53.041Z</time>
      </trkpt>
      <trkpt lat="48.35924" lon="5.35546">
        <ele>396.95</ele>
        <time>2025-01-04T13:59:55.167Z</time>
      </trkpt>
      <trkpt lat="48.35948" lon="5.35537">
        <ele>396.34</ele>
        <time>2025-01-04T13:59:57.297Z</time>
      </trkpt>
      <trkpt lat="48.35972" lon="5.35528">
        <ele>395.78</ele>
        <time>2025-01-04T13:59:59.431Z</time>
      </trkpt>
      <trkpt lat="48.36" lon="5.35518">
        <ele>395.24</ele>
        <time>2025-01-04T14:00:01.570Z</time>
      </trkpt>
      <trkpt lat="48.36029" lon="5.35508">
        <ele>394.67</ele>
        <time>2025-01-04T14:00:03.713Z</time>
      </trkpt>
      <trkpt lat="48.36052" lon="5.355">
        <ele>394.02</ele>
        <time>2025-01-04T14:00:05.860Z</time>
      </trkpt>
      <trkpt lat="48.36075" lon="5.35491">
        <ele>393.41</ele>
        <time>2025-01-04T14:00:08.011Z</time>
      </trkpt>
      <trkpt lat="48.36094" lon="5.35486">
        <ele>392.84</ele>
        <time>2025-01-04T14:00:10.165Z</time>
      </trkpt>
      <trkpt lat="48.36113" lon="5.3548">
        <ele>392.26</ele>
        <time>2025-01-04T14:00:12.322Z</time>
      </trkpt>
      <trkpt lat="48.36122" lon="5.35478">
        <ele>391.69</ele>
        <time>2025-01-04T14:00:14.481Z</time>
      </trkpt>
      <trkpt lat="48.36149" lon="5.35471">
        <ele>391.07</ele>
        <time>2025-01-04T14:00:16.644Z</time>
      </trkpt>
      <trkpt lat="48.36177" lon="5.35464">
        <ele>390.49</ele>
        <time>2025-01-04T14:00:18.811Z</time>
      </trkpt>
      <trkpt lat="48.36199" lon="5.35459">
        <ele>389.92</ele>
        <time>2025-01-04T14:00:20.982Z</time>
      </trkpt>
      <trkpt lat="48.36221" lon="5.35453">
        <ele>389.36</ele>
        <time>2025-01-04T14:00:23.157Z</time>
      </trkpt>
      <trkpt lat="48.36237" lon="5.35453">
        <ele>388.76</ele>
        <time>2025-01-04T14:00:25.334Z</time>
      </trkpt>
      <trkpt lat="48.36262" lon="5.35454">
        <ele>388.17</ele>
        <time>2025-01-04T14:00:27.515Z</time>
      </trkpt>
      <trkpt lat="48.36285" lon="5.35455">
        <ele>387.57</ele>
        <time>2025-01-04T14:00:29.700Z</time>
      </trkpt>
      <trkpt lat="48.363" lon="5.35456">
        <ele>386.92</ele>
        <time>2025-01-04T14:00:31.887Z</time>
      </trkpt>
      <trkpt lat="48.36325" lon="5.35457">
        <ele>386.22</ele>
        <time>2025-01-04T14:00:34.078Z</time>
      </trkpt>
      <trkpt lat="48.36349" lon="5.35458">
        <ele>385.48</ele>
        <time>2025-01-04T14:00:36.273Z</time>
      </trkpt>
      <trkpt lat="48.36376" lon="5.35459">
        <ele>384.74</ele>
        <time>2025-01-04T14:00:38.472Z</time>
      </trkpt>
      <trkpt lat="48.36403" lon="5.3546">
        <ele>384.03</ele>
        <time>2025-01-04T14:00:40.676Z</time>
      </trkpt>
      <trkpt lat="48.36432" lon="5.35461">
        <ele>383.24</ele>
        <time>2025-01-04T14:00:42.884Z</time>
      </trkpt>
      <trkpt lat="48.36462" lon="5.35462">
        <ele>382.3</ele>
        <time>2025-01-04T14:00:45.097Z</time>
      </trkpt>
      <trkpt lat="48.36492" lon="5.35464">
        <ele>381.38</ele>
        <time>2025-01-04T14:00:47.315Z</time>
      </trkpt>
      <trkpt lat="48.36523" lon="5.35465">
        <ele>380.47</ele>
        <time>2025-01-04T14:00:49.538Z</time>
      </trkpt>
      <trkpt lat="48.36541" lon="5.35466">
        <ele>379.62</ele>
        <time>2025-01-04T14:00:51.764Z</time>
      </trkpt>
      <trkpt lat="48.36571" lon="5.35467">
        <ele>378.87</ele>
        <time>2025-01-04T14:00:53.995Z</time>
      </trkpt>
      <trkpt lat="48.366" lon="5.35468">
        <ele>378.19</ele>
        <time>2025-01-04T14:00:56.230Z</time>
      </trkpt>
      <trkpt lat="48.36623" lon="5.35469">
        <ele>377.52</ele>
        <time>2025-01-04T14:00:58.469Z</time>
      </trkpt>
      <trkpt lat="48.36646" lon="5.3547">
        <ele>376.85</ele>
        <time>2025-01-04T14:01:00.712Z</time>
      </trkpt>
      <trkpt lat="48.36673" lon="5.35471">
        <ele>376.14</ele>
        <time>2025-01-04T14:01:02.959Z</time>
      </trkpt>
      <trkpt lat="48.367" lon="5.35472">
        <ele>375.4</ele>
        <time>2025-01-04T14:01:05.210Z</time>
      </trkpt>
      <trkpt lat="48.36708" lon="5.35473">
        <ele>374.75</ele>
        <time>2025-01-04T14:01:07.463Z</time>
      </trkpt>
      <trkpt lat="48.36737" lon="5.35474">
        <ele>374.07</ele>
        <time>2025-01-04T14:01:09.720Z</time>
      </trkpt>
      <trkpt lat="48.36766" lon="5.35475">
        <ele>373.42</ele>
        <time>2025-01-04T14:01:11.982Z</time>
      </trkpt>
      <trkpt lat="48.36797" lon="5.35476">
        <ele>372.84</ele>
        <time>2025-01-04T14:01:14.249Z</time>
      </trkpt>
      <trkpt lat="48.36828" lon="5.35477">
        <ele>372.28</ele>
        <time>2025-01-04T14:01:16.521Z</time>
      </trkpt>
      <trkpt lat="48.36857" lon="5.35479">
        <ele>371.82</ele>
        <time>2025-01-04T14:01:18.798Z</time>
      </trkpt>
      <trkpt lat="48.36887" lon="5.3548">
        <ele>371.41</ele>
        <time>2025-01-04T14:01:21.079Z</time>
      </trkpt>
      <trkpt lat="48.36902" lon="5.35481">
        <ele>370.97</ele>
        <time>2025-01-04T14:01:23.363Z</time>
      </trkpt>
      <trkpt lat="48.36931" lon="5.35482">
        <ele>370.52</ele>
        <time>2025-01-04T14:01:25.651Z</time>
      </trkpt>
      <trkpt lat="48.36961" lon="5.35483">
        <ele>370.11</ele>
        <time>2025-01-04T14:01:27.944Z</time>
      </trkpt>
      <trkpt lat="48.36976" lon="5.35484">
        <ele>369.76</ele>
        <time>2025-01-04T14:01:30.240Z</time>
      </trkpt>
      <trkpt lat="48.37002" lon="5.35485">
        <ele>369.46</ele>
        <time>2025-01-04T14:01:32.540Z</time>
      </trkpt>
      <trkpt lat="48.37028" lon="5.35486">
        <ele>369.14</ele>
        <time>2025-01-04T14:01:34.844Z</time>
      </trkpt>
      <trkpt lat="48.37058" lon="5.35487">
        <ele>368.82</ele>
        <time>2025-01-04T14:01:37.153Z</time>
      </trkpt>
      <trkpt lat="48.37087" lon="5.35488">
        <ele>368.49</ele>
        <time>2025-01-04T14:01:39.466Z</time>
      </trkpt>
      <trkpt lat="48.37116" lon="5.35489">
        <ele>368.17</ele>
        <time>2025-01-04T14:01:41.784Z</time>
      </trkpt>
      <trkpt lat="48.37145" lon="5.35491">
        <ele>367.94</ele>
        <time>2025-01-04T14:01:44.107Z</time>
      </trkpt>
      <trkpt lat="48.37174" lon="5.35492">
        <ele>367.79</ele>
        <time>2025-01-04T14:01:46.434Z</time>
      </trkpt>
      <trkpt lat="48.37204" lon="5.35493">
        <ele>367.64</ele>
        <time>2025-01-04T14:01:48.766Z</time>
      </trkpt>
      <trkpt lat="48.37211" lon="5.35493">
        <ele>367.47</ele>
        <time>2025-01-04T14:01:51.099Z</time>
      </trkpt>
      <trkpt lat="48.37239" lon="5.35494">
        <ele>367.33</ele>
        <time>2025-01-04T14:01:53.437Z</time>
      </trkpt>
      <trkpt lat="48.37267" lon="5.35495">
        <ele>367.15</ele>
        <time>2025-01-04T14:01:55.779Z</time>
      </trkpt>
      <trkpt lat="48.37274" lon="5.35493">
        <ele>367.02</ele>
        <time>2025-01-04T14:01:58.122Z</time>
      </trkpt>
      <trkpt lat="48.37297" lon="5.35485">
        <ele>366.88</ele>
        <time>2025-01-04T14:02:00.469Z</time>
      </trkpt>
      <trkpt lat="48.37319" lon="5.35477">
        <ele>366.76</ele>
        <time>2025-01-04T14:02:02.820Z</time>
      </trkpt>
      <trkpt lat="48.37348" lon="5.35467">
        <ele>366.6</ele>
        <time>2025-01-04T14:02:05.175Z</time>
      </trkpt>
      <trkpt lat="48.37376" lon="5.35457">
        <ele>366.5</ele>
        <time>2025-01-04T14:02:07.535Z</time>
      </trkpt>
      <trkpt lat="48.37385" lon="5.35454">
        <ele>366.42</ele>
        <time>2025-01-04T14:02:09.897Z</time>
      </trkpt>
      <trkpt lat="48.37413" lon="5.35445">
        <ele>366.37</ele>
        <time>2025-01-04T14:02:12.263Z</time>
      </trkpt>
      <trkpt lat="48.37441" lon="5.35435">
        <ele>366.31</ele>
        <time>2025-01-04T14:02:14.634Z</time>
      </trkpt>
      <trkpt lat="48.37449" lon="5.35432">
        <ele>366.27</ele>
        <time>2025-01-04T14:02:17.006Z</time>
      </trkpt>
      <trkpt lat="48.3747" lon="5.35425">
        <ele>366.25</ele>
        <time>2025-01-04T14:02:19.382Z</time>
      </trkpt>
      <trkpt lat="48.37492" lon="5.35417">
        <ele>366.21</ele>
        <time>2025-01-04T14:02:21.761Z</time>
      </trkpt>
      <trkpt lat="48.3751" lon="5.35407">
        <ele>366.14</ele>
        <time>2025-01-04T14:02:24.143Z</time>
      </trkpt>
      <trkpt lat="48.3751" lon="5.35407">
        <ele>366.05</ele>
        <time>2025-01-04T14:02:26.525Z</time>
      </trkpt>
      <trkpt lat="48.37528" lon="5.35397">
        <ele>365.96</ele>
        <time>2025-01-04T14:02:28.910Z</time>
      </trkpt>
      <trkpt lat="48.37545" lon="5.35381">
        <ele>365.78</ele>
        <time>2025-01-04T14:02:31.298Z</time>
      </trkpt>
      <trkpt lat="48.37561" lon="5.35366">
        <ele>365.6</ele>
        <time>2025-01-04T14:02:33.690Z</time>
      </trkpt>
      <trkpt lat="48.37576" lon="5.35336">
        <ele>365.42</ele>
        <time>2025-01-04T14:02:36.086Z</time>
      </trkpt>
      <trkpt lat="48.3759" lon="5.35307">
        <ele>365.24</ele>
        <time>2025-01-04T14:02:38.485Z</time>
      </trkpt>
      <trkpt lat="48.37607" lon="5.35273">
        <ele>365.11</ele>
        <time>2025-01-04T14:02:40.889Z</time>
      </trkpt>
      <trkpt lat="48.37624" lon="5.3524">
        <ele>364.93</ele>
        <time>2025-01-04T14:02:43.297Z</time>
      </trkpt>
      <trkpt lat="48.37634" lon="5.35219">
        <ele>364.76</ele>
        <time>2025-01-04T14:02:45.708Z</time>
      </trkpt>
      <trkpt lat="48.37646" lon="5.35196">
        <ele>364.59</ele>
        <time>2025-01-04T14:02:48.122Z</time>
      </trkpt>
      <trkpt lat="48.37662" lon="5.3517">
        <ele>364.41</ele>
        <time>2025-01-04T14:02:50.540Z</time>
      </trkpt>
      <trkpt lat="48.37678" lon="5.35144">
        <ele>364.24</ele>
        <time>2025-01-04T14:02:52.962Z</time>
      </trkpt>
      <trkpt lat="48.377" lon="5.35114">
        <ele>364.11</ele>
        <time>2025-01-04T14:02:55.389Z</time>
      </trkpt>
      <trkpt lat="48.37723" lon="5.35083">
        <ele>363.98</ele>
        <time>2025-01-04T14:02:57.820Z</time>
      </trkpt>
      <trkpt lat="48.37739" lon="5.35062">
        <ele>363.85</ele>
        <time>2025-01-04T14:03:00.255Z</time>
      </trkpt>
      <trkpt lat="48.37755" lon="5.3504">
        <ele>363.73</ele>
        <time>2025-01-04T14:03:02.693Z</time>
      </trkpt>
      <trkpt lat="48.37771" lon="5.35016">
        <ele>363.64</ele>
        <time>2025-01-04T14:03:05.135Z</time>
      </trkpt>
      <trkpt lat="48.37786" lon="5.34991">
        <ele>363.53</ele>
        <time>2025-01-04T14:03:07.581Z</time>
      </trkpt>
      <trkpt lat="48.37797" lon="5.34974">
        <ele>363.46</ele>
        <time>2025-01-04T14:03:10.029Z</time>
      </trkpt>
      <trkpt lat="48.37809" lon="5.34957">
        <ele>363.4</ele>
        <time>2025-01-04T14:03:12.480Z</time>
      </trkpt>
      <trkpt lat="48.37815" lon="5.34945">
        <ele>363.35</ele>
        <time>2025-01-04T14:03:14.932Z</time>
      </trkpt>
      <trkpt lat="48.37826" lon="5.34921">
        <ele>363.3</ele>
        <time>2025-01-04T14:03:17.387Z</time>
      </trkpt>
      <trkpt lat="48.37837" lon="5.34897">
        <ele>363.25</ele>
        <time>2025-01-04T14:03:19.846Z</time>
      </trkpt>
      <trkpt lat="48.37844" lon="5.34882">
        <ele>363.25</ele>
        <time>2025-01-04T14:03:22.306Z</time>
      </trkpt>
      <trkpt lat="48.37851" lon="5.34867">
        <ele>363.23</ele>
        <time>2025-01-04T14:03:24.768Z</time>
      </trkpt>
      <trkpt lat="48.37855" lon="5.3486">
        <ele>363.23</ele>
        <time>2025-01-04T14:03:27.231Z</time>
      </trkpt>
      <trkpt lat="48.37858" lon="5.34853">
        <ele>363.26</ele>
        <time>2025-01-04T14:03:29.695Z</time>
      </trkpt>
      <trkpt lat="48.37871" lon="5.34835">
        <ele>363.31</ele>
        <time>2025-01-04T14:03:32.162Z</time>
      </trkpt>
      <trkpt lat="48.37892" lon="5.34809">
        <ele>363.33</ele>
        <time>2025-01-04T14:03:34.634Z</time>
      </trkpt>
      <trkpt lat="48.379" lon="5.34799">
        <ele>363.43</ele>
        <time>2025-01-04T14:03:37.107Z</time>
      </trkpt>
      <trkpt lat="48.37916" lon="5.34779">
        <ele>363.58</ele>
        <time>2025-01-04T14:03:39.584Z</time>
      </trkpt>
      <trkpt lat="48.37932" lon="5.34758">
        <ele>363.75</ele>
        <time>2025-01-04T14:03:42.064Z</time>
      </trkpt>
      <trkpt lat="48.37946" lon="5.34741">
        <ele>363.89</ele>
        <time>2025-01-04T14:03:44.547Z</time>
      </trkpt>
      <trkpt lat="48.37959" lon="5.34724">
        <ele>364.02</ele>
        <time>2025-01-04T14:03:47.033Z</time>
      </trkpt>
      <trkpt lat="48.37963" lon="5.34721">
        <ele>364.17</ele>
        <time>2025-01-04T14:03:49.519Z</time>
      </trkpt>
      <trkpt lat="48.37974" lon="5.34711">
        <ele>364.35</ele>
        <time>2025-01-04T14:03:52.007Z</time>
      </trkpt>
      <trkpt lat="48.37977" lon="5.34706">
        <ele>364.55</ele>
        <time>2025-01-04T14:03:54.496Z</time>
      </trkpt>
      <trkpt lat="48.37977" lon="5.34696">
        <ele>364.76</ele>
        <time>2025-01-04T14:03:56.986Z</time>
      </trkpt>
      <trkpt lat="48.37975" lon="5.34672">
        <ele>364.99</ele>
        <time>2025-01-04T14:03:59.479Z</time>
      </trkpt>
      <trkpt lat="48.37975" lon="5.34665">
        <ele>365.19</ele>
        <time>2025-01-04T14:04:01.972Z</time>
      </trkpt>
      <trkpt lat="48.37972" lon="5.34618">
        <ele>365.42</ele>
        <time>2025-01-04T14:04:04.470Z</time>
      </trkpt>
      <trkpt lat="48.37971" lon="5.3461">
        <ele>365.62</ele>
        <time>2025-01-04T14:04:06.969Z</time>
      </trkpt>
      <trkpt lat="48.37962" lon="5.34579">
        <ele>365.82</ele>
        <time>2025-01-04T14:04:09.472Z</time>
      </trkpt>
      <trkpt lat="48.37955" lon="5.34558">
        <ele>365.99</ele>
        <time>2025-01-04T14:04:11.977Z</time>
      </trkpt>
      <trkpt lat="48.37951" lon="5.34545">
        <ele>366.17</ele>
        <time>2025-01-04T14:04:14.484Z</time>
      </trkpt>
      <trkpt lat="48.37934" lon="5.34505">
        <ele>366.36</ele>
        <time>2025-01-04T14:04:16.996Z</time>
      </trkpt>
      <trkpt lat="48.37929" lon="5.34493">
        <ele>366.51</ele>
        <time>2025-01-04T14:04:19.510Z</time>
      </trkpt>
      <trkpt lat="48.37924" lon="5.34483">
        <ele>366.65</ele>
        <time>2025-01-04T14:04:22.025Z</time>
      </trkpt>
      <trkpt lat="48.37923" lon="5.34478">
        <ele>366.76</ele>
        <time>2025-01-04T14:04:24.541Z</time>
      </trkpt>
      <trkpt lat="48.37926" lon="5.34465">
        <ele>366.87</ele>
        <time>2025-01-04T14:04:27.058Z</time>
      </trkpt>
      <trkpt lat="48.37932" lon="5.34458">
        <ele>366.95</ele>
        <time>2025-01-04T14:04:29.576Z</time>
      </trkpt>
      <trkpt lat="48.37939" lon="5.34451">
        <ele>367</ele>
        <time>2025-01-04T14:04:32.096Z</time>
      </trkpt>
      <trkpt lat="48.37949" lon="5.34439">
        <ele>367.03</ele>
        <time>2025-01-04T14:04:34.618Z</time>
      </trkpt>
      <trkpt lat="48.37968" lon="5.34408">
        <ele>366.99</ele>
        <time>2025-01-04T14:04:37.144Z</time>
      </trkpt>
      <trkpt lat="48.3798" lon="5.34387">
        <ele>366.91</ele>
        <time>2025-01-04T14:04:39.673Z</time>
      </trkpt>
      <trkpt lat="48.37998" lon="5.34396">
        <ele>366.84</ele>
        <time>2025-01-04T14:04:42.205Z</time>
      </trkpt>
      <trkpt lat="48.38009" lon="5.34411">
        <ele>366.75</ele>
        <time>2025-01-04T14:04:44.740Z</time>
      </trkpt>
      <trkpt lat="48.38022" lon="5.34428">
        <ele>366.64</ele>
        <time>2025-01-04T14:04:47.277Z</time>
      </trkpt>
      <trkpt lat="48.38041" lon="5.34454">
        <ele>366.55</ele>
        <time>2025-01-04T14:04:49.818Z</time>
      </trkpt>
      <trkpt lat="48.38054" lon="5.34476">
        <ele>366.48</ele>
        <time>2025-01-04T14:04:52.362Z</time>
      </trkpt>
      <trkpt lat="48.38062" lon="5.34486">
        <ele>366.4</ele>
        <time>2025-01-04T14:04:54.908Z</time>
      </trkpt>
      <trkpt lat="48.38062" lon="5.34485">
        <ele>366.29</ele>
        <time>2025-01-04T14:04:57.454Z</time>
      </trkpt>
      <trkpt lat="48.38062" lon="5.34485">
        <ele>366.17</ele>
        <time>2025-01-04T14:05:00.000Z</time>
      </trkpt>
      <trkpt lat="48.38063" lon="5.34488">
        <ele>366.05</ele>
        <time>2025-01-04T14:05:02.547Z</time>
      </trkpt>
      <trkpt lat="48.38065" lon="5.34492">
        <ele>365.92</ele>
        <time>2025-01-04T14:05:05.094Z</time>
      </trkpt>
      <trkpt lat="48.38066" lon="5.34492">
        <ele>365.77</ele>
        <time>2025-01-04T14:05:07.641Z</time>
      </trkpt>
      <trkpt lat="48.38065" lon="5.34493">
        <ele>365.61</ele>
        <time>2025-01-04T14:05:10.188Z</time>
      </trkpt>
      <trkpt lat="48.38068" lon="5.34498">
        <ele>365.45</ele>
        <time>2025-01-04T14:05:12.736Z</time>
      </trkpt>
      <trkpt lat="48.38069" lon="5.34501">
        <ele>365.27</ele>
        <time>2025-01-04T14:05:15.284Z</time>
      </trkpt>
      <trkpt lat="48.38072" lon="5.34524">
        <ele>365.08</ele>
        <time>2025-01-04T14:05:17.835Z</time>
      </trkpt>
      <trkpt lat="48.38073" lon="5.34558">
        <ele>364.83</ele>
        <time>2025-01-04T14:05:20.390Z</time>
      </trkpt>
      <trkpt lat="48.38076" lon="5.34574">
        <ele>364.59</ele>
        <time>2025-01-04T14:05:22.946Z</time>
      </trkpt>
      <trkpt lat="48.3808" lon="5.34577">
        <ele>364.37</ele>
        <time>2025-01-04T14:05:25.503Z</time>
      </trkpt>
      <trkpt lat="48.38083" lon="5.34572">
        <ele>364.16</ele>
        <time>2025-01-04T14:05:28.061Z</time>
      </trkpt>
      <trkpt lat="48.38086" lon="5.34565">
        <ele>363.94</ele>
        <time>2025-01-04T14:05:30.620Z</time>
      </trkpt>
      <trkpt lat="48.38086" lon="5.34565">
        <ele>363.7</ele>
        <time>2025-01-04T14:05:33.179Z</time>
      </trkpt>
      <trkpt lat="48.38082" lon="5.3457">
        <ele>363.45</ele>
        <time>2025-01-04T14:05:35.739Z</time>
      </trkpt>
      <trkpt lat="48.3808" lon="5.34577">
        <ele>363.18</ele>
        <time>2025-01-04T14:05:38.299Z</time>
      </trkpt>
      <trkpt lat="48.3807" lon="5.34603">
        <ele>362.93</ele>
        <time>2025-01-04T14:05:40.863Z</time>
      </trkpt>
      <trkpt lat="48.3806" lon="5.34625">
        <ele>362.67</ele>
        <time>2025-01-04T14:05:43.429Z</time>
      </trkpt>
      <trkpt lat="48.38055" lon="5.34635">
        <ele>362.39</ele>
        <time>2025-01-04T14:05:45.997Z</time>
      </trkpt>
      <trkpt lat="48.38051" lon="5.34659">
        <ele>362.11</ele>
        <time>2025-01-04T14:05:48.567Z</time>
      </trkpt>
      <trkpt lat="48.38056" lon="5.34664">
        <ele>361.8</ele>
        <time>2025-01-04T14:05:51.139Z</time>
      </trkpt>
      <trkpt lat="48.3806" lon="5.34669">
        <ele>361.48</ele>
        <time>2025-01-04T14:05:53.711Z</time>
      </trkpt>
      <trkpt lat="48.38063" lon="5.34674">
        <ele>361.15</ele>
        <time>2025-01-04T14:05:56.284Z</time>
      </trkpt>
      <trkpt lat="48.38079" lon="5.34697">
        <ele>360.78</ele>
        <time>2025-01-04T14:05:58.861Z</time>
      </trkpt>
      <trkpt lat="48.38092" lon="5.34716">
        <ele>360.42</ele>
        <time>2025-01-04T14:06:01.440Z</time>
      </trkpt>
      <trkpt lat="48.38105" lon="5.34735">
        <ele>360.06</ele>
        <time>2025-01-04T14:06:04.022Z</time>
      </trkpt>
      <trkpt lat="48.38127" lon="5.34765">
        <ele>359.77</ele>
        <time>2025-01-04T14:06:06.609Z</time>
      </trkpt>
      <trkpt lat="48.38149" lon="5.34794">
        <ele>359.49</ele>
        <time>2025-01-04T14:06:09.201Z</time>
      </trkpt>
      <trkpt lat="48.38171" lon="5.34823">
        <ele>359.19</ele>
        <time>2025-01-04T14:06:11.798Z</time>
      </trkpt>
      <trkpt lat="48.38193" lon="5.34852">
        <ele>358.88</ele>
        <time>2025-01-04T14:06:14.399Z</time>
      </trkpt>
      <trkpt lat="48.38216" lon="5.34881">
        <ele>358.64</ele>
        <time>2025-01-04T14:06:17.005Z</time>
      </trkpt>
      <trkpt lat="48.38238" lon="5.34911">
        <ele>358.4</ele>
        <time>2025-01-04T14:06:19.616Z</time>
      </trkpt>
      <trkpt lat="48.38248" lon="5.34928">
        <ele>358.17</ele>
        <time>2025-01-04T14:06:22.229Z</time>
      </trkpt>
      <trkpt lat="48.38267" lon="5.34961">
        <ele>357.89</ele>
        <time>2025-01-04T14:06:24.847Z</time>
      </trkpt>
      <trkpt lat="48.38285" lon="5.34993">
        <ele>357.69</ele>
        <time>2025-01-04T14:06:27.469Z</time>
      </trkpt>
      <trkpt lat="48.3829" lon="5.35002">
        <ele>357.53</ele>
        <time>2025-01-04T14:06:30.093Z</time>
      </trkpt>
      <trkpt lat="48.38305" lon="5.35029">
        <ele>357.38</ele>
        <time>2025-01-04T14:06:32.720Z</time>
      </trkpt>
      <trkpt lat="48.3832" lon="5.35057">
        <ele>357.3</ele>
        <time>2025-01-04T14:06:35.351Z</time>
      </trkpt>
      <trkpt lat="48.38333" lon="5.35083">
        <ele>357.25</ele>
        <time>2025-01-04T14:06:37.986Z</time>
      </trkpt>
      <trkpt lat="48.38345" lon="5.35109">
        <ele>357.21</ele>
        <time>2025-01-04T14:06:40.624Z</time>
      </trkpt>
      <trkpt lat="48.38357" lon="5.35134">
        <ele>357.25</ele>
        <time>2025-01-04T14:06:43.265Z</time>
      </trkpt>
      <trkpt lat="48.38369" lon="5.35159">
        <ele>357.32</ele>
        <time>2025-01-04T14:06:45.910Z</time>
      </trkpt>
      <trkpt lat="48.38381" lon="5.35187">
        <ele>357.48</ele>
        <time>2025-01-04T14:06:48.558Z</time>
      </trkpt>
      <trkpt lat="48.38394" lon="5.35214">
        <ele>357.63</ele>
        <time>2025-01-04T14:06:51.210Z</time>
      </trkpt>
      <trkpt lat="48.38407" lon="5.35242">
        <ele>357.88</ele>
        <time>2025-01-04T14:06:53.865Z</time>
      </trkpt>
      <trkpt lat="48.3842" lon="5.3527">
        <ele>358.17</ele>
        <time>2025-01-04T14:06:56.524Z</time>
      </trkpt>
      <trkpt lat="48.3843" lon="5.3529">
        <ele>358.48</ele>
        <time>2025-01-04T14:06:59.186Z</time>
      </trkpt>
      <trkpt lat="48.38439" lon="5.35311">
        <ele>358.84</ele>
        <time>2025-01-04T14:07:01.850Z</time>
      </trkpt>
      <trkpt lat="48.38453" lon="5.35338">
        <ele>359.26</ele>
        <time>2025-01-04T14:07:04.518Z</time>
      </trkpt>
      <trkpt lat="48.38466" lon="5.35366">
        <ele>359.73</ele>
        <time>2025-01-04T14:07:07.190Z</time>
      </trkpt>
      <trkpt lat="48.38479" lon="5.35388">
        <ele>360.24</ele>
        <time>2025-01-04T14:07:09.865Z</time>
      </trkpt>
      <trkpt lat="48.38492" lon="5.35409">
        <ele>360.82</ele>
        <time>2025-01-04T14:07:12.543Z</time>
      </trkpt>
      <trkpt lat="48.38508" lon="5.35436">
        <ele>361.43</ele>
        <time>2025-01-04T14:07:15.225Z</time>
      </trkpt>
      <trkpt lat="48.38512" lon="5.3544">
        <ele>361.98</ele>
        <time>2025-01-04T14:07:17.907Z</time>
      </trkpt>
      <trkpt lat="48.38533" lon="5.35465">
        <ele>362.55</ele>
        <time>2025-01-04T14:07:20.594Z</time>
      </trkpt>
      <trkpt lat="48.38557" lon="5.35492">
        <ele>363.11</ele>
        <time>2025-01-04T14:07:23.285Z</time>
      </trkpt>
      <trkpt lat="48.38575" lon="5.35512">
        <ele>363.73</ele>
        <time>2025-01-04T14:07:25.980Z</time>
      </trkpt>
      <trkpt lat="48.38592" lon="5.35532">
        <ele>364.35</ele>
        <time>2025-01-04T14:07:28.679Z</time>
      </trkpt>
      <trkpt lat="48.38611" lon="5.35552">
        <ele>364.95</ele>
        <time>2025-01-04T14:07:31.381Z</time>
      </trkpt>
      <trkpt lat="48.38626" lon="5.3557">
        <ele>365.53</ele>
        <time>2025-01-04T14:07:34.086Z</time>
      </trkpt>
      <trkpt lat="48.38647" lon="5.35593">
        <ele>366.08</ele>
        <time>2025-01-04T14:07:36.795Z</time>
      </trkpt>
      <trkpt lat="48.38666" lon="5.35615">
        <ele>366.58</ele>
        <time>2025-01-04T14:07:39.508Z</time>
      </trkpt>
      <trkpt lat="48.3869" lon="5.35637">
        <ele>367.03</ele>
        <time>2025-01-04T14:07:42.226Z</time>
      </trkpt>
      <trkpt lat="48.38712" lon="5.35655">
        <ele>367.55</ele>
        <time>2025-01-04T14:07:44.948Z</time>
      </trkpt>
      <trkpt lat="48.38741" lon="5.35674">
        <ele>368.01</ele>
        <time>2025-01-04T14:07:47.675Z</time>
      </trkpt>
      <trkpt lat="48.38757" lon="5.35685">
        <ele>368.37</ele>
        <time>2025-01-04T14:07:50.405Z</time>
      </trkpt>
      <trkpt lat="48.38773" lon="5.35695">
        <ele>368.68</ele>
        <time>2025-01-04T14:07:53.137Z</time>
      </trkpt>
      <trkpt lat="48.38796" lon="5.35711">
        <ele>368.95</ele>
        <time>2025-01-04T14:07:55.874Z</time>
      </trkpt>
      <trkpt lat="48.3882" lon="5.35727">
        <ele>369.16</ele>
        <time>2025-01-04T14:07:58.615Z</time>
      </trkpt>
      <trkpt lat="48.38844" lon="5.35743">
        <ele>369.35</ele>
        <time>2025-01-04T14:08:01.360Z</time>
      </trkpt>
      <trkpt lat="48.38868" lon="5.35759">
        <ele>369.48</ele>
        <time>2025-01-04T14:08:04.109Z</time>
      </trkpt>
      <trkpt lat="48.38891" lon="5.35774">
        <ele>369.55</ele>
        <time>2025-01-04T14:08:06.862Z</time>
      </trkpt>
      <trkpt lat="48.38914" lon="5.35789">
        <ele>369.62</ele>
        <time>2025-01-04T14:08:09.619Z</time>
      </trkpt>
      <trkpt lat="48.38936" lon="5.35795">
        <ele>369.72</ele>
        <time>2025-01-04T14:08:12.380Z</time>
      </trkpt>
      <trkpt lat="48.38958" lon="5.35801">
        <ele>369.85</ele>
        <time>2025-01-04T14:08:15.144Z</time>
      </trkpt>
      <trkpt lat="48.38981" lon="5.35802">
        <ele>369.98</ele>
        <time>2025-01-04T14:08:17.912Z</time>
      </trkpt>
      <trkpt lat="48.39004" lon="5.35804">
        <ele>370.15</ele>
        <time>2025-01-04T14:08:20.684Z</time>
      </trkpt>
      <trkpt lat="48.39033" lon="5.35805">
        <ele>370.45</ele>
        <time>2025-01-04T14:08:23.460Z</time>
      </trkpt>
      <trkpt lat="48.39063" lon="5.35807">
        <ele>370.81</ele>
        <time>2025-01-04T14:08:26.241Z</time>
      </trkpt>
      <trkpt lat="48.39086" lon="5.35809">
        <ele>371.18</ele>
        <time>2025-01-04T14:08:29.026Z</time>
      </trkpt>
      <trkpt lat="48.39109" lon="5.3581">
        <ele>371.5</ele>
        <time>2025-01-04T14:08:31.815Z</time>
      </trkpt>
      <trkpt lat="48.3913" lon="5.35812">
        <ele>371.83</ele>
        <time>2025-01-04T14:08:34.607Z</time>
      </trkpt>
      <trkpt lat="48.39152" lon="5.35813">
        <ele>372.17</ele>
        <time>2025-01-04T14:08:37.402Z</time>
      </trkpt>
      <trkpt lat="48.39176" lon="5.35815">
        <ele>372.55</ele>
        <time>2025-01-04T14:08:40.201Z</time>
      </trkpt>
      <trkpt lat="48.392" lon="5.35816">
        <ele>372.89</ele>
        <time>2025-01-04T14:08:43.004Z</time>
      </trkpt>
      <trkpt lat="48.39219" lon="5.35817">
        <ele>373.21</ele>
        <time>2025-01-04T14:08:45.810Z</time>
      </trkpt>
      <trkpt lat="48.39237" lon="5.35819">
        <ele>373.52</ele>
        <time>2025-01-04T14:08:48.619Z</time>
      </trkpt>
      <trkpt lat="48.39258" lon="5.3582">
        <ele>373.8</ele>
        <time>2025-01-04T14:08:51.431Z</time>
      </trkpt>
      <trkpt lat="48.39278" lon="5.35821">
        <ele>374.06</ele>
        <time>2025-01-04T14:08:54.247Z</time>
      </trkpt>
      <trkpt lat="48.39298" lon="5.35823">
        <ele>374.32</ele>
        <time>2025-01-04T14:08:57.066Z</time>
      </trkpt>
      <trkpt lat="48.39318" lon="5.35824">
        <ele>374.52</ele>
        <time>2025-01-04T14:08:59.888Z</time>
      </trkpt>
      <trkpt lat="48.39335" lon="5.35825">
        <ele>374.71</ele>
        <time>2025-01-04T14:09:02.713Z</time>
      </trkpt>
      <trkpt lat="48.39351" lon="5.35826">
        <ele>374.86</ele>
        <time>2025-01-04T14:09:05.540Z</time>
      </trkpt>
      <trkpt lat="48.39381" lon="5.35821">
        <ele>374.98</ele>
        <time>2025-01-04T14:09:08.372Z</time>
      </trkpt>
      <trkpt lat="48.39398" lon="5.35819">
        <ele>375.08</ele>
        <time>2025-01-04T14:09:11.207Z</time>
      </trkpt>
      <trkpt lat="48.39415" lon="5.35817">
        <ele>375.11</ele>
        <time>2025-01-04T14:09:14.045Z</time>
      </trkpt>
      <trkpt lat="48.39431" lon="5.35814">
        <ele>375.12</ele>
        <time>2025-01-04T14:09:16.885Z</time>
      </trkpt>
      <trkpt lat="48.39447" lon="5.35812">
        <ele>375.1</ele>
        <time>2025-01-04T14:09:19.728Z</time>
      </trkpt>
      <trkpt lat="48.39471" lon="5.35804">
        <ele>375.09</ele>
        <time>2025-01-04T14:09:22.575Z</time>
      </trkpt>
      <trkpt lat="48.39475" lon="5.35802">
        <ele>374.99</ele>
        <time>2025-01-04T14:09:25.422Z</time>
      </trkpt>
      <trkpt lat="48.39502" lon="5.35789">
        <ele>374.85</ele>
        <time>2025-01-04T14:09:28.274Z</time>
      </trkpt>
      <trkpt lat="48.39514" lon="5.35783">
        <ele>374.64</ele>
        <time>2025-01-04T14:09:31.128Z</time>
      </trkpt>
      <trkpt lat="48.39533" lon="5.35773">
        <ele>374.36</ele>
        <time>2025-01-04T14:09:33.985Z</time>
      </trkpt>
      <trkpt lat="48.39553" lon="5.35759">
        <ele>374.07</ele>
        <time>2025-01-04T14:09:36.846Z</time>
      </trkpt>
      <trkpt lat="48.39572" lon="5.35745">
        <ele>373.71</ele>
        <time>2025-01-04T14:09:39.710Z</time>
      </trkpt>
      <trkpt lat="48.39591" lon="5.35733">
        <ele>373.39</ele>
        <time>2025-01-04T14:09:42.577Z</time>
      </trkpt>
      <trkpt lat="48.3961" lon="5.35722">
        <ele>373.04</ele>
        <time>2025-01-04T14:09:45.448Z</time>
      </trkpt>
      <trkpt lat="48.39632" lon="5.35711">
        <ele>372.73</ele>
        <time>2025-01-04T14:09:48.322Z</time>
      </trkpt>
      <trkpt lat="48.39653" lon="5.357">
        <ele>372.4</ele>
        <time>2025-01-04T14:09:51.200Z</time>
      </trkpt>
      <trkpt lat="48.39658" lon="5.35698">
        <ele>372.06</ele>
        <time>2025-01-04T14:09:54.079Z</time>
      </trkpt>
      <trkpt lat="48.39656" lon="5.35699">
        <ele>371.73</ele>
        <time>2025-01-04T14:09:56.958Z</time>
      </trkpt>
      <trkpt lat="48.39655" lon="5.357">
        <ele>371.39</ele>
        <time>2025-01-04T14:09:59.837Z</time>
      </trkpt>
      <trkpt lat="48.39655" lon="5.357">
        <ele>371.05</ele>
        <time>2025-01-04T14:10:02.716Z</time>
      </trkpt>
      <trkpt lat="48.39659" lon="5.35697">
        <ele>370.71</ele>
        <time>2025-01-04T14:10:05.596Z</time>
      </trkpt>
      <trkpt lat="48.39675" lon="5.35689">
        <ele>370.36</ele>
        <time>2025-01-04T14:10:08.479Z</time>
      </trkpt>
      <trkpt lat="48.39694" lon="5.3568">
        <ele>369.99</ele>
        <time>2025-01-04T14:10:11.365Z</time>
      </trkpt>
      <trkpt lat="48.39713" lon="5.35671">
        <ele>369.66</ele>
        <time>2025-01-04T14:10:14.254Z</time>
      </trkpt>
      <trkpt lat="48.39732" lon="5.35663">
        <ele>369.37</ele>
        <time>2025-01-04T14:10:17.146Z</time>
      </trkpt>
      <trkpt lat="48.39736" lon="5.35661">
        <ele>369.09</ele>
        <time>2025-01-04T14:10:20.039Z</time>
      </trkpt>
      <trkpt lat="48.39753" lon="5.35655">
        <ele>368.86</ele>
        <time>2025-01-04T14:10:22.935Z</time>
      </trkpt>
      <trkpt lat="48.39769" lon="5.35657">
        <ele>368.63</ele>
        <time>2025-01-04T14:10:25.833Z</time>
      </trkpt>
      <trkpt lat="48.39786" lon="5.35661">
        <ele>368.42</ele>
        <time>2025-01-04T14:10:28.734Z</time>
      </trkpt>
      <trkpt lat="48.39812" lon="5.35675">
        <ele>368.2</ele>
        <time>2025-01-04T14:10:31.639Z</time>
      </trkpt>
      <trkpt lat="48.3983" lon="5.35695">
        <ele>367.97</ele>
        <time>2025-01-04T14:10:34.548Z</time>
      </trkpt>
      <trkpt lat="48.39834" lon="5.357">
        <ele>367.79</ele>
        <time>2025-01-04T14:10:37.458Z</time>
      </trkpt>
      <trkpt lat="48.39838" lon="5.3569">
        <ele>367.68</ele>
        <time>2025-01-04T14:10:40.369Z</time>
      </trkpt>
      <trkpt lat="48.39838" lon="5.3569">
        <ele>367.56</ele>
        <time>2025-01-04T14:10:43.280Z</time>
      </trkpt>
      <trkpt lat="48.39838" lon="5.35691">
        <ele>367.47</ele>
        <time>2025-01-04T14:10:46.191Z</time>
      </trkpt>
      <trkpt lat="48.39835" lon="5.35701">
        <ele>367.38</ele>
        <time>2025-01-04T14:10:49.103Z</time>
      </trkpt>
      <trkpt lat="48.39839" lon="5.35705">
        <ele>367.35</ele>
        <time>2025-01-04T14:10:52.016Z</time>
      </trkpt>
      <trkpt lat="48.39842" lon="5.35707">
        <ele>367.35</ele>
        <time>2025-01-04T14:10:54.930Z</time>
      </trkpt>
      <trkpt lat="48.39844" lon="5.3571">
        <ele>367.38</ele>
        <time>2025-01-04T14:10:57.844Z</time>
      </trkpt>
      <trkpt lat="48.39854" lon="5.35721">
        <ele>367.44</ele>
        <time>2025-01-04T14:11:00.760Z</time>
      </trkpt>
      <trkpt lat="48.39858" lon="5.35726">
        <ele>367.55</ele>
        <time>2025-01-04T14:11:03.677Z</time>
      </trkpt>
      <trkpt lat="48.39857" lon="5.35724">
        <ele>367.71</ele>
        <time>2025-01-04T14:11:06.594Z</time>
      </trkpt>
      <trkpt lat="48.39854" lon="5.35721">
        <ele>367.9</ele>
        <time>2025-01-04T14:11:09.512Z</time>
      </trkpt>
      <trkpt lat="48.39854" lon="5.35721">
        <ele>368.14</ele>
        <time>2025-01-04T14:11:12.430Z</time>
      </trkpt>
      <trkpt lat="48.3986" lon="5.35728">
        <ele>368.42</ele>
        <time>2025-01-04T14:11:15.349Z</time>
      </trkpt>
      <trkpt lat="48.39872" lon="5.35725">
        <ele>368.75</ele>
        <time>2025-01-04T14:11:18.270Z</time>
      </trkpt>
      <trkpt lat="48.39884" lon="5.35712">
        <ele>369.12</ele>
        <time>2025-01-04T14:11:21.193Z</time>
      </trkpt>
      <trkpt lat="48.39898" lon="5.35692">
        <ele>369.59</ele>
        <time>2025-01-04T14:11:24.119Z</time>
      </trkpt>
      <trkpt lat="48.39912" lon="5.35671">
        <ele>370.05</ele>
        <time>2025-01-04T14:11:27.048Z</time>
      </trkpt>
      <trkpt lat="48.39926" lon="5.35649">
        <ele>370.6</ele>
        <time>2025-01-04T14:11:29.981Z</time>
      </trkpt>
      <trkpt lat="48.39944" lon="5.3562">
        <ele>371.15</ele>
        <time>2025-01-04T14:11:32.918Z</time>
      </trkpt>
      <trkpt lat="48.39955" lon="5.35602">
        <ele>371.69</ele>
        <time>2025-01-04T14:11:35.857Z</time>
      </trkpt>
      <trkpt lat="48.39965" lon="5.35585">
        <ele>372.27</ele>
        <time>2025-01-04T14:11:38.799Z</time>
      </trkpt>
      <trkpt lat="48.39982" lon="5.35558">
        <ele>372.93</ele>
        <time>2025-01-04T14:11:41.745Z</time>
      </trkpt>
      <trkpt lat="48.39989" lon="5.35547">
        <ele>373.58</ele>
        <time>2025-01-04T14:11:44.693Z</time>
      </trkpt>
      <trkpt lat="48.39997" lon="5.35537">
        <ele>374.23</ele>
        <time>2025-01-04T14:11:47.642Z</time>
      </trkpt>
      <trkpt lat="48.4001" lon="5.35528">
        <ele>374.99</ele>
        <time>2025-01-04T14:11:50.594Z</time>
      </trkpt>
      <trkpt lat="48.40015" lon="5.35525">
        <ele>375.71</ele>
        <time>2025-01-04T14:11:53.546Z</time>
      </trkpt>
      <trkpt lat="48.40031" lon="5.35514">
        <ele>376.51</ele>
        <time>2025-01-04T14:11:56.501Z</time>
      </trkpt>
      <trkpt lat="48.40046" lon="5.35503">
        <ele>377.35</ele>
        <time>2025-01-04T14:11:59.459Z</time>
      </trkpt>
      <trkpt lat="48.40063" lon="5.35491">
        <ele>378.16</ele>
        <time>2025-01-04T14:12:02.420Z</time>
      </trkpt>
      <trkpt lat="48.40079" lon="5.3548">
        <ele>378.93</ele>
        <time>2025-01-04T14:12:05.384Z</time>
      </trkpt>
      <trkpt lat="48.40107" lon="5.3546">
        <ele>379.66</ele>
        <time>2025-01-04T14:12:08.353Z</time>
      </trkpt>
      <trkpt lat="48.40125" lon="5.35458">
        <ele>380.44</ele>
        <time>2025-01-04T14:12:11.325Z</time>
      </trkpt>
      <trkpt lat="48.40144" lon="5.35456">
        <ele>381.22</ele>
        <time>2025-01-04T14:12:14.300Z</time>
      </trkpt>
      <trkpt lat="48.40173" lon="5.35466">
        <ele>382.06</ele>
        <time>2025-01-04T14:12:17.279Z</time>
      </trkpt>
      <trkpt lat="48.40199" lon="5.35475">
        <ele>382.83</ele>
        <time>2025-01-04T14:12:20.263Z</time>
      </trkpt>
      <trkpt lat="48.40214" lon="5.3548">
        <ele>383.58</ele>
        <time>2025-01-04T14:12:23.249Z</time>
      </trkpt>
      <trkpt lat="48.4023" lon="5.35486">
        <ele>384.32</ele>
        <time>2025-01-04T14:12:26.238Z</time>
      </trkpt>
      <trkpt lat="48.4025" lon="5.35493">
        <ele>385.06</ele>
        <time>2025-01-04T14:12:29.230Z</time>
      </trkpt>
      <trkpt lat="48.4027" lon="5.355">
        <ele>385.74</ele>
        <time>2025-01-04T14:12:32.225Z</time>
      </trkpt>
      <trkpt lat="48.40288" lon="5.35506">
        <ele>386.41</ele>
        <time>2025-01-04T14:12:35.223Z</time>
      </trkpt>
      <trkpt lat="48.40305" lon="5.35512">
        <ele>387.07</ele>
        <time>2025-01-04T14:12:38.224Z</time>
      </trkpt>
      <trkpt lat="48.40321" lon="5.35517">
        <ele>387.8</ele>
        <time>2025-01-04T14:12:41.228Z</time>
      </trkpt>
      <trkpt lat="48.40337" lon="5.35523">
        <ele>388.49</ele>
        <time>2025-01-04T14:12:44.234Z</time>
      </trkpt>
      <trkpt lat="48.40366" lon="5.35532">
        <ele>389.13</ele>
        <time>2025-01-04T14:12:47.245Z</time>
      </trkpt>
      <trkpt lat="48.40394" lon="5.35539">
        <ele>389.79</ele>
        <time>2025-01-04T14:12:50.261Z</time>
      </trkpt>
      <trkpt lat="48.4042" lon="5.35544">
        <ele>390.44</ele>
        <time>2025-01-04T14:12:53.281Z</time>
      </trkpt>
      <trkpt lat="48.4045" lon="5.35548">
        <ele>391.13</ele>
        <time>2025-01-04T14:12:56.306Z</time>
      </trkpt>
      <trkpt lat="48.40475" lon="5.35551">
        <ele>391.78</ele>
        <time>2025-01-04T14:12:59.335Z</time>
      </trkpt>
      <trkpt lat="48.40498" lon="5.35555">
        <ele>392.33</ele>
        <time>2025-01-04T14:13:02.367Z</time>
      </trkpt>
      <trkpt lat="48.4052" lon="5.35558">
        <ele>392.94</ele>
        <time>2025-01-04T14:13:05.403Z</time>
      </trkpt>
      <trkpt lat="48.40545" lon="5.35561">
        <ele>393.46</ele>
        <time>2025-01-04T14:13:08.443Z</time>
      </trkpt>
      <trkpt lat="48.40562" lon="5.35563">
        <ele>393.93</ele>
        <time>2025-01-04T14:13:11.486Z</time>
      </trkpt>
      <trkpt lat="48.40584" lon="5.35566">
        <ele>394.39</ele>
        <time>2025-01-04T14:13:14.532Z</time>
      </trkpt>
      <trkpt lat="48.40608" lon="5.35569">
        <ele>394.79</ele>
        <time>2025-01-04T14:13:17.582Z</time>
      </trkpt>
      <trkpt lat="48.40634" lon="5.35573">
        <ele>395.09</ele>
        <time>2025-01-04T14:13:20.636Z</time>
      </trkpt>
      <trkpt lat="48.40654" lon="5.35571">
        <ele>395.26</ele>
        <time>2025-01-04T14:13:23.693Z</time>
      </trkpt>
      <trkpt lat="48.40686" lon="5.35569">
        <ele>395.29</ele>
        <time>2025-01-04T14:13:26.755Z</time>
      </trkpt>
      <trkpt lat="48.40704" lon="5.35567">
        <ele>395.23</ele>
        <time>2025-01-04T14:13:29.820Z</time>
      </trkpt>
      <trkpt lat="48.40722" lon="5.35566">
        <ele>395.08</ele>
        <time>2025-01-04T14:13:32.888Z</time>
      </trkpt>
      <trkpt lat="48.4074" lon="5.35565">
        <ele>394.83</ele>
        <time>2025-01-04T14:13:35.959Z</time>
      </trkpt>
      <trkpt lat="48.40758" lon="5.35563">
        <ele>394.5</ele>
        <time>2025-01-04T14:13:39.033Z</time>
      </trkpt>
      <trkpt lat="48.4078" lon="5.35562">
        <ele>394.1</ele>
        <time>2025-01-04T14:13:42.111Z</time>
      </trkpt>
      <trkpt lat="48.40801" lon="5.3556">
        <ele>393.63</ele>
        <time>2025-01-04T14:13:45.192Z</time>
      </trkpt>
      <trkpt lat="48.40831" lon="5.35562">
        <ele>393.09</ele>
        <time>2025-01-04T14:13:48.278Z</time>
      </trkpt>
      <trkpt lat="48.40851" lon="5.35563">
        <ele>392.59</ele>
        <time>2025-01-04T14:13:51.367Z</time>
      </trkpt>
      <trkpt lat="48.40876" lon="5.35564">
        <ele>392.05</ele>
        <time>2025-01-04T14:13:54.460Z</time>
      </trkpt>
      <trkpt lat="48.40892" lon="5.35564">
        <ele>391.45</ele>
        <time>2025-01-04T14:13:57.556Z</time>
      </trkpt>
      <trkpt lat="48.40908" lon="5.35564">
        <ele>390.8</ele>
        <time>2025-01-04T14:14:00.654Z</time>
      </trkpt>
      <trkpt lat="48.40937" lon="5.35548">
        <ele>390.08</ele>
        <time>2025-01-04T14:14:03.757Z</time>
      </trkpt>
      <trkpt lat="48.40947" lon="5.35542">
        <ele>389.37</ele>
        <time>2025-01-04T14:14:06.862Z</time>
      </trkpt>
      <trkpt lat="48.40958" lon="5.35546">
        <ele>388.66</ele>
        <time>2025-01-04T14:14:09.969Z</time>
      </trkpt>
      <trkpt lat="48.40971" lon="5.35567">
        <ele>387.94</ele>
        <time>2025-01-04T14:14:13.079Z</time>
      </trkpt>
      <trkpt lat="48.40978" lon="5.35578">
        <ele>387.23</ele>
        <time>2025-01-04T14:14:16.190Z</time>
      </trkpt>
      <trkpt lat="48.40987" lon="5.35606">
        <ele>386.58</ele>
        <time>2025-01-04T14:14:19.305Z</time>
      </trkpt>
      <trkpt lat="48.40995" lon="5.35631">
        <ele>385.89</ele>
        <time>2025-01-04T14:14:22.423Z</time>
      </trkpt>
      <trkpt lat="48.41003" lon="5.35656">
        <ele>385.21</ele>
        <time>2025-01-04T14:14:25.544Z</time>
      </trkpt>
      <trkpt lat="48.41012" lon="5.35681">
        <ele>384.5</ele>
        <time>2025-01-04T14:14:28.667Z</time>
      </trkpt>
      <trkpt lat="48.4102" lon="5.35705">
        <ele>383.84</ele>
        <time>2025-01-04T14:14:31.793Z</time>
      </trkpt>
      <trkpt lat="48.41023" lon="5.3571">
        <ele>383.24</ele>
        <time>2025-01-04T14:14:34.920Z</time>
      </trkpt>
      <trkpt lat="48.41031" lon="5.35715">
        <ele>382.66</ele>
        <time>2025-01-04T14:14:38.048Z</time>
      </trkpt>
      <trkpt lat="48.41048" lon="5.35714">
        <ele>382.09</ele>
        <time>2025-01-04T14:14:41.179Z</time>
      </trkpt>
      <trkpt lat="48.41057" lon="5.3571">
        <ele>381.59</ele>
        <time>2025-01-04T14:14:44.312Z</time>
      </trkpt>
      <trkpt lat="48.41065" lon="5.35707">
        <ele>381.15</ele>
        <time>2025-01-04T14:14:47.446Z</time>
      </trkpt>
      <trkpt lat="48.4108" lon="5.35699">
        <ele>380.72</ele>
        <time>2025-01-04T14:14:50.583Z</time>
      </trkpt>
      <trkpt lat="48.41084" lon="5.35703">
        <ele>380.39</ele>
        <time>2025-01-04T14:14:53.720Z</time>
      </trkpt>
      <trkpt lat="48.41088" lon="5.35707">
        <ele>380.12</ele>
        <time>2025-01-04T14:14:56.858Z</time>
      </trkpt>
      <trkpt lat="48.41103" lon="5.35722">
        <ele>379.9</ele>
        <time>2025-01-04T14:14:59.999Z</time>
      </trkpt>
      <trkpt lat="48.41112" lon="5.35741">
        <ele>379.75</ele>
        <time>2025-01-04T14:15:03.142Z</time>
      </trkpt>
      <trkpt lat="48.41116" lon="5.35761">
        <ele>379.63</ele>
        <time>2025-01-04T14:15:06.288Z</time>
      </trkpt>
      <trkpt lat="48.41118" lon="5.35774">
        <ele>379.56</ele>
        <time>2025-01-04T14:15:09.435Z</time>
      </trkpt>
      <trkpt lat="48.41117" lon="5.35799">
        <ele>379.55</ele>
        <time>2025-01-04T14:15:12.585Z</time>
      </trkpt>
      <trkpt lat="48.41113" lon="5.35825">
        <ele>379.6</ele>
        <time>2025-01-04T14:15:15.738Z</time>
      </trkpt>
      <trkpt lat="48.41111" lon="5.35839">
        <ele>379.69</ele>
        <time>2025-01-04T14:15:18.892Z</time>
      </trkpt>
      <trkpt lat="48.41109" lon="5.35846">
        <ele>379.81</ele>
        <time>2025-01-04T14:15:22.047Z</time>
      </trkpt>
      <trkpt lat="48.41108" lon="5.35866">
        <ele>379.96</ele>
        <time>2025-01-04T14:15:25.204Z</time>
      </trkpt>
      <trkpt lat="48.41108" lon="5.35881">
        <ele>380.15</ele>
        <time>2025-01-04T14:15:28.363Z</time>
      </trkpt>
      <trkpt lat="48.41114" lon="5.35915">
        <ele>380.38</ele>
        <time>2025-01-04T14:15:31.525Z</time>
      </trkpt>
      <trkpt lat="48.41116" lon="5.35921">
        <ele>380.62</ele>
        <time>2025-01-04T14:15:34.688Z</time>
      </trkpt>
      <trkpt lat="48.41126" lon="5.35964">
        <ele>380.88</ele>
        <time>2025-01-04T14:15:37.856Z</time>
      </trkpt>
      <trkpt lat="48.41128" lon="5.35998">
        <ele>381.22</ele>
        <time>2025-01-04T14:15:41.028Z</time>
      </trkpt>
      <trkpt lat="48.41126" lon="5.36005">
        <ele>381.5</ele>
        <time>2025-01-04T14:15:44.200Z</time>
      </trkpt>
      <trkpt lat="48.41118" lon="5.36045">
        <ele>381.83</ele>
        <time>2025-01-04T14:15:47.377Z</time>
      </trkpt>
      <trkpt lat="48.41111" lon="5.36085">
        <ele>382.11</ele>
        <time>2025-01-04T14:15:50.558Z</time>
      </trkpt>
      <trkpt lat="48.41103" lon="5.36124">
        <ele>382.33</ele>
        <time>2025-01-04T14:15:53.744Z</time>
      </trkpt>
      <trkpt lat="48.41101" lon="5.36133">
        <ele>382.59</ele>
        <time>2025-01-04T14:15:56.931Z</time>
      </trkpt>
      <trkpt lat="48.41094" lon="5.36168">
        <ele>382.83</ele>
        <time>2025-01-04T14:16:00.121Z</time>
      </trkpt>
      <trkpt lat="48.41087" lon="5.36202">
        <ele>383.09</ele>
        <time>2025-01-04T14:16:03.315Z</time>
      </trkpt>
      <trkpt lat="48.4108" lon="5.3624">
        <ele>383.32</ele>
        <time>2025-01-04T14:16:06.513Z</time>
      </trkpt>
      <trkpt lat="48.41073" lon="5.36276">
        <ele>383.48</ele>
        <time>2025-01-04T14:16:09.715Z</time>
      </trkpt>
      <trkpt lat="48.41066" lon="5.36314">
        <ele>383.59</ele>
        <time>2025-01-04T14:16:12.922Z</time>
      </trkpt>
      <trkpt lat="48.41058" lon="5.3635">
        <ele>383.68</ele>
        <time>2025-01-04T14:16:16.133Z</time>
      </trkpt>
      <trkpt lat="48.41055" lon="5.36383">
        <ele>383.73</ele>
        <time>2025-01-04T14:16:19.347Z</time>
      </trkpt>
      <trkpt lat="48.41052" lon="5.36416">
        <ele>383.72</ele>
        <time>2025-01-04T14:16:22.565Z</time>
      </trkpt>
      <trkpt lat="48.41052" lon="5.36454">
        <ele>383.66</ele>
        <time>2025-01-04T14:16:25.787Z</time>
      </trkpt>
      <trkpt lat="48.41052" lon="5.36493">
        <ele>383.55</ele>
        <time>2025-01-04T14:16:29.013Z</time>
      </trkpt>
      <trkpt lat="48.41055" lon="5.36526">
        <ele>383.37</ele>
        <time>2025-01-04T14:16:32.243Z</time>
      </trkpt>
      <trkpt lat="48.41057" lon="5.36559">
        <ele>383.14</ele>
        <time>2025-01-04T14:16:35.476Z</time>
      </trkpt>
      <trkpt lat="48.4106" lon="5.36593">
        <ele>382.84</ele>
        <time>2025-01-04T14:16:38.713Z</time>
      </trkpt>
      <trkpt lat="48.41063" lon="5.36626">
        <ele>382.5</ele>
        <time>2025-01-04T14:16:41.953Z</time>
      </trkpt>
      <trkpt lat="48.41066" lon="5.36667">
        <ele>382.1</ele>
        <time>2025-01-04T14:16:45.198Z</time>
      </trkpt>
      <trkpt lat="48.41069" lon="5.36708">
        <ele>381.61</ele>
        <time>2025-01-04T14:16:48.447Z</time>
      </trkpt>
      <trkpt lat="48.41069" lon="5.36744">
        <ele>381.06</ele>
        <time>2025-01-04T14:16:51.700Z</time>
      </trkpt>
      <trkpt lat="48.4107" lon="5.36779">
        <ele>380.42</ele>
        <time>2025-01-04T14:16:54.957Z</time>
      </trkpt>
      <trkpt lat="48.41067" lon="5.36825">
        <ele>379.69</ele>
        <time>2025-01-04T14:16:58.219Z</time>
      </trkpt>
      <trkpt lat="48.41064" lon="5.3687">
        <ele>378.9</ele>
        <time>2025-01-04T14:17:01.485Z</time>
      </trkpt>
      <trkpt lat="48.41054" lon="5.36909">
        <ele>378</ele>
        <time>2025-01-04T14:17:04.756Z</time>
      </trkpt>
      <trkpt lat="48.41045" lon="5.36947">
        <ele>377.17</ele>
        <time>2025-01-04T14:17:08.031Z</time>
      </trkpt>
      <trkpt lat="48.41031" lon="5.36982">
        <ele>376.39</ele>
        <time>2025-01-04T14:17:11.310Z</time>
      </trkpt>
      <trkpt lat="48.41018" lon="5.37017">
        <ele>375.59</ele>
        <time>2025-01-04T14:17:14.594Z</time>
      </trkpt>
      <trkpt lat="48.41001" lon="5.37047">
        <ele>374.69</ele>
        <time>2025-01-04T14:17:17.882Z</time>
      </trkpt>
      <trkpt lat="48.40984" lon="5.37076">
        <ele>373.75</ele>
        <time>2025-01-04T14:17:21.174Z</time>
      </trkpt>
      <trkpt lat="48.40964" lon="5.37103">
        <ele>372.8</ele>
        <time>2025-01-04T14:17:24.470Z</time>
      </trkpt>
      <trkpt lat="48.40943" lon="5.3713">
        <ele>371.82</ele>
        <time>2025-01-04T14:17:27.771Z</time>
      </trkpt>
      <trkpt lat="48.40929" lon="5.37147">
        <ele>370.83</ele>
        <time>2025-01-04T14:17:31.075Z</time>
      </trkpt>
      <trkpt lat="48.40907" lon="5.37173">
        <ele>369.83</ele>
        <time>2025-01-04T14:17:34.383Z</time>
      </trkpt>
      <trkpt lat="48.40884" lon="5.372">
        <ele>368.84</ele>
        <time>2025-01-04T14:17:37.696Z</time>
      </trkpt>
      <trkpt lat="48.40869" lon="5.37218">
        <ele>367.9</ele>
        <time>2025-01-04T14:17:41.012Z</time>
      </trkpt>
      <trkpt lat="48.40847" lon="5.37244">
        <ele>366.91</ele>
        <time>2025-01-04T14:17:44.332Z</time>
      </trkpt>
      <trkpt lat="48.40824" lon="5.37271">
        <ele>365.91</ele>
        <time>2025-01-04T14:17:47.657Z</time>
      </trkpt>
      <trkpt lat="48.40809" lon="5.37289">
        <ele>364.98</ele>
        <time>2025-01-04T14:17:50.985Z</time>
      </trkpt>
      <trkpt lat="48.40786" lon="5.37316">
        <ele>364.1</ele>
        <time>2025-01-04T14:17:54.318Z</time>
      </trkpt>
      <trkpt lat="48.40762" lon="5.37343">
        <ele>363.19</ele>
        <time>2025-01-04T14:17:57.656Z</time>
      </trkpt>
      <trkpt lat="48.40747" lon="5.37361">
        <ele>362.35</ele>
        <time>2025-01-04T14:18:00.997Z</time>
      </trkpt>
      <trkpt lat="48.40732" lon="5.37379">
        <ele>361.53</ele>
        <time>2025-01-04T14:18:04.341Z</time>
      </trkpt>
      <trkpt lat="48.4071" lon="5.37405">
        <ele>360.78</ele>
        <time>2025-01-04T14:18:07.689Z</time>
      </trkpt>
      <trkpt lat="48.40688" lon="5.37431">
        <ele>360.05</ele>
        <time>2025-01-04T14:18:11.042Z</time>
      </trkpt>
      <trkpt lat="48.40666" lon="5.37457">
        <ele>359.29</ele>
        <time>2025-01-04T14:18:14.399Z</time>
      </trkpt>
      <trkpt lat="48.40644" lon="5.37482">
        <ele>358.68</ele>
        <time>2025-01-04T14:18:17.761Z</time>
      </trkpt>
      <trkpt lat="48.4063" lon="5.375">
        <ele>358.11</ele>
        <time>2025-01-04T14:18:21.126Z</time>
      </trkpt>
      <trkpt lat="48.40615" lon="5.37517">
        <ele>357.55</ele>
        <time>2025-01-04T14:18:24.494Z</time>
      </trkpt>
      <trkpt lat="48.40592" lon="5.37545">
        <ele>356.98</ele>
        <time>2025-01-04T14:18:27.866Z</time>
      </trkpt>
      <trkpt lat="48.40568" lon="5.37573">
        <ele>356.37</ele>
        <time>2025-01-04T14:18:31.243Z</time>
      </trkpt>
      <trkpt lat="48.40551" lon="5.37592">
        <ele>355.85</ele>
        <time>2025-01-04T14:18:34.624Z</time>
      </trkpt>
      <trkpt lat="48.40535" lon="5.37612">
        <ele>355.38</ele>
        <time>2025-01-04T14:18:38.008Z</time>
      </trkpt>
      <trkpt lat="48.40518" lon="5.37631">
        <ele>354.96</ele>
        <time>2025-01-04T14:18:41.395Z</time>
      </trkpt>
      <trkpt lat="48.40497" lon="5.37656">
        <ele>354.57</ele>
        <time>2025-01-04T14:18:44.787Z</time>
      </trkpt>
      <trkpt lat="48.40475" lon="5.37682">
        <ele>354.17</ele>
        <time>2025-01-04T14:18:48.183Z</time>
      </trkpt>
      <trkpt lat="48.40461" lon="5.37699">
        <ele>353.8</ele>
        <time>2025-01-04T14:18:51.582Z</time>
      </trkpt>
      <trkpt lat="48.40446" lon="5.37716">
        <ele>353.43</ele>
        <time>2025-01-04T14:18:54.984Z</time>
      </trkpt>
      <trkpt lat="48.40427" lon="5.37738">
        <ele>353.1</ele>
        <time>2025-01-04T14:18:58.390Z</time>
      </trkpt>
      <trkpt lat="48.40408" lon="5.3776">
        <ele>352.81</ele>
        <time>2025-01-04T14:19:01.800Z</time>
      </trkpt>
      <trkpt lat="48.40389" lon="5.37783">
        <ele>352.51</ele>
        <time>2025-01-04T14:19:05.213Z</time>
      </trkpt>
      <trkpt lat="48.4037" lon="5.37805">
        <ele>352.21</ele>
        <time>2025-01-04T14:19:08.630Z</time>
      </trkpt>
      <trkpt lat="48.40356" lon="5.37823">
        <ele>351.95</ele>
        <time>2025-01-04T14:19:12.050Z</time>
      </trkpt>
      <trkpt lat="48.40334" lon="5.37848">
        <ele>351.61</ele>
        <time>2025-01-04T14:19:15.475Z</time>
      </trkpt>
      <trkpt lat="48.40313" lon="5.37873">
        <ele>351.3</ele>
        <time>2025-01-04T14:19:18.904Z</time>
      </trkpt>
      <trkpt lat="48.40298" lon="5.3789">
        <ele>351.02</ele>
        <time>2025-01-04T14:19:22.336Z</time>
      </trkpt>
      <trkpt lat="48.40274" lon="5.37918">
        <ele>350.7</ele>
        <time>2025-01-04T14:19:25.773Z</time>
      </trkpt>
      <trkpt lat="48.4025" lon="5.37947">
        <ele>350.4</ele>
        <time>2025-01-04T14:19:29.215Z</time>
      </trkpt>
      <trkpt lat="48.40243" lon="5.37955">
        <ele>350.12</ele>
        <time>2025-01-04T14:19:32.658Z</time>
      </trkpt>
      <trkpt lat="48.4022" lon="5.37982">
        <ele>349.85</ele>
        <time>2025-01-04T14:19:36.106Z</time>
      </trkpt>
      <trkpt lat="48.40197" lon="5.38009">
        <ele>349.57</ele>
        <time>2025-01-04T14:19:39.559Z</time>
      </trkpt>
      <trkpt lat="48.40178" lon="5.38031">
        <ele>349.3</ele>
        <time>2025-01-04T14:19:43.015Z</time>
      </trkpt>
      <trkpt lat="48.40166" lon="5.38046">
        <ele>349.03</ele>
        <time>2025-01-04T14:19:46.474Z</time>
      </trkpt>
      <trkpt lat="48.4015" lon="5.38065">
        <ele>348.8</ele>
        <time>2025-01-04T14:19:49.936Z</time>
      </trkpt>
      <trkpt lat="48.40135" lon="5.38083">
        <ele>348.52</ele>
        <time>2025-01-04T14:19:53.401Z</time>
      </trkpt>
      <trkpt lat="48.40113" lon="5.38108">
        <ele>348.25</ele>
        <time>2025-01-04T14:19:56.871Z</time>
      </trkpt>
      <trkpt lat="48.40092" lon="5.38133">
        <ele>347.91</ele>
        <time>2025-01-04T14:20:00.345Z</time>
      </trkpt>
      <trkpt lat="48.40074" lon="5.3816">
        <ele>347.54</ele>
        <time>2025-01-04T14:20:03.823Z</time>
      </trkpt>
      <trkpt lat="48.40056" lon="5.38187">
        <ele>347.21</ele>
        <time>2025-01-04T14:20:07.305Z</time>
      </trkpt>
      <trkpt lat="48.40045" lon="5.38207">
        <ele>346.88</ele>
        <time>2025-01-04T14:20:10.790Z</time>
      </trkpt>
      <trkpt lat="48.40033" lon="5.38227">
        <ele>346.57</ele>
        <time>2025-01-04T14:20:14.278Z</time>
      </trkpt>
      <trkpt lat="48.40028" lon="5.38237">
        <ele>346.23</ele>
        <time>2025-01-04T14:20:17.767Z</time>
      </trkpt>
      <trkpt lat="48.40013" lon="5.38254">
        <ele>345.87</ele>
        <time>2025-01-04T14:20:21.259Z</time>
      </trkpt>
      <trkpt lat="48.39999" lon="5.38271">
        <ele>345.52</ele>
        <time>2025-01-04T14:20:24.754Z</time>
      </trkpt>
      <trkpt lat="48.3999" lon="5.38279">
        <ele>345.17</ele>
        <time>2025-01-04T14:20:28.251Z</time>
      </trkpt>
      <trkpt lat="48.39962" lon="5.38297">
        <ele>344.75</ele>
        <time>2025-01-04T14:20:31.753Z</time>
      </trkpt>
      <trkpt lat="48.39953" lon="5.38301">
        <ele>344.4</ele>
        <time>2025-01-04T14:20:35.256Z</time>
      </trkpt>
      <trkpt lat="48.39928" lon="5.38306">
        <ele>343.98</ele>
        <time>2025-01-04T14:20:38.763Z</time>
      </trkpt>
      <trkpt lat="48.39904" lon="5.38312">
        <ele>343.63</ele>
        <time>2025-01-04T14:20:42.274Z</time>
      </trkpt>
      <trkpt lat="48.39874" lon="5.38313">
        <ele>343.43</ele>
        <time>2025-01-04T14:20:45.790Z</time>
      </trkpt>
      <trkpt lat="48.39844" lon="5.38315">
        <ele>343.34</ele>
        <time>2025-01-04T14:20:49.311Z</time>
      </trkpt>
      <trkpt lat="48.39815" lon="5.38316">
        <ele>343.23</ele>
        <time>2025-01-04T14:20:52.836Z</time>
      </trkpt>
      <trkpt lat="48.39787" lon="5.38317">
        <ele>343.21</ele>
        <time>2025-01-04T14:20:56.366Z</time>
      </trkpt>
      <trkpt lat="48.3977" lon="5.38318">
        <ele>343.28</ele>
        <time>2025-01-04T14:20:59.899Z</time>
      </trkpt>
      <trkpt lat="48.39748" lon="5.38319">
        <ele>343.41</ele>
        <time>2025-01-04T14:21:03.435Z</time>
      </trkpt>
      <trkpt lat="48.39727" lon="5.3832">
        <ele>343.5</ele>
        <time>2025-01-04T14:21:06.974Z</time>
      </trkpt>
      <trkpt lat="48.39701" lon="5.38322">
        <ele>343.56</ele>
        <time>2025-01-04T14:21:10.518Z</time>
      </trkpt>
      <trkpt lat="48.39675" lon="5.38323">
        <ele>343.64</ele>
        <time>2025-01-04T14:21:14.066Z</time>
      </trkpt>
      <trkpt lat="48.39649" lon="5.38324">
        <ele>343.77</ele>
        <time>2025-01-04T14:21:17.618Z</time>
      </trkpt>
      <trkpt lat="48.39623" lon="5.38325">
        <ele>343.92</ele>
        <time>2025-01-04T14:21:21.174Z</time>
      </trkpt>
      <trkpt lat="48.39605" lon="5.38335">
        <ele>344.14</ele>
        <time>2025-01-04T14:21:24.733Z</time>
      </trkpt>
      <trkpt lat="48.39587" lon="5.38344">
        <ele>344.34</ele>
        <time>2025-01-04T14:21:28.295Z</time>
      </trkpt>
      <trkpt lat="48.3958" lon="5.38349">
        <ele>344.54</ele>
        <time>2025-01-04T14:21:31.858Z</time>
      </trkpt>
      <trkpt lat="48.39561" lon="5.38366">
        <ele>344.81</ele>
        <time>2025-01-04T14:21:35.425Z</time>
      </trkpt>
      <trkpt lat="48.3955" lon="5.3838">
        <ele>345.1</ele>
        <time>2025-01-04T14:21:38.994Z</time>
      </trkpt>
      <trkpt lat="48.39532" lon="5.38402">
        <ele>345.41</ele>
        <time>2025-01-04T14:21:42.567Z</time>
      </trkpt>
      <trkpt lat="48.39532" lon="5.38402">
        <ele>345.68</ele>
        <time>2025-01-04T14:21:46.140Z</time>
      </trkpt>
      <trkpt lat="48.39513" lon="5.38424">
        <ele>345.99</ele>
        <time>2025-01-04T14:21:49.717Z</time>
      </trkpt>
      <trkpt lat="48.39493" lon="5.38448">
        <ele>346.27</ele>
        <time>2025-01-04T14:21:53.298Z</time>
      </trkpt>
      <trkpt lat="48.39473" lon="5.38472">
        <ele>346.58</ele>
        <time>2025-01-04T14:21:56.883Z</time>
      </trkpt>
      <trkpt lat="48.39455" lon="5.38493">
        <ele>346.85</ele>
        <time>2025-01-04T14:22:00.472Z</time>
      </trkpt>
      <trkpt lat="48.39437" lon="5.38513">
        <ele>347.11</ele>
        <time>2025-01-04T14:22:04.064Z</time>
      </trkpt>
      <trkpt lat="48.39422" lon="5.3853">
        <ele>347.37</ele>
        <time>2025-01-04T14:22:07.659Z</time>
      </trkpt>
      <trkpt lat="48.39407" lon="5.38548">
        <ele>347.63</ele>
        <time>2025-01-04T14:22:11.257Z</time>
      </trkpt>
      <trkpt lat="48.39393" lon="5.38565">
        <ele>347.98</ele>
        <time>2025-01-04T14:22:14.858Z</time>
      </trkpt>
      <trkpt lat="48.39378" lon="5.38581">
        <ele>348.33</ele>
        <time>2025-01-04T14:22:18.462Z</time>
      </trkpt>
      <trkpt lat="48.39359" lon="5.38604">
        <ele>348.65</ele>
        <time>2025-01-04T14:22:22.070Z</time>
      </trkpt>
      <trkpt lat="48.39339" lon="5.38626">
        <ele>348.94</ele>
        <time>2025-01-04T14:22:25.682Z</time>
      </trkpt>
      <trkpt lat="48.39334" lon="5.38633">
        <ele>349.19</ele>
        <time>2025-01-04T14:22:29.295Z</time>
      </trkpt>
      <trkpt lat="48.39316" lon="5.38653">
        <ele>349.57</ele>
        <time>2025-01-04T14:22:32.912Z</time>
      </trkpt>
      <trkpt lat="48.39301" lon="5.38671">
        <ele>349.82</ele>
        <time>2025-01-04T14:22:36.532Z</time>
      </trkpt>
      <trkpt lat="48.39286" lon="5.38688">
        <ele>350.04</ele>
        <time>2025-01-04T14:22:40.155Z</time>
      </trkpt>
      <trkpt lat="48.3928" lon="5.38694">
        <ele>350.23</ele>
        <time>2025-01-04T14:22:43.779Z</time>
      </trkpt>
      <trkpt lat="48.39265" lon="5.38713">
        <ele>350.32</ele>
        <time>2025-01-04T14:22:47.406Z</time>
      </trkpt>
      <trkpt lat="48.39249" lon="5.38731">
        <ele>350.43</ele>
        <time>2025-01-04T14:22:51.036Z</time>
      </trkpt>
      <trkpt lat="48.39231" lon="5.38743">
        <ele>350.55</ele>
        <time>2025-01-04T14:22:54.669Z</time>
      </trkpt>
      <trkpt lat="48.39218" lon="5.38745">
        <ele>350.66</ele>
        <time>2025-01-04T14:22:58.304Z</time>
      </trkpt>
      <trkpt lat="48.39211" lon="5.38746">
        <ele>350.82</ele>
        <time>2025-01-04T14:23:01.941Z</time>
      </trkpt>
      <trkpt lat="48.39194" lon="5.38748">
        <ele>350.98</ele>
        <time>2025-01-04T14:23:05.580Z</time>
      </trkpt>
      <trkpt lat="48.39176" lon="5.3875">
        <ele>351.16</ele>
        <time>2025-01-04T14:23:09.222Z</time>
      </trkpt>
      <trkpt lat="48.39146" lon="5.38749">
        <ele>351.38</ele>
        <time>2025-01-04T14:23:12.869Z</time>
      </trkpt>
      <trkpt lat="48.39117" lon="5.38748">
        <ele>351.56</ele>
        <time>2025-01-04T14:23:16.521Z</time>
      </trkpt>
      <trkpt lat="48.39087" lon="5.38747">
        <ele>351.76</ele>
        <time>2025-01-04T14:23:20.177Z</time>
      </trkpt>
      <trkpt lat="48.3908" lon="5.38747">
        <ele>351.94</ele>
        <time>2025-01-04T14:23:23.835Z</time>
      </trkpt>
      <trkpt lat="48.39063" lon="5.38747">
        <ele>352.17</ele>
        <time>2025-01-04T14:23:27.495Z</time>
      </trkpt>
      <trkpt lat="48.39045" lon="5.38746">
        <ele>352.36</ele>
        <time>2025-01-04T14:23:31.158Z</time>
      </trkpt>
      <trkpt lat="48.39028" lon="5.38745">
        <ele>352.49</ele>
        <time>2025-01-04T14:23:34.824Z</time>
      </trkpt>
      <trkpt lat="48.39011" lon="5.38745">
        <ele>352.64</ele>
        <time>2025-01-04T14:23:38.493Z</time>
      </trkpt>
      <trkpt lat="48.38985" lon="5.3875">
        <ele>352.83</ele>
        <time>2025-01-04T14:23:42.166Z</time>
      </trkpt>
      <trkpt lat="48.38959" lon="5.38756">
        <ele>353.03</ele>
        <time>2025-01-04T14:23:45.843Z</time>
      </trkpt>
      <trkpt lat="48.38942" lon="5.38763">
        <ele>353.2</ele>
        <time>2025-01-04T14:23:49.523Z</time>
      </trkpt>
      <trkpt lat="48.38924" lon="5.3877">
        <ele>353.33</ele>
        <time>2025-01-04T14:23:53.206Z</time>
      </trkpt>
      <trkpt lat="48.38909" lon="5.38793">
        <ele>353.42</ele>
        <time>2025-01-04T14:23:56.892Z</time>
      </trkpt>
      <trkpt lat="48.38893" lon="5.38815">
        <ele>353.52</ele>
        <time>2025-01-04T14:24:00.582Z</time>
      </trkpt>
      <trkpt lat="48.38872" lon="5.38845">
        <ele>353.69</ele>
        <time>2025-01-04T14:24:04.276Z</time>
      </trkpt>
      <trkpt lat="48.38852" lon="5.38874">
        <ele>353.86</ele>
        <time>2025-01-04T14:24:07.975Z</time>
      </trkpt>
      <trkpt lat="48.38847" lon="5.38881">
        <ele>354</ele>
        <time>2025-01-04T14:24:11.675Z</time>
      </trkpt>
      <trkpt lat="48.38827" lon="5.3891">
        <ele>354.16</ele>
        <time>2025-01-04T14:24:15.379Z</time>
      </trkpt>
      <trkpt lat="48.38807" lon="5.38938">
        <ele>354.27</ele>
        <time>2025-01-04T14:24:19.088Z</time>
      </trkpt>
      <trkpt lat="48.38794" lon="5.38962">
        <ele>354.37</ele>
        <time>2025-01-04T14:24:22.800Z</time>
      </trkpt>
      <trkpt lat="48.38789" lon="5.38981">
        <ele>354.49</ele>
        <time>2025-01-04T14:24:26.514Z</time>
      </trkpt>
      <trkpt lat="48.38785" lon="5.39011">
        <ele>354.56</ele>
        <time>2025-01-04T14:24:30.231Z</time>
      </trkpt>
      <trkpt lat="48.38781" lon="5.39041">
        <ele>354.61</ele>
        <time>2025-01-04T14:24:33.952Z</time>
      </trkpt>
      <trkpt lat="48.38779" lon="5.3907">
        <ele>354.66</ele>
        <time>2025-01-04T14:24:37.676Z</time>
      </trkpt>
      <trkpt lat="48.38777" lon="5.39099">
        <ele>354.74</ele>
        <time>2025-01-04T14:24:41.403Z</time>
      </trkpt>
      <trkpt lat="48.38777" lon="5.39128">
        <ele>354.9</ele>
        <time>2025-01-04T14:24:45.133Z</time>
      </trkpt>
      <trkpt lat="48.38778" lon="5.39158">
        <ele>355.03</ele>
        <time>2025-01-04T14:24:48.866Z</time>
      </trkpt>
      <trkpt lat="48.38778" lon="5.39168">
        <ele>355.09</ele>
        <time>2025-01-04T14:24:52.600Z</time>
      </trkpt>
      <trkpt lat="48.3878" lon="5.39199">
        <ele>355.13</ele>
        <time>2025-01-04T14:24:56.338Z</time>
      </trkpt>
      <trkpt lat="48.38768" lon="5.3923">
        <ele>355.09</ele>
        <time>2025-01-04T14:25:00.079Z</time>
      </trkpt>
      <trkpt lat="48.38764" lon="5.39238">
        <ele>355.08</ele>
        <time>2025-01-04T14:25:03.822Z</time>
      </trkpt>
      <trkpt lat="48.38759" lon="5.39246">
        <ele>355.08</ele>
        <time>2025-01-04T14:25:07.566Z</time>
      </trkpt>
      <trkpt lat="48.38747" lon="5.39259">
        <ele>355.07</ele>
        <time>2025-01-04T14:25:11.312Z</time>
      </trkpt>
      <trkpt lat="48.3874" lon="5.39262">
        <ele>355.05</ele>
        <time>2025-01-04T14:25:15.059Z</time>
      </trkpt>
      <trkpt lat="48.3872" lon="5.39271">
        <ele>355.02</ele>
        <time>2025-01-04T14:25:18.810Z</time>
      </trkpt>
      <trkpt lat="48.38713" lon="5.39272">
        <ele>354.98</ele>
        <time>2025-01-04T14:25:22.562Z</time>
      </trkpt>
      <trkpt lat="48.38691" lon="5.39276">
        <ele>354.93</ele>
        <time>2025-01-04T14:25:26.317Z</time>
      </trkpt>
      <trkpt lat="48.38662" lon="5.39282">
        <ele>354.9</ele>
        <time>2025-01-04T14:25:30.077Z</time>
      </trkpt>
      <trkpt lat="48.38654" lon="5.39283">
        <ele>354.84</ele>
        <time>2025-01-04T14:25:33.838Z</time>
      </trkpt>
      <trkpt lat="48.38637" lon="5.39287">
        <ele>354.78</ele>
        <time>2025-01-04T14:25:37.602Z</time>
      </trkpt>
      <trkpt lat="48.3862" lon="5.39291">
        <ele>354.74</ele>
        <time>2025-01-04T14:25:41.369Z</time>
      </trkpt>
      <trkpt lat="48.38594" lon="5.393">
        <ele>354.64</ele>
        <time>2025-01-04T14:25:45.140Z</time>
      </trkpt>
      <trkpt lat="48.38581" lon="5.39305">
        <ele>354.57</ele>
        <time>2025-01-04T14:25:48.913Z</time>
      </trkpt>
      <trkpt lat="48.38563" lon="5.39317">
        <ele>354.47</ele>
        <time>2025-01-04T14:25:52.689Z</time>
      </trkpt>
      <trkpt lat="48.38545" lon="5.39328">
        <ele>354.33</ele>
        <time>2025-01-04T14:25:56.468Z</time>
      </trkpt>
      <trkpt lat="48.38539" lon="5.39333">
        <ele>354.26</ele>
        <time>2025-01-04T14:26:00.248Z</time>
      </trkpt>
      <trkpt lat="48.38522" lon="5.39349">
        <ele>354.23</ele>
        <time>2025-01-04T14:26:04.032Z</time>
      </trkpt>
      <trkpt lat="48.38504" lon="5.39369">
        <ele>354.18</ele>
        <time>2025-01-04T14:26:07.819Z</time>
      </trkpt>
      <trkpt lat="48.38486" lon="5.39389">
        <ele>354.08</ele>
        <time>2025-01-04T14:26:11.610Z</time>
      </trkpt>
      <trkpt lat="48.38477" lon="5.39414">
        <ele>354.05</ele>
        <time>2025-01-04T14:26:15.404Z</time>
      </trkpt>
      <trkpt lat="48.38468" lon="5.3944">
        <ele>353.99</ele>
        <time>2025-01-04T14:26:19.201Z</time>
      </trkpt>
      <trkpt lat="48.38463" lon="5.39467">
        <ele>353.95</ele>
        <time>2025-01-04T14:26:23.001Z</time>
      </trkpt>
      <trkpt lat="48.38458" lon="5.39494">
        <ele>354.01</ele>
        <time>2025-01-04T14:26:26.804Z</time>
      </trkpt>
      <trkpt lat="48.38454" lon="5.39524">
        <ele>354.1</ele>
        <time>2025-01-04T14:26:30.610Z</time>
      </trkpt>
      <trkpt lat="48.38449" lon="5.39554">
        <ele>354.22</ele>
        <time>2025-01-04T14:26:34.420Z</time>
      </trkpt>
      <trkpt lat="48.38442" lon="5.39583">
        <ele>354.36</ele>
        <time>2025-01-04T14:26:38.233Z</time>
      </trkpt>
      <trkpt lat="48.38435" lon="5.39613">
        <ele>354.55</ele>
        <time>2025-01-04T14:26:42.049Z</time>
      </trkpt>
      <trkpt lat="48.38423" lon="5.39634">
        <ele>354.67</ele>
        <time>2025-01-04T14:26:45.868Z</time>
      </trkpt>
      <trkpt lat="48.38417" lon="5.3964">
        <ele>354.82</ele>
        <time>2025-01-04T14:26:49.688Z</time>
      </trkpt>
      <trkpt lat="48.38412" lon="5.39647">
        <ele>354.98</ele>
        <time>2025-01-04T14:26:53.509Z</time>
      </trkpt>
      <trkpt lat="48.3839" lon="5.39674">
        <ele>355.16</ele>
        <time>2025-01-04T14:26:57.335Z</time>
      </trkpt>
      <trkpt lat="48.38373" lon="5.39694">
        <ele>355.4</ele>
        <time>2025-01-04T14:27:01.164Z</time>
      </trkpt>
      <trkpt lat="48.38357" lon="5.39713">
        <ele>355.65</ele>
        <time>2025-01-04T14:27:04.997Z</time>
      </trkpt>
      <trkpt lat="48.38338" lon="5.39736">
        <ele>355.95</ele>
        <time>2025-01-04T14:27:08.834Z</time>
      </trkpt>
      <trkpt lat="48.3832" lon="5.39758">
        <ele>356.26</ele>
        <time>2025-01-04T14:27:12.674Z</time>
      </trkpt>
      <trkpt lat="48.38303" lon="5.39778">
        <ele>356.58</ele>
        <time>2025-01-04T14:27:16.518Z</time>
      </trkpt>
      <trkpt lat="48.38287" lon="5.39798">
        <ele>356.93</ele>
        <time>2025-01-04T14:27:20.365Z</time>
      </trkpt>
      <trkpt lat="48.38268" lon="5.39821">
        <ele>357.27</ele>
        <time>2025-01-04T14:27:24.216Z</time>
      </trkpt>
      <trkpt lat="48.38249" lon="5.39843">
        <ele>357.62</ele>
        <time>2025-01-04T14:27:28.071Z</time>
      </trkpt>
      <trkpt lat="48.38227" lon="5.39872">
        <ele>358.02</ele>
        <time>2025-01-04T14:27:31.931Z</time>
      </trkpt>
      <trkpt lat="48.38204" lon="5.39901">
        <ele>358.42</ele>
        <time>2025-01-04T14:27:35.795Z</time>
      </trkpt>
      <trkpt lat="48.3819" lon="5.39926">
        <ele>358.79</ele>
        <time>2025-01-04T14:27:39.663Z</time>
      </trkpt>
      <trkpt lat="48.38177" lon="5.39952">
        <ele>359.28</ele>
        <time>2025-01-04T14:27:43.534Z</time>
      </trkpt>
      <trkpt lat="48.38163" lon="5.39993">
        <ele>359.81</ele>
        <time>2025-01-04T14:27:47.410Z</time>
      </trkpt>
      <trkpt lat="48.38158" lon="5.40037">
        <ele>360.36</ele>
        <time>2025-01-04T14:27:51.291Z</time>
      </trkpt>
      <trkpt lat="48.38157" lon="5.40046">
        <ele>360.89</ele>
        <time>2025-01-04T14:27:55.173Z</time>
      </trkpt>
      <trkpt lat="48.38154" lon="5.40079">
        <ele>361.49</ele>
        <time>2025-01-04T14:27:59.059Z</time>
      </trkpt>
      <trkpt lat="48.3815" lon="5.40112">
        <ele>362.03</ele>
        <time>2025-01-04T14:28:02.948Z</time>
      </trkpt>
      <trkpt lat="48.38149" lon="5.4013">
        <ele>362.56</ele>
        <time>2025-01-04T14:28:06.839Z</time>
      </trkpt>
      <trkpt lat="48.38146" lon="5.40157">
        <ele>363.09</ele>
        <time>2025-01-04T14:28:10.733Z</time>
      </trkpt>
      <trkpt lat="48.38139" lon="5.40181">
        <ele>363.63</ele>
        <time>2025-01-04T14:28:14.630Z</time>
      </trkpt>
      <trkpt lat="48.38132" lon="5.40205">
        <ele>364.25</ele>
        <time>2025-01-04T14:28:18.530Z</time>
      </trkpt>
      <trkpt lat="48.38122" lon="5.40224">
        <ele>364.9</ele>
        <time>2025-01-04T14:28:22.432Z</time>
      </trkpt>
      <trkpt lat="48.38113" lon="5.40244">
        <ele>365.53</ele>
        <time>2025-01-04T14:28:26.337Z</time>
      </trkpt>
      <trkpt lat="48.38092" lon="5.40278">
        <ele>366.3</ele>
        <time>2025-01-04T14:28:30.247Z</time>
      </trkpt>
      <trkpt lat="48.38089" lon="5.40283">
        <ele>366.93</ele>
        <time>2025-01-04T14:28:34.157Z</time>
      </trkpt>
      <trkpt lat="48.38083" lon="5.40293">
        <ele>367.57</ele>
        <time>2025-01-04T14:28:38.069Z</time>
      </trkpt>
      <trkpt lat="48.38067" lon="5.40318">
        <ele>368.22</ele>
        <time>2025-01-04T14:28:41.984Z</time>
      </trkpt>
      <trkpt lat="48.38054" lon="5.40343">
        <ele>368.77</ele>
        <time>2025-01-04T14:28:45.903Z</time>
      </trkpt>
      <trkpt lat="48.38051" lon="5.40349">
        <ele>369.35</ele>
        <time>2025-01-04T14:28:49.823Z</time>
      </trkpt>
      <trkpt lat="48.38043" lon="5.40365">
        <ele>369.95</ele>
        <time>2025-01-04T14:28:53.745Z</time>
      </trkpt>
      <trkpt lat="48.38038" lon="5.40376">
        <ele>370.55</ele>
        <time>2025-01-04T14:28:57.668Z</time>
      </trkpt>
      <trkpt lat="48.38023" lon="5.40408">
        <ele>371.11</ele>
        <time>2025-01-04T14:29:01.595Z</time>
      </trkpt>
      <trkpt lat="48.3801" lon="5.40435">
        <ele>371.7</ele>
        <time>2025-01-04T14:29:05.526Z</time>
      </trkpt>
      <trkpt lat="48.37999" lon="5.40458">
        <ele>372.28</ele>
        <time>2025-01-04T14:29:09.460Z</time>
      </trkpt>
      <trkpt lat="48.3799" lon="5.40476">
        <ele>372.84</ele>
        <time>2025-01-04T14:29:13.396Z</time>
      </trkpt>
      <trkpt lat="48.37981" lon="5.40495">
        <ele>373.4</ele>
        <time>2025-01-04T14:29:17.335Z</time>
      </trkpt>
      <trkpt lat="48.3797" lon="5.40517">
        <ele>373.96</ele>
        <time>2025-01-04T14:29:21.277Z</time>
      </trkpt>
      <trkpt lat="48.37952" lon="5.40555">
        <ele>374.55</ele>
        <time>2025-01-04T14:29:25.224Z</time>
      </trkpt>
      <trkpt lat="48.37949" lon="5.4056">
        <ele>375.06</ele>
        <time>2025-01-04T14:29:29.172Z</time>
      </trkpt>
      <trkpt lat="48.37935" lon="5.40581">
        <ele>375.57</ele>
        <time>2025-01-04T14:29:33.123Z</time>
      </trkpt>
      <trkpt lat="48.37932" lon="5.40586">
        <ele>376.05</ele>
        <time>2025-01-04T14:29:37.074Z</time>
      </trkpt>
      <trkpt lat="48.37926" lon="5.40596">
        <ele>376.54</ele>
        <time>2025-01-04T14:29:41.027Z</time>
      </trkpt>
      <trkpt lat="48.37919" lon="5.40606">
        <ele>376.98</ele>
        <time>2025-01-04T14:29:44.981Z</time>
      </trkpt>
      <trkpt lat="48.379" lon="5.40628">
        <ele>377.46</ele>
        <time>2025-01-04T14:29:48.939Z</time>
      </trkpt>
      <trkpt lat="48.37896" lon="5.40631">
        <ele>377.86</ele>
        <time>2025-01-04T14:29:52.898Z</time>
      </trkpt>
      <trkpt lat="48.37885" lon="5.40641">
        <ele>378.25</ele>
        <time>2025-01-04T14:29:56.859Z</time>
      </trkpt>
      <trkpt lat="48.37873" lon="5.40652">
        <ele>378.63</ele>
        <time>2025-01-04T14:30:00.822Z</time>
      </trkpt>
      <trkpt lat="48.37869" lon="5.40656">
        <ele>378.99</ele>
        <time>2025-01-04T14:30:04.786Z</time>
      </trkpt>
      <trkpt lat="48.37857" lon="5.40667">
        <ele>379.34</ele>
        <time>2025-01-04T14:30:08.752Z</time>
      </trkpt>
      <trkpt lat="48.37841" lon="5.40681">
        <ele>379.63</ele>
        <time>2025-01-04T14:30:12.721Z</time>
      </trkpt>
      <trkpt lat="48.37825" lon="5.40696">
        <ele>379.93</ele>
        <time>2025-01-04T14:30:16.693Z</time>
      </trkpt>
      <trkpt lat="48.37821" lon="5.407">
        <ele>380.23</ele>
        <time>2025-01-04T14:30:20.666Z</time>
      </trkpt>
      <trkpt lat="48.37807" lon="5.40713">
        <ele>380.51</ele>
        <time>2025-01-04T14:30:24.642Z</time>
      </trkpt>
      <trkpt lat="48.37788" lon="5.40735">
        <ele>380.77</ele>
        <time>2025-01-04T14:30:28.621Z</time>
      </trkpt>
      <trkpt lat="48.3777" lon="5.40756">
        <ele>381.05</ele>
        <time>2025-01-04T14:30:32.604Z</time>
      </trkpt>
      <trkpt lat="48.37764" lon="5.40764">
        <ele>381.31</ele>
        <time>2025-01-04T14:30:36.588Z</time>
      </trkpt>
      <trkpt lat="48.37757" lon="5.40772">
        <ele>381.57</ele>
        <time>2025-01-04T14:30:40.574Z</time>
      </trkpt>
      <trkpt lat="48.37733" lon="5.40788">
        <ele>381.85</ele>
        <time>2025-01-04T14:30:44.564Z</time>
      </trkpt>
      <trkpt lat="48.37724" lon="5.40793">
        <ele>382.09</ele>
        <time>2025-01-04T14:30:48.555Z</time>
      </trkpt>
      <trkpt lat="48.37708" lon="5.40803">
        <ele>382.29</ele>
        <time>2025-01-04T14:30:52.549Z</time>
      </trkpt>
      <trkpt lat="48.37682" lon="5.40813">
        <ele>382.46</ele>
        <time>2025-01-04T14:30:56.548Z</time>
      </trkpt>
      <trkpt lat="48.37666" lon="5.40818">
        <ele>382.64</ele>
        <time>2025-01-04T14:31:00.549Z</time>
      </trkpt>
      <trkpt lat="48.3765" lon="5.40822">
        <ele>382.81</ele>
        <time>2025-01-04T14:31:04.553Z</time>
      </trkpt>
      <trkpt lat="48.37633" lon="5.40827">
        <ele>382.97</ele>
        <time>2025-01-04T14:31:08.560Z</time>
      </trkpt>
      <trkpt lat="48.37615" lon="5.40832">
        <ele>383.08</ele>
        <time>2025-01-04T14:31:12.569Z</time>
      </trkpt>
      <trkpt lat="48.376" lon="5.40838">
        <ele>383.16</ele>
        <time>2025-01-04T14:31:16.581Z</time>
      </trkpt>
      <trkpt lat="48.37585" lon="5.40845">
        <ele>383.23</ele>
        <time>2025-01-04T14:31:20.596Z</time>
      </trkpt>
      <trkpt lat="48.37568" lon="5.40856">
        <ele>383.31</ele>
        <time>2025-01-04T14:31:24.614Z</time>
      </trkpt>
      <trkpt lat="48.37559" lon="5.40862">
        <ele>383.36</ele>
        <time>2025-01-04T14:31:28.633Z</time>
      </trkpt>
      <trkpt lat="48.37546" lon="5.40876">
        <ele>383.35</ele>
        <time>2025-01-04T14:31:32.655Z</time>
      </trkpt>
      <trkpt lat="48.3753" lon="5.40899">
        <ele>383.35</ele>
        <time>2025-01-04T14:31:36.680Z</time>
      </trkpt>
      <trkpt lat="48.37512" lon="5.40929">
        <ele>383.27</ele>
        <time>2025-01-04T14:31:40.709Z</time>
      </trkpt>
      <trkpt lat="48.37494" lon="5.40959">
        <ele>383.1</ele>
        <time>2025-01-04T14:31:44.743Z</time>
      </trkpt>
      <trkpt lat="48.3749" lon="5.40966">
        <ele>382.89</ele>
        <time>2025-01-04T14:31:48.778Z</time>
      </trkpt>
      <trkpt lat="48.37475" lon="5.40993">
        <ele>382.65</ele>
        <time>2025-01-04T14:31:52.817Z</time>
      </trkpt>
      <trkpt lat="48.3746" lon="5.41021">
        <ele>382.32</ele>
        <time>2025-01-04T14:31:56.859Z</time>
      </trkpt>
      <trkpt lat="48.37446" lon="5.41044">
        <ele>381.97</ele>
        <time>2025-01-04T14:32:00.905Z</time>
      </trkpt>
      <trkpt lat="48.37431" lon="5.41066">
        <ele>381.47</ele>
        <time>2025-01-04T14:32:04.954Z</time>
      </trkpt>
      <trkpt lat="48.37417" lon="5.41086">
        <ele>380.93</ele>
        <time>2025-01-04T14:32:09.006Z</time>
      </trkpt>
      <trkpt lat="48.37404" lon="5.41106">
        <ele>380.31</ele>
        <time>2025-01-04T14:32:13.061Z</time>
      </trkpt>
      <trkpt lat="48.37399" lon="5.41112">
        <ele>379.64</ele>
        <time>2025-01-04T14:32:17.117Z</time>
      </trkpt>
      <trkpt lat="48.37384" lon="5.41131">
        <ele>378.92</ele>
        <time>2025-01-04T14:32:21.176Z</time>
      </trkpt>
      <trkpt lat="48.37368" lon="5.4115">
        <ele>378.06</ele>
        <time>2025-01-04T14:32:25.239Z</time>
      </trkpt>
      <trkpt lat="48.37347" lon="5.41168">
        <ele>377.15</ele>
        <time>2025-01-04T14:32:29.306Z</time>
      </trkpt>
      <trkpt lat="48.37325" lon="5.41187">
        <ele>376.08</ele>
        <time>2025-01-04T14:32:33.376Z</time>
      </trkpt>
      <trkpt lat="48.3731" lon="5.41208">
        <ele>375.02</ele>
        <time>2025-01-04T14:32:37.450Z</time>
      </trkpt>
      <trkpt lat="48.37295" lon="5.4123">
        <ele>373.9</ele>
        <time>2025-01-04T14:32:41.527Z</time>
      </trkpt>
      <trkpt lat="48.37289" lon="5.4124">
        <ele>372.85</ele>
        <time>2025-01-04T14:32:45.606Z</time>
      </trkpt>
      <trkpt lat="48.37283" lon="5.4125">
        <ele>371.78</ele>
        <time>2025-01-04T14:32:49.686Z</time>
      </trkpt>
      <trkpt lat="48.37275" lon="5.41277">
        <ele>370.65</ele>
        <time>2025-01-04T14:32:53.769Z</time>
      </trkpt>
      <trkpt lat="48.37266" lon="5.41312">
        <ele>369.57</ele>
        <time>2025-01-04T14:32:57.856Z</time>
      </trkpt>
      <trkpt lat="48.37258" lon="5.41346">
        <ele>368.55</ele>
        <time>2025-01-04T14:33:01.947Z</time>
      </trkpt>
      <trkpt lat="48.37247" lon="5.41373">
        <ele>367.5</ele>
        <time>2025-01-04T14:33:06.041Z</time>
      </trkpt>
      <trkpt lat="48.37242" lon="5.41387">
        <ele>366.52</ele>
        <time>2025-01-04T14:33:10.137Z</time>
      </trkpt>
      <trkpt lat="48.37235" lon="5.41397">
        <ele>365.58</ele>
        <time>2025-01-04T14:33:14.235Z</time>
      </trkpt>
      <trkpt lat="48.37212" lon="5.41426">
        <ele>364.61</ele>
        <time>2025-01-04T14:33:18.337Z</time>
      </trkpt>
      <trkpt lat="48.37189" lon="5.41447">
        <ele>363.74</ele>
        <time>2025-01-04T14:33:22.444Z</time>
      </trkpt>
      <trkpt lat="48.37165" lon="5.41468">
        <ele>363.01</ele>
        <time>2025-01-04T14:33:26.555Z</time>
      </trkpt>
      <trkpt lat="48.37153" lon="5.41478">
        <ele>362.35</ele>
        <time>2025-01-04T14:33:30.668Z</time>
      </trkpt>
      <trkpt lat="48.37144" lon="5.41486">
        <ele>361.77</ele>
        <time>2025-01-04T14:33:34.783Z</time>
      </trkpt>
      <trkpt lat="48.37132" lon="5.41479">
        <ele>361.24</ele>
        <time>2025-01-04T14:33:38.900Z</time>
      </trkpt>
      <trkpt lat="48.37125" lon="5.41468">
        <ele>360.78</ele>
        <time>2025-01-04T14:33:43.019Z</time>
      </trkpt>
      <trkpt lat="48.3711" lon="5.41446">
        <ele>360.44</ele>
        <time>2025-01-04T14:33:47.141Z</time>
      </trkpt>
      <trkpt lat="48.37107" lon="5.41442">
        <ele>360.19</ele>
        <time>2025-01-04T14:33:51.264Z</time>
      </trkpt>
      <trkpt lat="48.37102" lon="5.41437">
        <ele>360.02</ele>
        <time>2025-01-04T14:33:55.388Z</time>
      </trkpt>
      <trkpt lat="48.371" lon="5.41433">
        <ele>359.94</ele>
        <time>2025-01-04T14:33:59.512Z</time>
      </trkpt>
      <trkpt lat="48.37097" lon="5.4143">
        <ele>359.94</ele>
        <time>2025-01-04T14:34:03.637Z</time>
      </trkpt>
      <trkpt lat="48.37087" lon="5.41418">
        <ele>360.03</ele>
        <time>2025-01-04T14:34:07.764Z</time>
      </trkpt>
      <trkpt lat="48.37078" lon="5.41407">
        <ele>360.21</ele>
        <time>2025-01-04T14:34:11.893Z</time>
      </trkpt>
      <trkpt lat="48.37064" lon="5.41391">
        <ele>360.51</ele>
        <time>2025-01-04T14:34:16.025Z</time>
      </trkpt>
      <trkpt lat="48.37044" lon="5.41373">
        <ele>360.9</ele>
        <time>2025-01-04T14:34:20.160Z</time>
      </trkpt>
      <trkpt lat="48.37029" lon="5.41359">
        <ele>361.36</ele>
        <time>2025-01-04T14:34:24.298Z</time>
      </trkpt>
      <trkpt lat="48.37017" lon="5.41346">
        <ele>361.85</ele>
        <time>2025-01-04T14:34:28.438Z</time>
      </trkpt>
      <trkpt lat="48.37004" lon="5.4133">
        <ele>362.4</ele>
        <time>2025-01-04T14:34:32.581Z</time>
      </trkpt>
      <trkpt lat="48.36985" lon="5.4132">
        <ele>363.03</ele>
        <time>2025-01-04T14:34:36.727Z</time>
      </trkpt>
      <trkpt lat="48.36966" lon="5.41331">
        <ele>363.8</ele>
        <time>2025-01-04T14:34:40.877Z</time>
      </trkpt>
      <trkpt lat="48.3695" lon="5.41334">
        <ele>364.54</ele>
        <time>2025-01-04T14:34:45.029Z</time>
      </trkpt>
      <trkpt lat="48.36943" lon="5.4133">
        <ele>365.27</ele>
        <time>2025-01-04T14:34:49.182Z</time>
      </trkpt>
      <trkpt lat="48.36935" lon="5.41327">
        <ele>366.05</ele>
        <time>2025-01-04T14:34:53.337Z</time>
      </trkpt>
      <trkpt lat="48.36923" lon="5.41322">
        <ele>366.89</ele>
        <time>2025-01-04T14:34:57.494Z</time>
      </trkpt>
      <trkpt lat="48.36896" lon="5.41311">
        <ele>367.8</ele>
        <time>2025-01-04T14:35:01.655Z</time>
      </trkpt>
      <trkpt lat="48.36872" lon="5.41301">
        <ele>368.65</ele>
        <time>2025-01-04T14:35:05.820Z</time>
      </trkpt>
      <trkpt lat="48.36842" lon="5.41289">
        <ele>369.51</ele>
        <time>2025-01-04T14:35:09.990Z</time>
      </trkpt>
      <trkpt lat="48.3682" lon="5.41281">
        <ele>370.4</ele>
        <time>2025-01-04T14:35:14.164Z</time>
      </trkpt>
      <trkpt lat="48.36804" lon="5.41267">
        <ele>371.3</ele>
        <time>2025-01-04T14:35:18.341Z</time>
      </trkpt>
      <trkpt lat="48.36796" lon="5.41261">
        <ele>372.2</ele>
        <time>2025-01-04T14:35:22.519Z</time>
      </trkpt>
      <trkpt lat="48.36775" lon="5.41243">
        <ele>373.1</ele>
        <time>2025-01-04T14:35:26.701Z</time>
      </trkpt>
      <trkpt lat="48.36768" lon="5.41235">
        <ele>374.04</ele>
        <time>2025-01-04T14:35:30.884Z</time>
      </trkpt>
      <trkpt lat="48.36745" lon="5.41204">
        <ele>375</ele>
        <time>2025-01-04T14:35:35.072Z</time>
      </trkpt>
      <trkpt lat="48.36726" lon="5.41178">
        <ele>376</ele>
        <time>2025-01-04T14:35:39.264Z</time>
      </trkpt>
      <trkpt lat="48.36704" lon="5.41152">
        <ele>377.04</ele>
        <time>2025-01-04T14:35:43.461Z</time>
      </trkpt>
      <trkpt lat="48.36684" lon="5.41129">
        <ele>378.13</ele>
        <time>2025-01-04T14:35:47.662Z</time>
      </trkpt>
      <trkpt lat="48.36676" lon="5.41121">
        <ele>379.2</ele>
        <time>2025-01-04T14:35:51.865Z</time>
      </trkpt>
      <trkpt lat="48.36652" lon="5.41101">
        <ele>380.31</ele>
        <time>2025-01-04T14:35:56.072Z</time>
      </trkpt>
      <trkpt lat="48.36631" lon="5.41091">
        <ele>381.4</ele>
        <time>2025-01-04T14:36:00.282Z</time>
      </trkpt>
      <trkpt lat="48.36611" lon="5.4108">
        <ele>382.5</ele>
        <time>2025-01-04T14:36:04.496Z</time>
      </trkpt>
      <trkpt lat="48.36595" lon="5.41073">
        <ele>383.61</ele>
        <time>2025-01-04T14:36:08.712Z</time>
      </trkpt>
      <trkpt lat="48.3658" lon="5.41066">
        <ele>384.73</ele>
        <time>2025-01-04T14:36:12.931Z</time>
      </trkpt>
      <trkpt lat="48.3656" lon="5.41056">
        <ele>385.93</ele>
        <time>2025-01-04T14:36:17.153Z</time>
      </trkpt>
      <trkpt lat="48.3654" lon="5.41047">
        <ele>387.11</ele>
        <time>2025-01-04T14:36:21.379Z</time>
      </trkpt>
      <trkpt lat="48.36523" lon="5.41039">
        <ele>388.25</ele>
        <time>2025-01-04T14:36:25.608Z</time>
      </trkpt>
      <trkpt lat="48.36505" lon="5.41031">
        <ele>389.42</ele>
        <time>2025-01-04T14:36:29.840Z</time>
      </trkpt>
      <trkpt lat="48.36485" lon="5.41021">
        <ele>390.6</ele>
        <time>2025-01-04T14:36:34.075Z</time>
      </trkpt>
      <trkpt lat="48.36458" lon="5.41001">
        <ele>391.79</ele>
        <time>2025-01-04T14:36:38.315Z</time>
      </trkpt>
      <trkpt lat="48.36438" lon="5.40985">
        <ele>392.91</ele>
        <time>2025-01-04T14:36:42.558Z</time>
      </trkpt>
      <trkpt lat="48.36419" lon="5.40971">
        <ele>394</ele>
        <time>2025-01-04T14:36:46.805Z</time>
      </trkpt>
      <trkpt lat="48.36406" lon="5.4096">
        <ele>395.03</ele>
        <time>2025-01-04T14:36:51.054Z</time>
      </trkpt>
      <trkpt lat="48.3639" lon="5.40948">
        <ele>396.02</ele>
        <time>2025-01-04T14:36:55.306Z</time>
      </trkpt>
      <trkpt lat="48.3637" lon="5.40932">
        <ele>396.98</ele>
        <time>2025-01-04T14:36:59.562Z</time>
      </trkpt>
      <trkpt lat="48.36353" lon="5.40918">
        <ele>397.87</ele>
        <time>2025-01-04T14:37:03.821Z</time>
      </trkpt>
      <trkpt lat="48.36327" lon="5.40901">
        <ele>398.69</ele>
        <time>2025-01-04T14:37:08.084Z</time>
      </trkpt>
      <trkpt lat="48.36312" lon="5.40891">
        <ele>399.39</ele>
        <time>2025-01-04T14:37:12.350Z</time>
      </trkpt>
      <trkpt lat="48.36298" lon="5.40882">
        <ele>400.02</ele>
        <time>2025-01-04T14:37:16.618Z</time>
      </trkpt>
      <trkpt lat="48.3628" lon="5.4087">
        <ele>400.58</ele>
        <time>2025-01-04T14:37:20.890Z</time>
      </trkpt>
      <trkpt lat="48.36262" lon="5.40858">
        <ele>401.05</ele>
        <time>2025-01-04T14:37:25.165Z</time>
      </trkpt>
      <trkpt lat="48.36243" lon="5.40849">
        <ele>401.44</ele>
        <time>2025-01-04T14:37:29.443Z</time>
      </trkpt>
      <trkpt lat="48.36223" lon="5.40839">
        <ele>401.81</ele>
        <time>2025-01-04T14:37:33.724Z</time>
      </trkpt>
      <trkpt lat="48.36208" lon="5.40831">
        <ele>402.05</ele>
        <time>2025-01-04T14:37:38.008Z</time>
      </trkpt>
      <trkpt lat="48.36193" lon="5.40824">
        <ele>402.2</ele>
        <time>2025-01-04T14:37:42.294Z</time>
      </trkpt>
      <trkpt lat="48.36175" lon="5.40815">
        <ele>402.24</ele>
        <time>2025-01-04T14:37:46.583Z</time>
      </trkpt>
      <trkpt lat="48.36157" lon="5.40806">
        <ele>402.22</ele>
        <time>2025-01-04T14:37:50.875Z</time>
      </trkpt>
      <trkpt lat="48.36131" lon="5.40794">
        <ele>402.15</ele>
        <time>2025-01-04T14:37:55.172Z</time>
      </trkpt>
      <trkpt lat="48.36106" lon="5.40782">
        <ele>401.99</ele>
        <time>2025-01-04T14:37:59.473Z</time>
      </trkpt>
      <trkpt lat="48.36077" lon="5.40775">
        <ele>401.7</ele>
        <time>2025-01-04T14:38:03.779Z</time>
      </trkpt>
      <trkpt lat="48.36049" lon="5.40768">
        <ele>401.37</ele>
        <time>2025-01-04T14:38:08.089Z</time>
      </trkpt>
      <trkpt lat="48.36018" lon="5.4076">
        <ele>400.91</ele>
        <time>2025-01-04T14:38:12.404Z</time>
      </trkpt>
      <trkpt lat="48.35987" lon="5.40752">
        <ele>400.44</ele>
        <time>2025-01-04T14:38:16.724Z</time>
      </trkpt>
      <trkpt lat="48.35966" lon="5.40746">
        <ele>399.97</ele>
        <time>2025-01-04T14:38:21.048Z</time>
      </trkpt>
      <trkpt lat="48.35944" lon="5.40741">
        <ele>399.5</ele>
        <time>2025-01-04T14:38:25.375Z</time>
      </trkpt>
      <trkpt lat="48.35917" lon="5.40734">
        <ele>398.93</ele>
        <time>2025-01-04T14:38:29.707Z</time>
      </trkpt>
      <trkpt lat="48.35889" lon="5.40727">
        <ele>398.23</ele>
        <time>2025-01-04T14:38:34.043Z</time>
      </trkpt>
      <trkpt lat="48.35861" lon="5.40722">
        <ele>397.47</ele>
        <time>2025-01-04T14:38:38.384Z</time>
      </trkpt>
      <trkpt lat="48.35833" lon="5.40718">
        <ele>396.69</ele>
        <time>2025-01-04T14:38:42.729Z</time>
      </trkpt>
      <trkpt lat="48.35808" lon="5.40714">
        <ele>395.79</ele>
        <time>2025-01-04T14:38:47.078Z</time>
      </trkpt>
      <trkpt lat="48.35783" lon="5.4071">
        <ele>394.84</ele>
        <time>2025-01-04T14:38:51.431Z</time>
      </trkpt>
      <trkpt lat="48.35762" lon="5.40707">
        <ele>393.86</ele>
        <time>2025-01-04T14:38:55.788Z</time>
      </trkpt>
      <trkpt lat="48.35741" lon="5.40703">
        <ele>392.82</ele>
        <time>2025-01-04T14:39:00.148Z</time>
      </trkpt>
      <trkpt lat="48.35735" lon="5.40702">
        <ele>391.76</ele>
        <time>2025-01-04T14:39:04.509Z</time>
      </trkpt>
      <trkpt lat="48.3571" lon="5.40696">
        <ele>390.65</ele>
        <time>2025-01-04T14:39:08.874Z</time>
      </trkpt>
      <trkpt lat="48.35686" lon="5.40691">
        <ele>389.49</ele>
        <time>2025-01-04T14:39:13.243Z</time>
      </trkpt>
      <trkpt lat="48.35662" lon="5.40685">
        <ele>388.26</ele>
        <time>2025-01-04T14:39:17.616Z</time>
      </trkpt>
      <trkpt lat="48.35639" lon="5.4068">
        <ele>386.97</ele>
        <time>2025-01-04T14:39:21.993Z</time>
      </trkpt>
      <trkpt lat="48.35615" lon="5.40675">
        <ele>385.71</ele>
        <time>2025-01-04T14:39:26.373Z</time>
      </trkpt>
      <trkpt lat="48.35592" lon="5.40669">
        <ele>384.44</ele>
        <time>2025-01-04T14:39:30.757Z</time>
      </trkpt>
      <trkpt lat="48.3558" lon="5.40667">
        <ele>383.24</ele>
        <time>2025-01-04T14:39:35.143Z</time>
      </trkpt>
      <trkpt lat="48.35561" lon="5.40664">
        <ele>382.06</ele>
        <time>2025-01-04T14:39:39.532Z</time>
      </trkpt>
      <trkpt lat="48.35545" lon="5.40663">
        <ele>380.93</ele>
        <time>2025-01-04T14:39:43.924Z</time>
      </trkpt>
      <trkpt lat="48.35528" lon="5.40661">
        <ele>379.86</ele>
        <time>2025-01-04T14:39:48.318Z</time>
      </trkpt>
      <trkpt lat="48.35498" lon="5.40665">
        <ele>378.85</ele>
        <time>2025-01-04T14:39:52.717Z</time>
      </trkpt>
      <trkpt lat="48.35484" lon="5.40666">
        <ele>377.86</ele>
        <time>2025-01-04T14:39:57.119Z</time>
      </trkpt>
      <trkpt lat="48.35472" lon="5.40662">
        <ele>376.92</ele>
        <time>2025-01-04T14:40:01.523Z</time>
      </trkpt>
      <trkpt lat="48.35467" lon="5.40657">
        <ele>376.06</ele>
        <time>2025-01-04T14:40:05.928Z</time>
      </trkpt>
      <trkpt lat="48.35462" lon="5.4065">
        <ele>375.28</ele>
        <time>2025-01-04T14:40:10.334Z</time>
      </trkpt>
      <trkpt lat="48.35454" lon="5.40635">
        <ele>374.54</ele>
        <time>2025-01-04T14:40:14.742Z</time>
      </trkpt>
      <trkpt lat="48.35451" lon="5.40626">
        <ele>373.88</ele>
        <time>2025-01-04T14:40:19.151Z</time>
      </trkpt>
      <trkpt lat="48.35443" lon="5.40605">
        <ele>373.24</ele>
        <time>2025-01-04T14:40:23.562Z</time>
      </trkpt>
      <trkpt lat="48.3543" lon="5.40583">
        <ele>372.62</ele>
        <time>2025-01-04T14:40:27.976Z</time>
      </trkpt>
      <trkpt lat="48.35418" lon="5.40561">
        <ele>372.17</ele>
        <time>2025-01-04T14:40:32.393Z</time>
      </trkpt>
      <trkpt lat="48.35405" lon="5.40542">
        <ele>371.84</ele>
        <time>2025-01-04T14:40:36.813Z</time>
      </trkpt>
      <trkpt lat="48.35393" lon="5.40525">
        <ele>371.63</ele>
        <time>2025-01-04T14:40:41.236Z</time>
      </trkpt>
      <trkpt lat="48.35381" lon="5.40516">
        <ele>371.52</ele>
        <time>2025-01-04T14:40:45.661Z</time>
      </trkpt>
      <trkpt lat="48.35375" lon="5.40518">
        <ele>371.47</ele>
        <time>2025-01-04T14:40:50.087Z</time>
      </trkpt>
      <trkpt lat="48.3535" lon="5.40521">
        <ele>371.51</ele>
        <time>2025-01-04T14:40:54.517Z</time>
      </trkpt>
      <trkpt lat="48.35332" lon="5.40517">
        <ele>371.63</ele>
        <time>2025-01-04T14:40:58.950Z</time>
      </trkpt>
      <trkpt lat="48.35317" lon="5.40514">
        <ele>371.77</ele>
        <time>2025-01-04T14:41:03.386Z</time>
      </trkpt>
      <trkpt lat="48.35303" lon="5.40508">
        <ele>371.95</ele>
        <time>2025-01-04T14:41:07.824Z</time>
      </trkpt>
      <trkpt lat="48.35285" lon="5.40496">
        <ele>372.21</ele>
        <time>2025-01-04T14:41:12.265Z</time>
      </trkpt>
      <trkpt lat="48.35272" lon="5.40488">
        <ele>372.48</ele>
        <time>2025-01-04T14:41:16.708Z</time>
      </trkpt>
      <trkpt lat="48.35259" lon="5.40479">
        <ele>372.77</ele>
        <time>2025-01-04T14:41:21.153Z</time>
      </trkpt>
      <trkpt lat="48.35245" lon="5.40486">
        <ele>373.08</ele>
        <time>2025-01-04T14:41:25.601Z</time>
      </trkpt>
      <trkpt lat="48.35228" lon="5.40504">
        <ele>373.39</ele>
        <time>2025-01-04T14:41:30.052Z</time>
      </trkpt>
      <trkpt lat="48.35222" lon="5.40511">
        <ele>373.67</ele>
        <time>2025-01-04T14:41:34.504Z</time>
      </trkpt>
      <trkpt lat="48.35207" lon="5.4052">
        <ele>373.91</ele>
        <time>2025-01-04T14:41:38.959Z</time>
      </trkpt>
      <trkpt lat="48.35179" lon="5.40537">
        <ele>374.17</ele>
        <time>2025-01-04T14:41:43.419Z</time>
      </trkpt>
      <trkpt lat="48.35162" lon="5.40547">
        <ele>374.38</ele>
        <time>2025-01-04T14:41:47.882Z</time>
      </trkpt>
      <trkpt lat="48.35145" lon="5.40558">
        <ele>374.59</ele>
        <time>2025-01-04T14:41:52.348Z</time>
      </trkpt>
      <trkpt lat="48.35118" lon="5.40578">
        <ele>374.74</ele>
        <time>2025-01-04T14:41:56.818Z</time>
      </trkpt>
      <trkpt lat="48.35099" lon="5.40594">
        <ele>374.83</ele>
        <time>2025-01-04T14:42:01.292Z</time>
      </trkpt>
      <trkpt lat="48.3508" lon="5.4061">
        <ele>374.88</ele>
        <time>2025-01-04T14:42:05.769Z</time>
      </trkpt>
      <trkpt lat="48.35058" lon="5.40633">
        <ele>375.01</ele>
        <time>2025-01-04T14:42:10.251Z</time>
      </trkpt>
      <trkpt lat="48.35035" lon="5.40656">
        <ele>375.05</ele>
        <time>2025-01-04T14:42:14.737Z</time>
      </trkpt>
      <trkpt lat="48.35024" lon="5.40668">
        <ele>375.08</ele>
        <time>2025-01-04T14:42:19.225Z</time>
      </trkpt>
      <trkpt lat="48.35004" lon="5.40683">
        <ele>375.08</ele>
        <time>2025-01-04T14:42:23.717Z</time>
      </trkpt>
      <trkpt lat="48.34985" lon="5.40697">
        <ele>375.04</ele>
        <time>2025-01-04T14:42:28.212Z</time>
      </trkpt>
      <trkpt lat="48.3496" lon="5.40709">
        <ele>374.98</ele>
        <time>2025-01-04T14:42:32.712Z</time>
      </trkpt>
      <trkpt lat="48.34934" lon="5.40721">
        <ele>374.85</ele>
        <time>2025-01-04T14:42:37.216Z</time>
      </trkpt>
      <trkpt lat="48.34906" lon="5.40733">
        <ele>374.61</ele>
        <time>2025-01-04T14:42:41.725Z</time>
      </trkpt>
      <trkpt lat="48.34877" lon="5.40745">
        <ele>374.42</ele>
        <time>2025-01-04T14:42:46.238Z</time>
      </trkpt>
      <trkpt lat="48.34855" lon="5.40756">
        <ele>374.27</ele>
        <time>2025-01-04T14:42:50.755Z</time>
      </trkpt>
      <trkpt lat="48.34833" lon="5.40767">
        <ele>374.13</ele>
        <time>2025-01-04T14:42:55.276Z</time>
      </trkpt>
      <trkpt lat="48.34811" lon="5.40779">
        <ele>373.89</ele>
        <time>2025-01-04T14:42:59.801Z</time>
      </trkpt>
      <trkpt lat="48.34789" lon="5.40792">
        <ele>373.67</ele>
        <time>2025-01-04T14:43:04.329Z</time>
      </trkpt>
      <trkpt lat="48.34771" lon="5.40802">
        <ele>373.47</ele>
        <time>2025-01-04T14:43:08.860Z</time>
      </trkpt>
      <trkpt lat="48.34753" lon="5.40813">
        <ele>373.27</ele>
        <time>2025-01-04T14:43:13.395Z</time>
      </trkpt>
      <trkpt lat="48.3473" lon="5.4082">
        <ele>373.08</ele>
        <time>2025-01-04T14:43:17.933Z</time>
      </trkpt>
      <trkpt lat="48.34707" lon="5.40826">
        <ele>372.91</ele>
        <time>2025-01-04T14:43:22.475Z</time>
      </trkpt>
      <trkpt lat="48.34684" lon="5.40826">
        <ele>372.77</ele>
        <time>2025-01-04T14:43:27.021Z</time>
      </trkpt>
      <trkpt lat="48.34661" lon="5.40826">
        <ele>372.62</ele>
        <time>2025-01-04T14:43:31.570Z</time>
      </trkpt>
      <trkpt lat="48.34646" lon="5.40823">
        <ele>372.47</ele>
        <time>2025-01-04T14:43:36.122Z</time>
      </trkpt>
      <trkpt lat="48.34624" lon="5.40815">
        <ele>372.34</ele>
        <time>2025-01-04T14:43:40.677Z</time>
      </trkpt>
      <trkpt lat="48.34601" lon="5.40804">
        <ele>372.25</ele>
        <time>2025-01-04T14:43:45.236Z</time>
      </trkpt>
      <trkpt lat="48.34577" lon="5.40793">
        <ele>372.22</ele>
        <time>2025-01-04T14:43:49.799Z</time>
      </trkpt>
      <trkpt lat="48.34571" lon="5.40792">
        <ele>372.14</ele>
        <time>2025-01-04T14:43:54.363Z</time>
      </trkpt>
      <trkpt lat="48.34549" lon="5.4079">
        <ele>372.09</ele>
        <time>2025-01-04T14:43:58.931Z</time>
      </trkpt>
      <trkpt lat="48.34532" lon="5.40797">
        <ele>372.02</ele>
        <time>2025-01-04T14:44:03.502Z</time>
      </trkpt>
      <trkpt lat="48.34514" lon="5.40803">
        <ele>371.97</ele>
        <time>2025-01-04T14:44:08.076Z</time>
      </trkpt>
      <trkpt lat="48.34488" lon="5.40819">
        <ele>371.99</ele>
        <time>2025-01-04T14:44:12.654Z</time>
      </trkpt>
      <trkpt lat="48.34462" lon="5.40834">
        <ele>372.03</ele>
        <time>2025-01-04T14:44:17.237Z</time>
      </trkpt>
      <trkpt lat="48.34443" lon="5.40848">
        <ele>372.13</ele>
        <time>2025-01-04T14:44:21.823Z</time>
      </trkpt>
      <trkpt lat="48.34425" lon="5.40862">
        <ele>372.25</ele>
        <time>2025-01-04T14:44:26.412Z</time>
      </trkpt>
      <trkpt lat="48.34411" lon="5.40873">
        <ele>372.37</ele>
        <time>2025-01-04T14:44:31.004Z</time>
      </trkpt>
      <trkpt lat="48.34396" lon="5.40884">
        <ele>372.48</ele>
        <time>2025-01-04T14:44:35.598Z</time>
      </trkpt>
      <trkpt lat="48.34378" lon="5.40905">
        <ele>372.63</ele>
        <time>2025-01-04T14:44:40.196Z</time>
      </trkpt>
      <trkpt lat="48.34361" lon="5.40925">
        <ele>372.82</ele>
        <time>2025-01-04T14:44:44.798Z</time>
      </trkpt>
      <trkpt lat="48.34348" lon="5.4094">
        <ele>373</ele>
        <time>2025-01-04T14:44:49.402Z</time>
      </trkpt>
      <trkpt lat="48.34335" lon="5.40954">
        <ele>373.23</ele>
        <time>2025-01-04T14:44:54.009Z</time>
      </trkpt>
      <trkpt lat="48.34331" lon="5.40959">
        <ele>373.47</ele>
        <time>2025-01-04T14:44:58.616Z</time>
      </trkpt>
      <trkpt lat="48.34324" lon="5.40967">
        <ele>373.73</ele>
        <time>2025-01-04T14:45:03.225Z</time>
      </trkpt>
      <trkpt lat="48.34321" lon="5.40971">
        <ele>374.03</ele>
        <time>2025-01-04T14:45:07.835Z</time>
      </trkpt>
      <trkpt lat="48.34311" lon="5.4097">
        <ele>374.37</ele>
        <time>2025-01-04T14:45:12.446Z</time>
      </trkpt>
      <trkpt lat="48.34306" lon="5.40961">
        <ele>374.72</ele>
        <time>2025-01-04T14:45:17.058Z</time>
      </trkpt>
      <trkpt lat="48.34295" lon="5.4094">
        <ele>375.1</ele>
        <time>2025-01-04T14:45:21.673Z</time>
      </trkpt>
      <trkpt lat="48.34285" lon="5.40918">
        <ele>375.51</ele>
        <time>2025-01-04T14:45:26.291Z</time>
      </trkpt>
      <trkpt lat="48.3427" lon="5.4089">
        <ele>375.95</ele>
        <time>2025-01-04T14:45:30.913Z</time>
      </trkpt>
      <trkpt lat="48.34255" lon="5.40861">
        <ele>376.42</ele>
        <time>2025-01-04T14:45:35.539Z</time>
      </trkpt>
      <trkpt lat="48.34242" lon="5.40834">
        <ele>376.88</ele>
        <time>2025-01-04T14:45:40.168Z</time>
      </trkpt>
      <trkpt lat="48.34228" lon="5.40808">
        <ele>377.37</ele>
        <time>2025-01-04T14:45:44.801Z</time>
      </trkpt>
      <trkpt lat="48.34216" lon="5.40785">
        <ele>377.91</ele>
        <time>2025-01-04T14:45:49.437Z</time>
      </trkpt>
      <trkpt lat="48.34204" lon="5.40761">
        <ele>378.47</ele>
        <time>2025-01-04T14:45:54.076Z</time>
      </trkpt>
      <trkpt lat="48.3419" lon="5.40733">
        <ele>379.02</ele>
        <time>2025-01-04T14:45:58.719Z</time>
      </trkpt>
      <trkpt lat="48.34176" lon="5.40706">
        <ele>379.53</ele>
        <time>2025-01-04T14:46:03.366Z</time>
      </trkpt>
      <trkpt lat="48.3416" lon="5.40674">
        <ele>380.02</ele>
        <time>2025-01-04T14:46:08.017Z</time>
      </trkpt>
      <trkpt lat="48.34144" lon="5.40643">
        <ele>380.58</ele>
        <time>2025-01-04T14:46:12.672Z</time>
      </trkpt>
      <trkpt lat="48.3413" lon="5.40614">
        <ele>381.17</ele>
        <time>2025-01-04T14:46:17.331Z</time>
      </trkpt>
      <trkpt lat="48.34115" lon="5.40585">
        <ele>381.71</ele>
        <time>2025-01-04T14:46:21.994Z</time>
      </trkpt>
      <trkpt lat="48.34101" lon="5.40557">
        <ele>382.25</ele>
        <time>2025-01-04T14:46:26.661Z</time>
      </trkpt>
      <trkpt lat="48.34087" lon="5.4053">
        <ele>382.81</ele>
        <time>2025-01-04T14:46:31.331Z</time>
      </trkpt>
      <trkpt lat="48.34072" lon="5.40501">
        <ele>383.39</ele>
        <time>2025-01-04T14:46:36.005Z</time>
      </trkpt>
      <trkpt lat="48.34058" lon="5.40473">
        <ele>383.93</ele>
        <time>2025-01-04T14:46:40.683Z</time>
      </trkpt>
      <trkpt lat="48.34047" lon="5.40452">
        <ele>384.47</ele>
        <time>2025-01-04T14:46:45.364Z</time>
      </trkpt>
      <trkpt lat="48.3404" lon="5.40438">
        <ele>385.01</ele>
        <time>2025-01-04T14:46:50.047Z</time>
      </trkpt>
      <trkpt lat="48.34026" lon="5.40409">
        <ele>385.58</ele>
        <time>2025-01-04T14:46:54.734Z</time>
      </trkpt>
      <trkpt lat="48.34011" lon="5.4038">
        <ele>386.1</ele>
        <time>2025-01-04T14:46:59.424Z</time>
      </trkpt>
      <trkpt lat="48.33998" lon="5.40355">
        <ele>386.59</ele>
        <time>2025-01-04T14:47:04.118Z</time>
      </trkpt>
      <trkpt lat="48.33985" lon="5.40329">
        <ele>387.06</ele>
        <time>2025-01-04T14:47:08.815Z</time>
      </trkpt>
      <trkpt lat="48.33972" lon="5.40304">
        <ele>387.57</ele>
        <time>2025-01-04T14:47:13.516Z</time>
      </trkpt>
      <trkpt lat="48.33959" lon="5.40279">
        <ele>388.03</ele>
        <time>2025-01-04T14:47:18.220Z</time>
      </trkpt>
      <trkpt lat="48.33942" lon="5.40248">
        <ele>388.49</ele>
        <time>2025-01-04T14:47:22.928Z</time>
      </trkpt>
      <trkpt lat="48.33926" lon="5.40217">
        <ele>388.99</ele>
        <time>2025-01-04T14:47:27.641Z</time>
      </trkpt>
      <trkpt lat="48.33912" lon="5.40191">
        <ele>389.48</ele>
        <time>2025-01-04T14:47:32.357Z</time>
      </trkpt>
      <trkpt lat="48.33899" lon="5.40165">
        <ele>389.94</ele>
        <time>2025-01-04T14:47:37.077Z</time>
      </trkpt>
      <trkpt lat="48.33884" lon="5.40137">
        <ele>390.4</ele>
        <time>2025-01-04T14:47:41.800Z</time>
      </trkpt>
      <trkpt lat="48.33869" lon="5.40108">
        <ele>390.87</ele>
        <time>2025-01-04T14:47:46.527Z</time>
      </trkpt>
      <trkpt lat="48.33852" lon="5.40077">
        <ele>391.33</ele>
        <time>2025-01-04T14:47:51.259Z</time>
      </trkpt>
      <trkpt lat="48.33836" lon="5.40045">
        <ele>391.78</ele>
        <time>2025-01-04T14:47:55.995Z</time>
      </trkpt>
      <trkpt lat="48.33824" lon="5.40022">
        <ele>392.28</ele>
        <time>2025-01-04T14:48:00.734Z</time>
      </trkpt>
      <trkpt lat="48.33812" lon="5.39999">
        <ele>392.78</ele>
        <time>2025-01-04T14:48:05.476Z</time>
      </trkpt>
      <trkpt lat="48.33798" lon="5.39972">
        <ele>393.26</ele>
        <time>2025-01-04T14:48:10.222Z</time>
      </trkpt>
      <trkpt lat="48.33783" lon="5.39945">
        <ele>393.63</ele>
        <time>2025-01-04T14:48:14.972Z</time>
      </trkpt>
      <trkpt lat="48.33768" lon="5.39916">
        <ele>394</ele>
        <time>2025-01-04T14:48:19.725Z</time>
      </trkpt>
      <trkpt lat="48.33765" lon="5.39909">
        <ele>394.29</ele>
        <time>2025-01-04T14:48:24.479Z</time>
      </trkpt>
      <trkpt lat="48.33754" lon="5.39889">
        <ele>394.55</ele>
        <time>2025-01-04T14:48:29.236Z</time>
      </trkpt>
      <trkpt lat="48.33744" lon="5.39869">
        <ele>394.77</ele>
        <time>2025-01-04T14:48:33.996Z</time>
      </trkpt>
      <trkpt lat="48.33731" lon="5.39845">
        <ele>394.91</ele>
        <time>2025-01-04T14:48:38.759Z</time>
      </trkpt>
      <trkpt lat="48.33719" lon="5.39821">
        <ele>395.02</ele>
        <time>2025-01-04T14:48:43.525Z</time>
      </trkpt>
      <trkpt lat="48.33701" lon="5.39791">
        <ele>395.14</ele>
        <time>2025-01-04T14:48:48.296Z</time>
      </trkpt>
      <trkpt lat="48.33684" lon="5.39759">
        <ele>395.22</ele>
        <time>2025-01-04T14:48:53.071Z</time>
      </trkpt>
      <trkpt lat="48.33667" lon="5.39727">
        <ele>395.27</ele>
        <time>2025-01-04T14:48:57.850Z</time>
      </trkpt>
      <trkpt lat="48.33651" lon="5.39694">
        <ele>395.33</ele>
        <time>2025-01-04T14:49:02.634Z</time>
      </trkpt>
      <trkpt lat="48.33634" lon="5.39662">
        <ele>395.44</ele>
        <time>2025-01-04T14:49:07.422Z</time>
      </trkpt>
      <trkpt lat="48.33617" lon="5.3963">
        <ele>395.49</ele>
        <time>2025-01-04T14:49:12.214Z</time>
      </trkpt>
      <trkpt lat="48.33617" lon="5.3963">
        <ele>395.48</ele>
        <time>2025-01-04T14:49:17.006Z</time>
      </trkpt>
      <trkpt lat="48.336" lon="5.39596">
        <ele>395.52</ele>
        <time>2025-01-04T14:49:21.803Z</time>
      </trkpt>
      <trkpt lat="48.33582" lon="5.39562">
        <ele>395.47</ele>
        <time>2025-01-04T14:49:26.605Z</time>
      </trkpt>
      <trkpt lat="48.33565" lon="5.39527">
        <ele>395.37</ele>
        <time>2025-01-04T14:49:31.411Z</time>
      </trkpt>
      <trkpt lat="48.33547" lon="5.39493">
        <ele>395.22</ele>
        <time>2025-01-04T14:49:36.222Z</time>
      </trkpt>
      <trkpt lat="48.33529" lon="5.39458">
        <ele>395.14</ele>
        <time>2025-01-04T14:49:41.037Z</time>
      </trkpt>
      <trkpt lat="48.33512" lon="5.39424">
        <ele>395.05</ele>
        <time>2025-01-04T14:49:45.857Z</time>
      </trkpt>
      <trkpt lat="48.33494" lon="5.3939">
        <ele>394.96</ele>
        <time>2025-01-04T14:49:50.682Z</time>
      </trkpt>
      <trkpt lat="48.33476" lon="5.39355">
        <ele>394.84</ele>
        <time>2025-01-04T14:49:55.511Z</time>
      </trkpt>
      <trkpt lat="48.33459" lon="5.39321">
        <ele>394.72</ele>
        <time>2025-01-04T14:50:00.345Z</time>
      </trkpt>
      <trkpt lat="48.33441" lon="5.39287">
        <ele>394.64</ele>
        <time>2025-01-04T14:50:05.184Z</time>
      </trkpt>
      <trkpt lat="48.33423" lon="5.39261">
        <ele>394.59</ele>
        <time>2025-01-04T14:50:10.027Z</time>
      </trkpt>
      <trkpt lat="48.33405" lon="5.39236">
        <ele>394.52</ele>
        <time>2025-01-04T14:50:14.874Z</time>
      </trkpt>
      <trkpt lat="48.33381" lon="5.39207">
        <ele>394.4</ele>
        <time>2025-01-04T14:50:19.725Z</time>
      </trkpt>
      <trkpt lat="48.33357" lon="5.39179">
        <ele>394.35</ele>
        <time>2025-01-04T14:50:24.581Z</time>
      </trkpt>
      <trkpt lat="48.33333" lon="5.39151">
        <ele>394.35</ele>
        <time>2025-01-04T14:50:29.442Z</time>
      </trkpt>
      <trkpt lat="48.33309" lon="5.39123">
        <ele>394.44</ele>
        <time>2025-01-04T14:50:34.308Z</time>
      </trkpt>
      <trkpt lat="48.33286" lon="5.39095">
        <ele>394.56</ele>
        <time>2025-01-04T14:50:39.179Z</time>
      </trkpt>
      <trkpt lat="48.33262" lon="5.39066">
        <ele>394.67</ele>
        <time>2025-01-04T14:50:44.055Z</time>
      </trkpt>
      <trkpt lat="48.33238" lon="5.39038">
        <ele>394.77</ele>
        <time>2025-01-04T14:50:48.936Z</time>
      </trkpt>
      <trkpt lat="48.33214" lon="5.3901">
        <ele>394.89</ele>
        <time>2025-01-04T14:50:53.821Z</time>
      </trkpt>
      <trkpt lat="48.33193" lon="5.38978">
        <ele>395.02</ele>
        <time>2025-01-04T14:50:58.711Z</time>
      </trkpt>
      <trkpt lat="48.33173" lon="5.38946">
        <ele>395.19</ele>
        <time>2025-01-04T14:51:03.606Z</time>
      </trkpt>
      <trkpt lat="48.33152" lon="5.38914">
        <ele>395.36</ele>
        <time>2025-01-04T14:51:08.506Z</time>
      </trkpt>
      <trkpt lat="48.33139" lon="5.38889">
        <ele>395.53</ele>
        <time>2025-01-04T14:51:13.409Z</time>
      </trkpt>
      <trkpt lat="48.33126" lon="5.38864">
        <ele>395.71</ele>
        <time>2025-01-04T14:51:18.315Z</time>
      </trkpt>
      <trkpt lat="48.33115" lon="5.3884">
        <ele>395.89</ele>
        <time>2025-01-04T14:51:23.225Z</time>
      </trkpt>
      <trkpt lat="48.33105" lon="5.38815">
        <ele>396.09</ele>
        <time>2025-01-04T14:51:28.138Z</time>
      </trkpt>
      <trkpt lat="48.33095" lon="5.38786">
        <ele>396.33</ele>
        <time>2025-01-04T14:51:33.054Z</time>
      </trkpt>
      <trkpt lat="48.33085" lon="5.38757">
        <ele>396.53</ele>
        <time>2025-01-04T14:51:37.974Z</time>
      </trkpt>
      <trkpt lat="48.33076" lon="5.38723">
        <ele>396.7</ele>
        <time>2025-01-04T14:51:42.898Z</time>
      </trkpt>
      <trkpt lat="48.33067" lon="5.38688">
        <ele>396.9</ele>
        <time>2025-01-04T14:51:47.826Z</time>
      </trkpt>
      <trkpt lat="48.33057" lon="5.38654">
        <ele>397.1</ele>
        <time>2025-01-04T14:51:52.758Z</time>
      </trkpt>
      <trkpt lat="48.33049" lon="5.38633">
        <ele>397.31</ele>
        <time>2025-01-04T14:51:57.692Z</time>
      </trkpt>
      <trkpt lat="48.3304" lon="5.38611">
        <ele>397.54</ele>
        <time>2025-01-04T14:52:02.629Z</time>
      </trkpt>
      <trkpt lat="48.33023" lon="5.38594">
        <ele>397.79</ele>
        <time>2025-01-04T14:52:07.569Z</time>
      </trkpt>
      <trkpt lat="48.33002" lon="5.38583">
        <ele>398.05</ele>
        <time>2025-01-04T14:52:12.513Z</time>
      </trkpt>
      <trkpt lat="48.3298" lon="5.38573">
        <ele>398.26</ele>
        <time>2025-01-04T14:52:17.460Z</time>
      </trkpt>
      <trkpt lat="48.32965" lon="5.38568">
        <ele>398.41</ele>
        <time>2025-01-04T14:52:22.410Z</time>
      </trkpt>
      <trkpt lat="48.32942" lon="5.38573">
        <ele>398.53</ele>
        <time>2025-01-04T14:52:27.364Z</time>
      </trkpt>
      <trkpt lat="48.32918" lon="5.38577">
        <ele>398.64</ele>
        <time>2025-01-04T14:52:32.322Z</time>
      </trkpt>
      <trkpt lat="48.32899" lon="5.38577">
        <ele>398.73</ele>
        <time>2025-01-04T14:52:37.283Z</time>
      </trkpt>
      <trkpt lat="48.32886" lon="5.38568">
        <ele>398.79</ele>
        <time>2025-01-04T14:52:42.246Z</time>
      </trkpt>
      <trkpt lat="48.32866" lon="5.38532">
        <ele>398.82</ele>
        <time>2025-01-04T14:52:47.214Z</time>
      </trkpt>
      <trkpt lat="48.32854" lon="5.38502">
        <ele>398.89</ele>
        <time>2025-01-04T14:52:52.186Z</time>
      </trkpt>
      <trkpt lat="48.32841" lon="5.38465">
        <ele>398.94</ele>
        <time>2025-01-04T14:52:57.162Z</time>
      </trkpt>
      <trkpt lat="48.32833" lon="5.38431">
        <ele>398.96</ele>
        <time>2025-01-04T14:53:02.142Z</time>
      </trkpt>
      <trkpt lat="48.32825" lon="5.38396">
        <ele>398.96</ele>
        <time>2025-01-04T14:53:07.126Z</time>
      </trkpt>
      <trkpt lat="48.32817" lon="5.38362">
        <ele>398.96</ele>
        <time>2025-01-04T14:53:12.114Z</time>
      </trkpt>
      <trkpt lat="48.32805" lon="5.38335">
        <ele>398.94</ele>
        <time>2025-01-04T14:53:17.105Z</time>
      </trkpt>
      <trkpt lat="48.32793" lon="5.38309">
        <ele>398.9</ele>
        <time>2025-01-04T14:53:22.100Z</time>
      </trkpt>
      <trkpt lat="48.32766" lon="5.38331">
        <ele>398.86</ele>
        <time>2025-01-04T14:53:27.100Z</time>
      </trkpt>
      <trkpt lat="48.32739" lon="5.38354">
        <ele>398.8</ele>
        <time>2025-01-04T14:53:32.105Z</time>
      </trkpt>
      <trkpt lat="48.32711" lon="5.38376">
        <ele>398.7</ele>
        <time>2025-01-04T14:53:37.115Z</time>
      </trkpt>
      <trkpt lat="48.32684" lon="5.38399">
        <ele>398.6</ele>
        <time>2025-01-04T14:53:42.130Z</time>
      </trkpt>
      <trkpt lat="48.32658" lon="5.38418">
        <ele>398.58</ele>
        <time>2025-01-04T14:53:47.149Z</time>
      </trkpt>
      <trkpt lat="48.32632" lon="5.38438">
        <ele>398.55</ele>
        <time>2025-01-04T14:53:52.173Z</time>
      </trkpt>
      <trkpt lat="48.32605" lon="5.38458">
        <ele>398.53</ele>
        <time>2025-01-04T14:53:57.202Z</time>
      </trkpt>
      <trkpt lat="48.32579" lon="5.38478">
        <ele>398.41</ele>
        <time>2025-01-04T14:54:02.235Z</time>
      </trkpt>
      <trkpt lat="48.32553" lon="5.38497">
        <ele>398.34</ele>
        <time>2025-01-04T14:54:07.273Z</time>
      </trkpt>
      <trkpt lat="48.32527" lon="5.38517">
        <ele>398.27</ele>
        <time>2025-01-04T14:54:12.316Z</time>
      </trkpt>
      <trkpt lat="48.32501" lon="5.38536">
        <ele>398.17</ele>
        <time>2025-01-04T14:54:17.363Z</time>
      </trkpt>
      <trkpt lat="48.32474" lon="5.38555">
        <ele>398.11</ele>
        <time>2025-01-04T14:54:22.415Z</time>
      </trkpt>
      <trkpt lat="48.32448" lon="5.38575">
        <ele>398.05</ele>
        <time>2025-01-04T14:54:27.472Z</time>
      </trkpt>
      <trkpt lat="48.32422" lon="5.38594">
        <ele>398.01</ele>
        <time>2025-01-04T14:54:32.533Z</time>
      </trkpt>
      <trkpt lat="48.32396" lon="5.38613">
        <ele>398.02</ele>
        <time>2025-01-04T14:54:37.599Z</time>
      </trkpt>
      <trkpt lat="48.3237" lon="5.38633">
        <ele>398</ele>
        <time>2025-01-04T14:54:42.670Z</time>
      </trkpt>
      <trkpt lat="48.32343" lon="5.38652">
        <ele>397.97</ele>
        <time>2025-01-04T14:54:47.745Z</time>
      </trkpt>
      <trkpt lat="48.32317" lon="5.38671">
        <ele>397.99</ele>
        <time>2025-01-04T14:54:52.825Z</time>
      </trkpt>
      <trkpt lat="48.3229" lon="5.38691">
        <ele>398.06</ele>
        <time>2025-01-04T14:54:57.910Z</time>
      </trkpt>
      <trkpt lat="48.32263" lon="5.38711">
        <ele>398.11</ele>
        <time>2025-01-04T14:55:03.000Z</time>
      </trkpt>
      <trkpt lat="48.32236" lon="5.38732">
        <ele>398.23</ele>
        <time>2025-01-04T14:55:08.095Z</time>
      </trkpt>
      <trkpt lat="48.32209" lon="5.38752">
        <ele>398.36</ele>
        <time>2025-01-04T14:55:13.194Z</time>
      </trkpt>
      <trkpt lat="48.32181" lon="5.38772">
        <ele>398.52</ele>
        <time>2025-01-04T14:55:18.298Z</time>
      </trkpt>
      <trkpt lat="48.32154" lon="5.38792">
        <ele>398.64</ele>
        <time>2025-01-04T14:55:23.407Z</time>
      </trkpt>
      <trkpt lat="48.32127" lon="5.38812">
        <ele>398.69</ele>
        <time>2025-01-04T14:55:28.521Z</time>
      </trkpt>
      <trkpt lat="48.321" lon="5.38832">
        <ele>398.81</ele>
        <time>2025-01-04T14:55:33.640Z</time>
      </trkpt>
      <trkpt lat="48.32073" lon="5.38852">
        <ele>399.03</ele>
        <time>2025-01-04T14:55:38.764Z</time>
      </trkpt>
      <trkpt lat="48.32046" lon="5.38872">
        <ele>399.24</ele>
        <time>2025-01-04T14:55:43.893Z</time>
      </trkpt>
      <trkpt lat="48.32019" lon="5.38892">
        <ele>399.42</ele>
        <time>2025-01-04T14:55:49.026Z</time>
      </trkpt>
      <trkpt lat="48.31992" lon="5.38912">
        <ele>399.58</ele>
        <time>2025-01-04T14:55:54.164Z</time>
      </trkpt>
      <trkpt lat="48.31965" lon="5.38933">
        <ele>399.84</ele>
        <time>2025-01-04T14:55:59.307Z</time>
      </trkpt>
      <trkpt lat="48.31937" lon="5.38953">
        <ele>400.1</ele>
        <time>2025-01-04T14:56:04.455Z</time>
      </trkpt>
      <trkpt lat="48.3191" lon="5.38973">
        <ele>400.38</ele>
        <time>2025-01-04T14:56:09.608Z</time>
      </trkpt>
      <trkpt lat="48.31883" lon="5.38993">
        <ele>400.69</ele>
        <time>2025-01-04T14:56:14.766Z</time>
      </trkpt>
      <trkpt lat="48.31856" lon="5.39013">
        <ele>401.05</ele>
        <time>2025-01-04T14:56:19.928Z</time>
      </trkpt>
      <trkpt lat="48.31829" lon="5.39033">
        <ele>401.5</ele>
        <time>2025-01-04T14:56:25.095Z</time>
      </trkpt>
      <trkpt lat="48.31802" lon="5.39053">
        <ele>401.89</ele>
        <time>2025-01-04T14:56:30.267Z</time>
      </trkpt>
      <trkpt lat="48.31775" lon="5.39073">
        <ele>402.19</ele>
        <time>2025-01-04T14:56:35.444Z</time>
      </trkpt>
      <trkpt lat="48.31748" lon="5.39093">
        <ele>402.47</ele>
        <time>2025-01-04T14:56:40.626Z</time>
      </trkpt>
      <trkpt lat="48.31721" lon="5.39113">
        <ele>402.78</ele>
        <time>2025-01-04T14:56:45.813Z</time>
      </trkpt>
      <trkpt lat="48.31698" lon="5.3913">
        <ele>403.02</ele>
        <time>2025-01-04T14:56:51.004Z</time>
      </trkpt>
      <trkpt lat="48.31676" lon="5.39148">
        <ele>403.27</ele>
        <time>2025-01-04T14:56:56.199Z</time>
      </trkpt>
      <trkpt lat="48.31653" lon="5.39165">
        <ele>403.5</ele>
        <time>2025-01-04T14:57:01.398Z</time>
      </trkpt>
      <trkpt lat="48.3163" lon="5.39182">
        <ele>403.73</ele>
        <time>2025-01-04T14:57:06.601Z</time>
      </trkpt>
      <trkpt lat="48.31609" lon="5.39203">
        <ele>403.9</ele>
        <time>2025-01-04T14:57:11.808Z</time>
      </trkpt>
      <trkpt lat="48.31588" lon="5.39224">
        <ele>404.08</ele>
        <time>2025-01-04T14:57:17.019Z</time>
      </trkpt>
      <trkpt lat="48.31567" lon="5.39245">
        <ele>404.23</ele>
        <time>2025-01-04T14:57:22.234Z</time>
      </trkpt>
      <trkpt lat="48.31546" lon="5.39266">
        <ele>404.29</ele>
        <time>2025-01-04T14:57:27.453Z</time>
      </trkpt>
      <trkpt lat="48.31525" lon="5.39287">
        <ele>404.32</ele>
        <time>2025-01-04T14:57:32.676Z</time>
      </trkpt>
      <trkpt lat="48.31498" lon="5.3931">
        <ele>404.32</ele>
        <time>2025-01-04T14:57:37.904Z</time>
      </trkpt>
      <trkpt lat="48.31472" lon="5.39332">
        <ele>404.24</ele>
        <time>2025-01-04T14:57:43.137Z</time>
      </trkpt>
      <trkpt lat="48.31448" lon="5.39347">
        <ele>404.04</ele>
        <time>2025-01-04T14:57:48.374Z</time>
      </trkpt>
      <trkpt lat="48.31424" lon="5.39362">
        <ele>403.7</ele>
        <time>2025-01-04T14:57:53.615Z</time>
      </trkpt>
      <trkpt lat="48.31402" lon="5.3937">
        <ele>403.28</ele>
        <time>2025-01-04T14:57:58.860Z</time>
      </trkpt>
      <trkpt lat="48.31379" lon="5.39378">
        <ele>402.79</ele>
        <time>2025-01-04T14:58:04.109Z</time>
      </trkpt>
      <trkpt lat="48.31356" lon="5.39386">
        <ele>402.21</ele>
        <time>2025-01-04T14:58:09.361Z</time>
      </trkpt>
      <trkpt lat="48.3134" lon="5.39386">
        <ele>401.55</ele>
        <time>2025-01-04T14:58:14.616Z</time>
      </trkpt>
      <trkpt lat="48.31324" lon="5.39386">
        <ele>400.79</ele>
        <time>2025-01-04T14:58:19.874Z</time>
      </trkpt>
      <trkpt lat="48.31305" lon="5.39379">
        <ele>399.91</ele>
        <time>2025-01-04T14:58:25.135Z</time>
      </trkpt>
      <trkpt lat="48.31287" lon="5.39373">
        <ele>398.96</ele>
        <time>2025-01-04T14:58:30.399Z</time>
      </trkpt>
      <trkpt lat="48.31262" lon="5.39359">
        <ele>397.89</ele>
        <time>2025-01-04T14:58:35.667Z</time>
      </trkpt>
      <trkpt lat="48.31237" lon="5.39345">
        <ele>396.72</ele>
        <time>2025-01-04T14:58:40.939Z</time>
      </trkpt>
      <trkpt lat="48.31212" lon="5.39332">
        <ele>395.46</ele>
        <time>2025-01-04T14:58:46.215Z</time>
      </trkpt>
      <trkpt lat="48.31188" lon="5.39318">
        <ele>394.11</ele>
        <time>2025-01-04T14:58:51.496Z</time>
      </trkpt>
      <trkpt lat="48.31163" lon="5.39304">
        <ele>392.62</ele>
        <time>2025-01-04T14:58:56.781Z</time>
      </trkpt>
      <trkpt lat="48.31163" lon="5.39304">
        <ele>391.15</ele>
        <time>2025-01-04T14:59:02.066Z</time>
      </trkpt>
      <trkpt lat="48.31138" lon="5.3929">
        <ele>389.5</ele>
        <time>2025-01-04T14:59:07.355Z</time>
      </trkpt>
      <trkpt lat="48.31113" lon="5.39276">
        <ele>387.77</ele>
        <time>2025-01-04T14:59:12.648Z</time>
      </trkpt>
      <trkpt lat="48.31088" lon="5.39261">
        <ele>385.98</ele>
        <time>2025-01-04T14:59:17.946Z</time>
      </trkpt>
      <trkpt lat="48.31061" lon="5.3925">
        <ele>384.04</ele>
        <time>2025-01-04T14:59:23.248Z</time>
      </trkpt>
      <trkpt lat="48.31034" lon="5.39238">
        <ele>382.01</ele>
        <time>2025-01-04T14:59:28.555Z</time>
      </trkpt>
      <trkpt lat="48.31007" lon="5.39226">
        <ele>379.95</ele>
        <time>2025-01-04T14:59:33.866Z</time>
      </trkpt>
      <trkpt lat="48.3098" lon="5.39214">
        <ele>377.86</ele>
        <time>2025-01-04T14:59:39.182Z</time>
      </trkpt>
      <trkpt lat="48.30954" lon="5.39205">
        <ele>375.71</ele>
        <time>2025-01-04T14:59:44.502Z</time>
      </trkpt>
      <trkpt lat="48.30927" lon="5.39196">
        <ele>373.47</ele>
        <time>2025-01-04T14:59:49.826Z</time>
      </trkpt>
      <trkpt lat="48.30901" lon="5.39186">
        <ele>371.2</ele>
        <time>2025-01-04T14:59:55.155Z</time>
      </trkpt>
      <trkpt lat="48.30875" lon="5.39185">
        <ele>368.88</ele>
        <time>2025-01-04T15:00:00.488Z</time>
      </trkpt>
      <trkpt lat="48.30849" lon="5.39184">
        <ele>366.64</ele>
        <time>2025-01-04T15:00:05.825Z</time>
      </trkpt>
      <trkpt lat="48.30818" lon="5.39185">
        <ele>364.3</ele>
        <time>2025-01-04T15:00:11.167Z</time>
      </trkpt>
      <trkpt lat="48.30787" lon="5.39186">
        <ele>361.83</ele>
        <time>2025-01-04T15:00:16.514Z</time>
      </trkpt>
      <trkpt lat="48.30756" lon="5.39194">
        <ele>359.25</ele>
        <time>2025-01-04T15:00:21.866Z</time>
      </trkpt>
      <trkpt lat="48.30726" lon="5.39202">
        <ele>356.69</ele>
        <time>2025-01-04T15:00:27.223Z</time>
      </trkpt>
      <trkpt lat="48.30695" lon="5.3921">
        <ele>354.19</ele>
        <time>2025-01-04T15:00:32.585Z</time>
      </trkpt>
      <trkpt lat="48.30677" lon="5.39217">
        <ele>351.64</ele>
        <time>2025-01-04T15:00:37.950Z</time>
      </trkpt>
      <trkpt lat="48.30658" lon="5.39225">
        <ele>349.05</ele>
        <time>2025-01-04T15:00:43.318Z</time>
      </trkpt>
      <trkpt lat="48.30634" lon="5.3924">
        <ele>346.36</ele>
        <time>2025-01-04T15:00:48.690Z</time>
      </trkpt>
      <trkpt lat="48.3061" lon="5.39255">
        <ele>343.83</ele>
        <time>2025-01-04T15:00:54.066Z</time>
      </trkpt>
      <trkpt lat="48.30585" lon="5.3927">
        <ele>341.54</ele>
        <time>2025-01-04T15:00:59.447Z</time>
      </trkpt>
      <trkpt lat="48.30562" lon="5.3929">
        <ele>339.02</ele>
        <time>2025-01-04T15:01:04.832Z</time>
      </trkpt>
      <trkpt lat="48.30538" lon="5.39311">
        <ele>336.39</ele>
        <time>2025-01-04T15:01:10.221Z</time>
      </trkpt>
      <trkpt lat="48.30515" lon="5.39331">
        <ele>333.79</ele>
        <time>2025-01-04T15:01:15.615Z</time>
      </trkpt>
      <trkpt lat="48.30491" lon="5.39351">
        <ele>331.43</ele>
        <time>2025-01-04T15:01:21.013Z</time>
      </trkpt>
      <trkpt lat="48.30477" lon="5.39365">
        <ele>329.15</ele>
        <time>2025-01-04T15:01:26.414Z</time>
      </trkpt>
      <trkpt lat="48.30463" lon="5.39379">
        <ele>326.83</ele>
        <time>2025-01-04T15:01:31.817Z</time>
      </trkpt>
      <trkpt lat="48.30442" lon="5.39408">
        <ele>324.52</ele>
        <time>2025-01-04T15:01:37.225Z</time>
      </trkpt>
      <trkpt lat="48.3042" lon="5.39437">
        <ele>322.3</ele>
        <time>2025-01-04T15:01:42.638Z</time>
      </trkpt>
      <trkpt lat="48.30399" lon="5.39465">
        <ele>320.14</ele>
        <time>2025-01-04T15:01:48.055Z</time>
      </trkpt>
      <trkpt lat="48.30377" lon="5.39494">
        <ele>317.95</ele>
        <time>2025-01-04T15:01:53.477Z</time>
      </trkpt>
      <trkpt lat="48.30356" lon="5.39523">
        <ele>315.77</ele>
        <time>2025-01-04T15:01:58.903Z</time>
      </trkpt>
      <trkpt lat="48.30334" lon="5.39551">
        <ele>313.79</ele>
        <time>2025-01-04T15:02:04.334Z</time>
      </trkpt>
      <trkpt lat="48.30322" lon="5.39568">
        <ele>311.98</ele>
        <time>2025-01-04T15:02:09.768Z</time>
      </trkpt>
      <trkpt lat="48.30309" lon="5.39585">
        <ele>310.21</ele>
        <time>2025-01-04T15:02:15.204Z</time>
      </trkpt>
      <trkpt lat="48.30289" lon="5.39605">
        <ele>308.51</ele>
        <time>2025-01-04T15:02:20.644Z</time>
      </trkpt>
      <trkpt lat="48.3027" lon="5.39624">
        <ele>306.97</ele>
        <time>2025-01-04T15:02:26.088Z</time>
      </trkpt>
      <trkpt lat="48.30253" lon="5.39648">
        <ele>305.46</ele>
        <time>2025-01-04T15:02:31.536Z</time>
      </trkpt>
      <trkpt lat="48.30244" lon="5.39669">
        <ele>303.91</ele>
        <time>2025-01-04T15:02:36.986Z</time>
      </trkpt>
      <trkpt lat="48.30238" lon="5.39682">
        <ele>302.7</ele>
        <time>2025-01-04T15:02:42.438Z</time>
      </trkpt>
      <trkpt lat="48.30225" lon="5.397">
        <ele>301.6</ele>
        <time>2025-01-04T15:02:47.893Z</time>
      </trkpt>
      <trkpt lat="48.30212" lon="5.39718">
        <ele>300.52</ele>
        <time>2025-01-04T15:02:53.351Z</time>
      </trkpt>
      <trkpt lat="48.30193" lon="5.39736">
        <ele>299.63</ele>
        <time>2025-01-04T15:02:58.812Z</time>
      </trkpt>
      <trkpt lat="48.30164" lon="5.39745">
        <ele>298.74</ele>
        <time>2025-01-04T15:03:04.278Z</time>
      </trkpt>
      <trkpt lat="48.30135" lon="5.39755">
        <ele>298.03</ele>
        <time>2025-01-04T15:03:09.749Z</time>
      </trkpt>
      <trkpt lat="48.3012" lon="5.39755">
        <ele>297.49</ele>
        <time>2025-01-04T15:03:15.222Z</time>
      </trkpt>
      <trkpt lat="48.3009" lon="5.39759">
        <ele>297.11</ele>
        <time>2025-01-04T15:03:20.700Z</time>
      </trkpt>
      <trkpt lat="48.30086" lon="5.39738">
        <ele>296.72</ele>
        <time>2025-01-04T15:03:26.180Z</time>
      </trkpt>
      <trkpt lat="48.30083" lon="5.39727">
        <ele>296.42</ele>
        <time>2025-01-04T15:03:31.662Z</time>
      </trkpt>
      <trkpt lat="48.30079" lon="5.39708">
        <ele>296.21</ele>
        <time>2025-01-04T15:03:37.146Z</time>
      </trkpt>
      <trkpt lat="48.30075" lon="5.39706">
        <ele>296.09</ele>
        <time>2025-01-04T15:03:42.631Z</time>
      </trkpt>
      <trkpt lat="48.30075" lon="5.39706">
        <ele>296.02</ele>
        <time>2025-01-04T15:03:48.116Z</time>
      </trkpt>
      <trkpt lat="48.30075" lon="5.39706">
        <ele>296.09</ele>
        <time>2025-01-04T15:03:53.601Z</time>
      </trkpt>
      <trkpt lat="48.30079" lon="5.39708">
        <ele>296.21</ele>
        <time>2025-01-04T15:03:59.086Z</time>
      </trkpt>
      <trkpt lat="48.30083" lon="5.39727">
        <ele>296.42</ele>
        <time>2025-01-04T15:04:04.573Z</time>
      </trkpt>
      <trkpt lat="48.30086" lon="5.39738">
        <ele>296.72</ele>
        <time>2025-01-04T15:04:10.062Z</time>
      </trkpt>
      <trkpt lat="48.3009" lon="5.39759">
        <ele>296.48</ele>
        <time>2025-01-04T15:04:15.553Z</time>
      </trkpt>
      <trkpt lat="48.3009" lon="5.39759">
        <ele>297.11</ele>
        <time>2025-01-04T15:04:21.044Z</time>
      </trkpt>
      <trkpt lat="48.3007" lon="5.39768">
        <ele>296.93</ele>
        <time>2025-01-04T15:04:26.538Z</time>
      </trkpt>
      <trkpt lat="48.30046" lon="5.39788">
        <ele>297.07</ele>
        <time>2025-01-04T15:04:32.037Z</time>
      </trkpt>
      <trkpt lat="48.30021" lon="5.39809">
        <ele>297.18</ele>
        <time>2025-01-04T15:04:37.540Z</time>
      </trkpt>
      <trkpt lat="48.30002" lon="5.39816">
        <ele>297.38</ele>
        <time>2025-01-04T15:04:43.046Z</time>
      </trkpt>
      <trkpt lat="48.29983" lon="5.39824">
        <ele>297.66</ele>
        <time>2025-01-04T15:04:48.556Z</time>
      </trkpt>
      <trkpt lat="48.29956" lon="5.39829">
        <ele>298.07</ele>
        <time>2025-01-04T15:04:54.070Z</time>
      </trkpt>
      <trkpt lat="48.29929" lon="5.39834">
        <ele>298.55</ele>
        <time>2025-01-04T15:04:59.588Z</time>
      </trkpt>
      <trkpt lat="48.29901" lon="5.39829">
        <ele>298.83</ele>
        <time>2025-01-04T15:05:05.111Z</time>
      </trkpt>
      <trkpt lat="48.29873" lon="5.39824">
        <ele>298.95</ele>
        <time>2025-01-04T15:05:10.638Z</time>
      </trkpt>
      <trkpt lat="48.29845" lon="5.39812">
        <ele>299.16</ele>
        <time>2025-01-04T15:05:16.170Z</time>
      </trkpt>
      <trkpt lat="48.29816" lon="5.39801">
        <ele>299.34</ele>
        <time>2025-01-04T15:05:21.707Z</time>
      </trkpt>
      <trkpt lat="48.29788" lon="5.3979">
        <ele>299.3</ele>
        <time>2025-01-04T15:05:27.248Z</time>
      </trkpt>
      <trkpt lat="48.29759" lon="5.39778">
        <ele>299.18</ele>
        <time>2025-01-04T15:05:32.794Z</time>
      </trkpt>
      <trkpt lat="48.29731" lon="5.39767">
        <ele>299.13</ele>
        <time>2025-01-04T15:05:38.345Z</time>
      </trkpt>
      <trkpt lat="48.29703" lon="5.39756">
        <ele>299.15</ele>
        <time>2025-01-04T15:05:43.901Z</time>
      </trkpt>
      <trkpt lat="48.29674" lon="5.39745">
        <ele>299.22</ele>
        <time>2025-01-04T15:05:49.461Z</time>
      </trkpt>
      <trkpt lat="48.29646" lon="5.39733">
        <ele>299.33</ele>
        <time>2025-01-04T15:05:55.026Z</time>
      </trkpt>
      <trkpt lat="48.29624" lon="5.39718">
        <ele>299.39</ele>
        <time>2025-01-04T15:06:00.595Z</time>
      </trkpt>
      <trkpt lat="48.29603" lon="5.3969">
        <ele>299.33</ele>
        <time>2025-01-04T15:06:06.168Z</time>
      </trkpt>
      <trkpt lat="48.29592" lon="5.39667">
        <ele>299.19</ele>
        <time>2025-01-04T15:06:11.744Z</time>
      </trkpt>
      <trkpt lat="48.29583" lon="5.39642">
        <ele>299.02</ele>
        <time>2025-01-04T15:06:17.323Z</time>
      </trkpt>
      <trkpt lat="48.29575" lon="5.39618">
        <ele>298.87</ele>
        <time>2025-01-04T15:06:22.905Z</time>
      </trkpt>
      <trkpt lat="48.29567" lon="5.39573">
        <ele>298.65</ele>
        <time>2025-01-04T15:06:28.492Z</time>
      </trkpt>
      <trkpt lat="48.2956" lon="5.39528">
        <ele>298.31</ele>
        <time>2025-01-04T15:06:34.084Z</time>
      </trkpt>
      <trkpt lat="48.29552" lon="5.39484">
        <ele>298</ele>
        <time>2025-01-04T15:06:39.681Z</time>
      </trkpt>
      <trkpt lat="48.29545" lon="5.39439">
        <ele>297.85</ele>
        <time>2025-01-04T15:06:45.283Z</time>
      </trkpt>
      <trkpt lat="48.29535" lon="5.39415">
        <ele>297.75</ele>
        <time>2025-01-04T15:06:50.888Z</time>
      </trkpt>
      <trkpt lat="48.29525" lon="5.3939">
        <ele>297.47</ele>
        <time>2025-01-04T15:06:56.496Z</time>
      </trkpt>
      <trkpt lat="48.29508" lon="5.39356">
        <ele>297.18</ele>
        <time>2025-01-04T15:07:02.109Z</time>
      </trkpt>
      <trkpt lat="48.29491" lon="5.39321">
        <ele>296.88</ele>
        <time>2025-01-04T15:07:07.726Z</time>
      </trkpt>
      <trkpt lat="48.29474" lon="5.39287">
        <ele>296.54</ele>
        <time>2025-01-04T15:07:13.348Z</time>
      </trkpt>
      <trkpt lat="48.29465" lon="5.39258">
        <ele>296.21</ele>
        <time>2025-01-04T15:07:18.973Z</time>
      </trkpt>
      <trkpt lat="48.29457" lon="5.39228">
        <ele>295.8</ele>
        <time>2025-01-04T15:07:24.602Z</time>
      </trkpt>
      <trkpt lat="48.29448" lon="5.39199">
        <ele>295.4</ele>
        <time>2025-01-04T15:07:30.234Z</time>
      </trkpt>
      <trkpt lat="48.2944" lon="5.39164">
        <ele>294.96</ele>
        <time>2025-01-04T15:07:35.870Z</time>
      </trkpt>
      <trkpt lat="48.29431" lon="5.39128">
        <ele>294.43</ele>
        <time>2025-01-04T15:07:41.510Z</time>
      </trkpt>
      <trkpt lat="48.29426" lon="5.39093">
        <ele>293.85</ele>
        <time>2025-01-04T15:07:47.154Z</time>
      </trkpt>
      <trkpt lat="48.2942" lon="5.39057">
        <ele>293.32</ele>
        <time>2025-01-04T15:07:52.802Z</time>
      </trkpt>
      <trkpt lat="48.29418" lon="5.39019">
        <ele>292.87</ele>
        <time>2025-01-04T15:07:58.454Z</time>
      </trkpt>
      <trkpt lat="48.29415" lon="5.3898">
        <ele>292.45</ele>
        <time>2025-01-04T15:08:04.110Z</time>
      </trkpt>
      <trkpt lat="48.29412" lon="5.38941">
        <ele>291.97</ele>
        <time>2025-01-04T15:08:09.770Z</time>
      </trkpt>
      <trkpt lat="48.2941" lon="5.38903">
        <ele>291.45</ele>
        <time>2025-01-04T15:08:15.434Z</time>
      </trkpt>
      <trkpt lat="48.29413" lon="5.38861">
        <ele>291.03</ele>
        <time>2025-01-04T15:08:21.103Z</time>
      </trkpt>
      <trkpt lat="48.29417" lon="5.38818">
        <ele>290.66</ele>
        <time>2025-01-04T15:08:26.777Z</time>
      </trkpt>
      <trkpt lat="48.2942" lon="5.38776">
        <ele>290.32</ele>
        <time>2025-01-04T15:08:32.455Z</time>
      </trkpt>
      <trkpt lat="48.29421" lon="5.38743">
        <ele>290.01</ele>
        <time>2025-01-04T15:08:38.137Z</time>
      </trkpt>
      <trkpt lat="48.29422" lon="5.38709">
        <ele>289.74</ele>
        <time>2025-01-04T15:08:43.822Z</time>
      </trkpt>
      <trkpt lat="48.29422" lon="5.38676">
        <ele>289.55</ele>
        <time>2025-01-04T15:08:49.511Z</time>
      </trkpt>
      <trkpt lat="48.29418" lon="5.38644">
        <ele>289.35</ele>
        <time>2025-01-04T15:08:55.203Z</time>
      </trkpt>
      <trkpt lat="48.29414" lon="5.38613">
        <ele>289.24</ele>
        <time>2025-01-04T15:09:00.899Z</time>
      </trkpt>
      <trkpt lat="48.29404" lon="5.38592">
        <ele>289.04</ele>
        <time>2025-01-04T15:09:06.597Z</time>
      </trkpt>
      <trkpt lat="48.29395" lon="5.3857">
        <ele>288.87</ele>
        <time>2025-01-04T15:09:12.298Z</time>
      </trkpt>
      <trkpt lat="48.29374" lon="5.38537">
        <ele>288.69</ele>
        <time>2025-01-04T15:09:18.004Z</time>
      </trkpt>
      <trkpt lat="48.29353" lon="5.38504">
        <ele>288.42</ele>
        <time>2025-01-04T15:09:23.715Z</time>
      </trkpt>
      <trkpt lat="48.29333" lon="5.38471">
        <ele>288.14</ele>
        <time>2025-01-04T15:09:29.431Z</time>
      </trkpt>
      <trkpt lat="48.29312" lon="5.38438">
        <ele>287.72</ele>
        <time>2025-01-04T15:09:35.152Z</time>
      </trkpt>
      <trkpt lat="48.29292" lon="5.38405">
        <ele>287.37</ele>
        <time>2025-01-04T15:09:40.877Z</time>
      </trkpt>
      <trkpt lat="48.29271" lon="5.38371">
        <ele>287.09</ele>
        <time>2025-01-04T15:09:46.607Z</time>
      </trkpt>
      <trkpt lat="48.29251" lon="5.38339">
        <ele>286.83</ele>
        <time>2025-01-04T15:09:52.342Z</time>
      </trkpt>
      <trkpt lat="48.2923" lon="5.38308">
        <ele>286.49</ele>
        <time>2025-01-04T15:09:58.082Z</time>
      </trkpt>
      <trkpt lat="48.2921" lon="5.38276">
        <ele>286.14</ele>
        <time>2025-01-04T15:10:03.826Z</time>
      </trkpt>
      <trkpt lat="48.29189" lon="5.38252">
        <ele>285.71</ele>
        <time>2025-01-04T15:10:09.575Z</time>
      </trkpt>
      <trkpt lat="48.29167" lon="5.38227">
        <ele>285.29</ele>
        <time>2025-01-04T15:10:15.328Z</time>
      </trkpt>
      <trkpt lat="48.29146" lon="5.38202">
        <ele>284.92</ele>
        <time>2025-01-04T15:10:21.085Z</time>
      </trkpt>
      <trkpt lat="48.29124" lon="5.38178">
        <ele>284.54</ele>
        <time>2025-01-04T15:10:26.847Z</time>
      </trkpt>
      <trkpt lat="48.29101" lon="5.38156">
        <ele>284.04</ele>
        <time>2025-01-04T15:10:32.613Z</time>
      </trkpt>
      <trkpt lat="48.29077" lon="5.38143">
        <ele>283.35</ele>
        <time>2025-01-04T15:10:38.383Z</time>
      </trkpt>
      <trkpt lat="48.29053" lon="5.38139">
        <ele>282.82</ele>
        <time>2025-01-04T15:10:44.157Z</time>
      </trkpt>
      <trkpt lat="48.29028" lon="5.38135">
        <ele>282.41</ele>
        <time>2025-01-04T15:10:49.935Z</time>
      </trkpt>
      <trkpt lat="48.29004" lon="5.38131">
        <ele>281.99</ele>
        <time>2025-01-04T15:10:55.717Z</time>
      </trkpt>
      <trkpt lat="48.28974" lon="5.38118">
        <ele>281.54</ele>
        <time>2025-01-04T15:11:01.504Z</time>
      </trkpt>
      <trkpt lat="48.28958" lon="5.38104">
        <ele>281.11</ele>
        <time>2025-01-04T15:11:07.294Z</time>
      </trkpt>
      <trkpt lat="48.28942" lon="5.3809">
        <ele>280.66</ele>
        <time>2025-01-04T15:11:13.087Z</time>
      </trkpt>
      <trkpt lat="48.28919" lon="5.38065">
        <ele>280.14</ele>
        <time>2025-01-04T15:11:18.884Z</time>
      </trkpt>
      <trkpt lat="48.28895" lon="5.38041">
        <ele>279.6</ele>
        <time>2025-01-04T15:11:24.686Z</time>
      </trkpt>
      <trkpt lat="48.28872" lon="5.38017">
        <ele>279.19</ele>
        <time>2025-01-04T15:11:30.492Z</time>
      </trkpt>
      <trkpt lat="48.28849" lon="5.37992">
        <ele>278.92</ele>
        <time>2025-01-04T15:11:36.303Z</time>
      </trkpt>
      <trkpt lat="48.28826" lon="5.37968">
        <ele>278.65</ele>
        <time>2025-01-04T15:11:42.119Z</time>
      </trkpt>
      <trkpt lat="48.28802" lon="5.37944">
        <ele>278.33</ele>
        <time>2025-01-04T15:11:47.939Z</time>
      </trkpt>
      <trkpt lat="48.28779" lon="5.37926">
        <ele>278.12</ele>
        <time>2025-01-04T15:11:53.763Z</time>
      </trkpt>
      <trkpt lat="48.28755" lon="5.37908">
        <ele>277.9</ele>
        <time>2025-01-04T15:11:59.592Z</time>
      </trkpt>
      <trkpt lat="48.28732" lon="5.3789">
        <ele>277.64</ele>
        <time>2025-01-04T15:12:05.425Z</time>
      </trkpt>
      <trkpt lat="48.28709" lon="5.37868">
        <ele>277.26</ele>
        <time>2025-01-04T15:12:11.262Z</time>
      </trkpt>
      <trkpt lat="48.28686" lon="5.37846">
        <ele>276.79</ele>
        <time>2025-01-04T15:12:17.104Z</time>
      </trkpt>
      <trkpt lat="48.28663" lon="5.37824">
        <ele>276.43</ele>
        <time>2025-01-04T15:12:22.950Z</time>
      </trkpt>
      <trkpt lat="48.2865" lon="5.37817">
        <ele>276.17</ele>
        <time>2025-01-04T15:12:28.798Z</time>
      </trkpt>
      <trkpt lat="48.28644" lon="5.37819">
        <ele>275.93</ele>
        <time>2025-01-04T15:12:34.647Z</time>
      </trkpt>
      <trkpt lat="48.28627" lon="5.37831">
        <ele>275.69</ele>
        <time>2025-01-04T15:12:40.499Z</time>
      </trkpt>
      <trkpt lat="48.28611" lon="5.37843">
        <ele>275.46</ele>
        <time>2025-01-04T15:12:46.354Z</time>
      </trkpt>
      <trkpt lat="48.28603" lon="5.37847">
        <ele>275.27</ele>
        <time>2025-01-04T15:12:52.210Z</time>
      </trkpt>
      <trkpt lat="48.28585" lon="5.37856">
        <ele>275.09</ele>
        <time>2025-01-04T15:12:58.069Z</time>
      </trkpt>
      <trkpt lat="48.28566" lon="5.37864">
        <ele>274.96</ele>
        <time>2025-01-04T15:13:03.931Z</time>
      </trkpt>
      <trkpt lat="48.28551" lon="5.37862">
        <ele>274.8</ele>
        <time>2025-01-04T15:13:09.796Z</time>
      </trkpt>
      <trkpt lat="48.28538" lon="5.37831">
        <ele>274.6</ele>
        <time>2025-01-04T15:13:15.665Z</time>
      </trkpt>
      <trkpt lat="48.28524" lon="5.37801">
        <ele>274.46</ele>
        <time>2025-01-04T15:13:21.538Z</time>
      </trkpt>
      <trkpt lat="48.28511" lon="5.3777">
        <ele>274.32</ele>
        <time>2025-01-04T15:13:27.415Z</time>
      </trkpt>
      <trkpt lat="48.28498" lon="5.37753">
        <ele>274.16</ele>
        <time>2025-01-04T15:13:33.294Z</time>
      </trkpt>
      <trkpt lat="48.2848" lon="5.37736">
        <ele>273.96</ele>
        <time>2025-01-04T15:13:39.177Z</time>
      </trkpt>
      <trkpt lat="48.28463" lon="5.37725">
        <ele>273.76</ele>
        <time>2025-01-04T15:13:45.063Z</time>
      </trkpt>
      <trkpt lat="48.2844" lon="5.37719">
        <ele>273.61</ele>
        <time>2025-01-04T15:13:50.953Z</time>
      </trkpt>
      <trkpt lat="48.28413" lon="5.37719">
        <ele>273.42</ele>
        <time>2025-01-04T15:13:56.847Z</time>
      </trkpt>
      <trkpt lat="48.28385" lon="5.3772">
        <ele>273.28</ele>
        <time>2025-01-04T15:14:02.745Z</time>
      </trkpt>
      <trkpt lat="48.28358" lon="5.37721">
        <ele>273.14</ele>
        <time>2025-01-04T15:14:08.648Z</time>
      </trkpt>
      <trkpt lat="48.28339" lon="5.37717">
        <ele>273</ele>
        <time>2025-01-04T15:14:14.554Z</time>
      </trkpt>
      <trkpt lat="48.2832" lon="5.37714">
        <ele>272.87</ele>
        <time>2025-01-04T15:14:20.463Z</time>
      </trkpt>
      <trkpt lat="48.28303" lon="5.37708">
        <ele>272.73</ele>
        <time>2025-01-04T15:14:26.374Z</time>
      </trkpt>
      <trkpt lat="48.28287" lon="5.37701">
        <ele>272.62</ele>
        <time>2025-01-04T15:14:32.288Z</time>
      </trkpt>
      <trkpt lat="48.28271" lon="5.37692">
        <ele>272.52</ele>
        <time>2025-01-04T15:14:38.205Z</time>
      </trkpt>
      <trkpt lat="48.28256" lon="5.37683">
        <ele>272.39</ele>
        <time>2025-01-04T15:14:44.125Z</time>
      </trkpt>
      <trkpt lat="48.28256" lon="5.37682">
        <ele>272.26</ele>
        <time>2025-01-04T15:14:50.045Z</time>
      </trkpt>
      <trkpt lat="48.28235" lon="5.37671">
        <ele>272.11</ele>
        <time>2025-01-04T15:14:55.968Z</time>
      </trkpt>
      <trkpt lat="48.28213" lon="5.37659">
        <ele>271.93</ele>
        <time>2025-01-04T15:15:01.895Z</time>
      </trkpt>
      <trkpt lat="48.28191" lon="5.37647">
        <ele>271.69</ele>
        <time>2025-01-04T15:15:07.826Z</time>
      </trkpt>
      <trkpt lat="48.28164" lon="5.37628">
        <ele>271.53</ele>
        <time>2025-01-04T15:15:13.761Z</time>
      </trkpt>
      <trkpt lat="48.28138" lon="5.37609">
        <ele>271.45</ele>
        <time>2025-01-04T15:15:19.701Z</time>
      </trkpt>
      <trkpt lat="48.28131" lon="5.37605">
        <ele>271.34</ele>
        <time>2025-01-04T15:15:25.642Z</time>
      </trkpt>
      <trkpt lat="48.28111" lon="5.3759">
        <ele>271.26</ele>
        <time>2025-01-04T15:15:31.587Z</time>
      </trkpt>
      <trkpt lat="48.28091" lon="5.37576">
        <ele>271.16</ele>
        <time>2025-01-04T15:15:37.536Z</time>
      </trkpt>
      <trkpt lat="48.28085" lon="5.37572">
        <ele>271.05</ele>
        <time>2025-01-04T15:15:43.486Z</time>
      </trkpt>
      <trkpt lat="48.28074" lon="5.3756">
        <ele>270.95</ele>
        <time>2025-01-04T15:15:49.438Z</time>
      </trkpt>
      <trkpt lat="48.2807" lon="5.37552">
        <ele>270.84</ele>
        <time>2025-01-04T15:15:55.391Z</time>
      </trkpt>
      <trkpt lat="48.28066" lon="5.37543">
        <ele>270.74</ele>
        <time>2025-01-04T15:16:01.345Z</time>
      </trkpt>
      <trkpt lat="48.28057" lon="5.37512">
        <ele>270.65</ele>
        <time>2025-01-04T15:16:07.302Z</time>
      </trkpt>
      <trkpt lat="48.28048" lon="5.37474">
        <ele>270.52</ele>
        <time>2025-01-04T15:16:13.264Z</time>
      </trkpt>
      <trkpt lat="48.28038" lon="5.37437">
        <ele>270.37</ele>
        <time>2025-01-04T15:16:19.230Z</time>
      </trkpt>
      <trkpt lat="48.28028" lon="5.37407">
        <ele>270.23</ele>
        <time>2025-01-04T15:16:25.200Z</time>
      </trkpt>
      <trkpt lat="48.28018" lon="5.37378">
        <ele>270.07</ele>
        <time>2025-01-04T15:16:31.173Z</time>
      </trkpt>
      <trkpt lat="48.28005" lon="5.37339">
        <ele>270.02</ele>
        <time>2025-01-04T15:16:37.151Z</time>
      </trkpt>
      <trkpt lat="48.27992" lon="5.373">
        <ele>269.98</ele>
        <time>2025-01-04T15:16:43.134Z</time>
      </trkpt>
      <trkpt lat="48.27978" lon="5.3726">
        <ele>269.99</ele>
        <time>2025-01-04T15:16:49.121Z</time>
      </trkpt>
      <trkpt lat="48.27965" lon="5.37221">
        <ele>269.96</ele>
        <time>2025-01-04T15:16:55.113Z</time>
      </trkpt>
      <trkpt lat="48.27958" lon="5.372">
        <ele>269.98</ele>
        <time>2025-01-04T15:17:01.107Z</time>
      </trkpt>
      <trkpt lat="48.27945" lon="5.37163">
        <ele>270.01</ele>
        <time>2025-01-04T15:17:07.106Z</time>
      </trkpt>
      <trkpt lat="48.27933" lon="5.37127">
        <ele>269.98</ele>
        <time>2025-01-04T15:17:13.109Z</time>
      </trkpt>
      <trkpt lat="48.27926" lon="5.37106">
        <ele>269.96</ele>
        <time>2025-01-04T15:17:19.115Z</time>
      </trkpt>
      <trkpt lat="48.27912" lon="5.37071">
        <ele>269.93</ele>
        <time>2025-01-04T15:17:25.125Z</time>
      </trkpt>
      <trkpt lat="48.27899" lon="5.37035">
        <ele>269.9</ele>
        <time>2025-01-04T15:17:31.139Z</time>
      </trkpt>
      <trkpt lat="48.27884" lon="5.36997">
        <ele>269.91</ele>
        <time>2025-01-04T15:17:37.158Z</time>
      </trkpt>
      <trkpt lat="48.27869" lon="5.36959">
        <ele>269.89</ele>
        <time>2025-01-04T15:17:43.182Z</time>
      </trkpt>
      <trkpt lat="48.2786" lon="5.36938">
        <ele>269.81</ele>
        <time>2025-01-04T15:17:49.209Z</time>
      </trkpt>
      <trkpt lat="48.27849" lon="5.36909">
        <ele>269.71</ele>
        <time>2025-01-04T15:17:55.239Z</time>
      </trkpt>
      <trkpt lat="48.27837" lon="5.36879">
        <ele>269.59</ele>
        <time>2025-01-04T15:18:01.273Z</time>
      </trkpt>
      <trkpt lat="48.27825" lon="5.3685">
        <ele>269.49</ele>
        <time>2025-01-04T15:18:07.311Z</time>
      </trkpt>
      <trkpt lat="48.27813" lon="5.3682">
        <ele>269.41</ele>
        <time>2025-01-04T15:18:13.352Z</time>
      </trkpt>
      <trkpt lat="48.27804" lon="5.36796">
        <ele>269.29</ele>
        <time>2025-01-04T15:18:19.396Z</time>
      </trkpt>
      <trkpt lat="48.27794" lon="5.36771">
        <ele>269.13</ele>
        <time>2025-01-04T15:18:25.443Z</time>
      </trkpt>
      <trkpt lat="48.27785" lon="5.36747">
        <ele>268.92</ele>
        <time>2025-01-04T15:18:31.493Z</time>
      </trkpt>
      <trkpt lat="48.27793" lon="5.36722">
        <ele>268.74</ele>
        <time>2025-01-04T15:18:37.546Z</time>
      </trkpt>
      <trkpt lat="48.27802" lon="5.36688">
        <ele>268.51</ele>
        <time>2025-01-04T15:18:43.603Z</time>
      </trkpt>
      <trkpt lat="48.27801" lon="5.36682">
        <ele>268.31</ele>
        <time>2025-01-04T15:18:49.661Z</time>
      </trkpt>
      <trkpt lat="48.27799" lon="5.36659">
        <ele>268.1</ele>
        <time>2025-01-04T15:18:55.721Z</time>
      </trkpt>
      <trkpt lat="48.27796" lon="5.36631">
        <ele>267.84</ele>
        <time>2025-01-04T15:19:01.784Z</time>
      </trkpt>
      <trkpt lat="48.27793" lon="5.36605">
        <ele>267.59</ele>
        <time>2025-01-04T15:19:07.850Z</time>
      </trkpt>
      <trkpt lat="48.2779" lon="5.3658">
        <ele>267.33</ele>
        <time>2025-01-04T15:19:13.919Z</time>
      </trkpt>
      <trkpt lat="48.27787" lon="5.36552">
        <ele>267.11</ele>
        <time>2025-01-04T15:19:19.991Z</time>
      </trkpt>
      <trkpt lat="48.27784" lon="5.36525">
        <ele>266.92</ele>
        <time>2025-01-04T15:19:26.066Z</time>
      </trkpt>
      <trkpt lat="48.27781" lon="5.36493">
        <ele>266.74</ele>
        <time>2025-01-04T15:19:32.144Z</time>
      </trkpt>
      <trkpt lat="48.27778" lon="5.36467">
        <ele>266.5</ele>
        <time>2025-01-04T15:19:38.225Z</time>
      </trkpt>
      <trkpt lat="48.27767" lon="5.36445">
        <ele>266.26</ele>
        <time>2025-01-04T15:19:44.309Z</time>
      </trkpt>
      <trkpt lat="48.27749" lon="5.36414">
        <ele>266.01</ele>
        <time>2025-01-04T15:19:50.397Z</time>
      </trkpt>
      <trkpt lat="48.27732" lon="5.36394">
        <ele>265.82</ele>
        <time>2025-01-04T15:19:56.489Z</time>
      </trkpt>
      <trkpt lat="48.27709" lon="5.36367">
        <ele>265.63</ele>
        <time>2025-01-04T15:20:02.586Z</time>
      </trkpt>
      <trkpt lat="48.2769" lon="5.36346">
        <ele>265.44</ele>
        <time>2025-01-04T15:20:08.686Z</time>
      </trkpt>
      <trkpt lat="48.27675" lon="5.36328">
        <ele>265.3</ele>
        <time>2025-01-04T15:20:14.789Z</time>
      </trkpt>
      <trkpt lat="48.27667" lon="5.3632">
        <ele>265.19</ele>
        <time>2025-01-04T15:20:20.894Z</time>
      </trkpt>
      <trkpt lat="48.27663" lon="5.36332">
        <ele>265.1</ele>
        <time>2025-01-04T15:20:27.000Z</time>
      </trkpt>
      <trkpt lat="48.27665" lon="5.3635">
        <ele>265.03</ele>
        <time>2025-01-04T15:20:33.108Z</time>
      </trkpt>
      <trkpt lat="48.27667" lon="5.36369">
        <ele>264.98</ele>
        <time>2025-01-04T15:20:39.218Z</time>
      </trkpt>
      <trkpt lat="48.27669" lon="5.36387">
        <ele>264.92</ele>
        <time>2025-01-04T15:20:45.330Z</time>
      </trkpt>
      <trkpt lat="48.27673" lon="5.364">
        <ele>264.89</ele>
        <time>2025-01-04T15:20:51.444Z</time>
      </trkpt>
      <trkpt lat="48.27674" lon="5.36403">
        <ele>264.85</ele>
        <time>2025-01-04T15:20:57.558Z</time>
      </trkpt>
      <trkpt lat="48.27666" lon="5.36413">
        <ele>264.84</ele>
        <time>2025-01-04T15:21:03.674Z</time>
      </trkpt>
      <trkpt lat="48.27651" lon="5.36419">
        <ele>264.81</ele>
        <time>2025-01-04T15:21:09.792Z</time>
      </trkpt>
      <trkpt lat="48.27641" lon="5.36407">
        <ele>264.78</ele>
        <time>2025-01-04T15:21:15.912Z</time>
      </trkpt>
      <trkpt lat="48.27646" lon="5.36421">
        <ele>264.78</ele>
        <time>2025-01-04T15:21:22.034Z</time>
      </trkpt>
      <trkpt lat="48.27646" lon="5.36422">
        <ele>264.77</ele>
        <time>2025-01-04T15:21:28.156Z</time>
      </trkpt>
      <trkpt lat="48.27646" lon="5.36421">
        <ele>264.78</ele>
        <time>2025-01-04T15:21:34.278Z</time>
      </trkpt>
      <trkpt lat="48.27646" lon="5.3642">
        <ele>264.77</ele>
        <time>2025-01-04T15:21:40.400Z</time>
      </trkpt>
      <trkpt lat="48.27641" lon="5.36407">
        <ele>264.78</ele>
        <time>2025-01-04T15:21:46.524Z</time>
      </trkpt>
      <trkpt lat="48.27668" lon="5.36407">
        <ele>264.77</ele>
        <time>2025-01-04T15:21:52.652Z</time>
      </trkpt>
      <trkpt lat="48.27671" lon="5.36396">
        <ele>264.76</ele>
        <time>2025-01-04T15:21:58.781Z</time>
      </trkpt>
      <trkpt lat="48.27668" lon="5.36379">
        <ele>264.76</ele>
        <time>2025-01-04T15:22:04.912Z</time>
      </trkpt>
      <trkpt lat="48.27666" lon="5.36359">
        <ele>264.77</ele>
        <time>2025-01-04T15:22:11.045Z</time>
      </trkpt>
      <trkpt lat="48.27663" lon="5.36341">
        <ele>264.76</ele>
        <time>2025-01-04T15:22:17.180Z</time>
      </trkpt>
      <trkpt lat="48.27663" lon="5.36338">
        <ele>264.78</ele>
        <time>2025-01-04T15:22:23.316Z</time>
      </trkpt>
      <trkpt lat="48.27663" lon="5.36335">
        <ele>264.8</ele>
        <time>2025-01-04T15:22:29.452Z</time>
      </trkpt>
      <trkpt lat="48.27662" lon="5.36332">
        <ele>264.82</ele>
        <time>2025-01-04T15:22:35.588Z</time>
      </trkpt>
      <trkpt lat="48.27658" lon="5.36316">
        <ele>264.86</ele>
        <time>2025-01-04T15:22:41.726Z</time>
      </trkpt>
      <trkpt lat="48.27645" lon="5.36311">
        <ele>264.92</ele>
        <time>2025-01-04T15:22:47.866Z</time>
      </trkpt>
      <trkpt lat="48.27624" lon="5.36311">
        <ele>264.97</ele>
        <time>2025-01-04T15:22:54.010Z</time>
      </trkpt>
      <trkpt lat="48.27603" lon="5.36311">
        <ele>265</ele>
        <time>2025-01-04T15:23:00.157Z</time>
      </trkpt>
      <trkpt lat="48.27597" lon="5.36311">
        <ele>265.03</ele>
        <time>2025-01-04T15:23:06.305Z</time>
      </trkpt>
      <trkpt lat="48.27595" lon="5.36311">
        <ele>265.06</ele>
        <time>2025-01-04T15:23:12.453Z</time>
      </trkpt>
      <trkpt lat="48.27596" lon="5.36301">
        <ele>265.09</ele>
        <time>2025-01-04T15:23:18.602Z</time>
      </trkpt>
      <trkpt lat="48.27601" lon="5.36276">
        <ele>265.14</ele>
        <time>2025-01-04T15:23:24.754Z</time>
      </trkpt>
      <trkpt lat="48.27608" lon="5.3624">
        <ele>265.18</ele>
        <time>2025-01-04T15:23:30.910Z</time>
      </trkpt>
      <trkpt lat="48.27615" lon="5.36205">
        <ele>265.23</ele>
        <time>2025-01-04T15:23:37.070Z</time>
      </trkpt>
      <trkpt lat="48.2762" lon="5.36179">
        <ele>265.24</ele>
        <time>2025-01-04T15:23:43.233Z</time>
      </trkpt>
      <trkpt lat="48.27624" lon="5.36155">
        <ele>265.29</ele>
        <time>2025-01-04T15:23:49.399Z</time>
      </trkpt>
      <trkpt lat="48.27625" lon="5.36153">
        <ele>265.28</ele>
        <time>2025-01-04T15:23:55.565Z</time>
      </trkpt>
      <trkpt lat="48.27637" lon="5.36155">
        <ele>265.26</ele>
        <time>2025-01-04T15:24:01.733Z</time>
      </trkpt>
      <trkpt lat="48.27651" lon="5.36158">
        <ele>265.2</ele>
        <time>2025-01-04T15:24:07.903Z</time>
      </trkpt>
      <trkpt lat="48.27657" lon="5.36159">
        <ele>265.16</ele>
        <time>2025-01-04T15:24:14.074Z</time>
      </trkpt>
      <trkpt lat="48.27659" lon="5.36159">
        <ele>265.13</ele>
        <time>2025-01-04T15:24:20.245Z</time>
      </trkpt>
      <trkpt lat="48.27661" lon="5.36159">
        <ele>265.1</ele>
        <time>2025-01-04T15:24:26.417Z</time>
      </trkpt>
      <trkpt lat="48.27663" lon="5.36158">
        <ele>265.05</ele>
        <time>2025-01-04T15:24:32.589Z</time>
      </trkpt>
      <trkpt lat="48.27665" lon="5.36164">
        <ele>265</ele>
        <time>2025-01-04T15:24:38.762Z</time>
      </trkpt>
      <trkpt lat="48.27665" lon="5.36166">
        <ele>264.96</ele>
        <time>2025-01-04T15:24:44.935Z</time>
      </trkpt>
      <trkpt lat="48.27666" lon="5.36175">
        <ele>264.91</ele>
        <time>2025-01-04T15:24:51.109Z</time>
      </trkpt>
      <trkpt lat="48.27666" lon="5.36174">
        <ele>264.86</ele>
        <time>2025-01-04T15:24:57.283Z</time>
      </trkpt>
      <trkpt lat="48.27665" lon="5.3617">
        <ele>264.81</ele>
        <time>2025-01-04T15:25:03.457Z</time>
      </trkpt>
      <trkpt lat="48.27665" lon="5.36165">
        <ele>264.76</ele>
        <time>2025-01-04T15:25:09.632Z</time>
      </trkpt>
      <trkpt lat="48.27663" lon="5.36158">
        <ele>264.71</ele>
        <time>2025-01-04T15:25:15.808Z</time>
      </trkpt>
      <trkpt lat="48.27661" lon="5.36157">
        <ele>264.66</ele>
        <time>2025-01-04T15:25:21.984Z</time>
      </trkpt>
      <trkpt lat="48.27653" lon="5.36157">
        <ele>264.63</ele>
        <time>2025-01-04T15:25:28.161Z</time>
      </trkpt>
      <trkpt lat="48.27648" lon="5.36157">
        <ele>264.59</ele>
        <time>2025-01-04T15:25:34.339Z</time>
      </trkpt>
      <trkpt lat="48.27639" lon="5.36158">
        <ele>264.58</ele>
        <time>2025-01-04T15:25:40.519Z</time>
      </trkpt>
      <trkpt lat="48.27634" lon="5.36158">
        <ele>264.54</ele>
        <time>2025-01-04T15:25:46.699Z</time>
      </trkpt>
      <trkpt lat="48.27625" lon="5.36151">
        <ele>264.49</ele>
        <time>2025-01-04T15:25:52.881Z</time>
      </trkpt>
      <trkpt lat="48.27626" lon="5.36149">
        <ele>264.44</ele>
        <time>2025-01-04T15:25:59.063Z</time>
      </trkpt>
      <trkpt lat="48.27631" lon="5.36123">
        <ele>264.37</ele>
        <time>2025-01-04T15:26:05.248Z</time>
      </trkpt>
      <trkpt lat="48.27636" lon="5.36096">
        <ele>264.31</ele>
        <time>2025-01-04T15:26:11.436Z</time>
      </trkpt>
      <trkpt lat="48.27644" lon="5.36055">
        <ele>264.22</ele>
        <time>2025-01-04T15:26:17.629Z</time>
      </trkpt>
      <trkpt lat="48.27647" lon="5.36039">
        <ele>264.2</ele>
        <time>2025-01-04T15:26:23.824Z</time>
      </trkpt>
      <trkpt lat="48.27647" lon="5.36037">
        <ele>264.2</ele>
        <time>2025-01-04T15:26:30.019Z</time>
      </trkpt>
      <trkpt lat="48.2765" lon="5.36035">
        <ele>264.21</ele>
        <time>2025-01-04T15:26:36.214Z</time>
      </trkpt>
      <trkpt lat="48.27652" lon="5.36035">
        <ele>264.24</ele>
        <time>2025-01-04T15:26:42.409Z</time>
      </trkpt>
      <trkpt lat="48.2766" lon="5.36038">
        <ele>264.29</ele>
        <time>2025-01-04T15:26:48.606Z</time>
      </trkpt>
      <trkpt lat="48.27674" lon="5.36043">
        <ele>264.34</ele>
        <time>2025-01-04T15:26:54.805Z</time>
      </trkpt>
      <trkpt lat="48.27696" lon="5.36054">
        <ele>264.43</ele>
        <time>2025-01-04T15:27:01.008Z</time>
      </trkpt>
      <trkpt lat="48.27715" lon="5.36076">
        <ele>264.54</ele>
        <time>2025-01-04T15:27:07.215Z</time>
      </trkpt>
      <trkpt lat="48.27729" lon="5.36093">
        <ele>264.68</ele>
        <time>2025-01-04T15:27:13.425Z</time>
      </trkpt>
      <trkpt lat="48.27743" lon="5.36101">
        <ele>264.83</ele>
        <time>2025-01-04T15:27:19.637Z</time>
      </trkpt>
      <trkpt lat="48.27762" lon="5.36092">
        <ele>265.02</ele>
        <time>2025-01-04T15:27:25.852Z</time>
      </trkpt>
      <trkpt lat="48.27787" lon="5.3608">
        <ele>265.25</ele>
        <time>2025-01-04T15:27:32.071Z</time>
      </trkpt>
      <trkpt lat="48.27815" lon="5.36067">
        <ele>265.45</ele>
        <time>2025-01-04T15:27:38.295Z</time>
      </trkpt>
      <trkpt lat="48.27837" lon="5.36057">
        <ele>265.66</ele>
        <time>2025-01-04T15:27:44.523Z</time>
      </trkpt>
      <trkpt lat="48.27841" lon="5.36041">
        <ele>265.89</ele>
        <time>2025-01-04T15:27:50.753Z</time>
      </trkpt>
      <trkpt lat="48.27843" lon="5.36002">
        <ele>266.2</ele>
        <time>2025-01-04T15:27:56.987Z</time>
      </trkpt>
      <trkpt lat="48.2784" lon="5.35958">
        <ele>266.53</ele>
        <time>2025-01-04T15:28:03.226Z</time>
      </trkpt>
      <trkpt lat="48.27839" lon="5.35951">
        <ele>266.77</ele>
        <time>2025-01-04T15:28:09.465Z</time>
      </trkpt>
      <trkpt lat="48.27836" lon="5.3593">
        <ele>267.03</ele>
        <time>2025-01-04T15:28:15.707Z</time>
      </trkpt>
      <trkpt lat="48.27835" lon="5.35926">
        <ele>267.27</ele>
        <time>2025-01-04T15:28:21.949Z</time>
      </trkpt>
      <trkpt lat="48.27835" lon="5.35925">
        <ele>267.5</ele>
        <time>2025-01-04T15:28:28.191Z</time>
      </trkpt>
      <trkpt lat="48.27832" lon="5.35903">
        <ele>267.72</ele>
        <time>2025-01-04T15:28:34.435Z</time>
      </trkpt>
      <trkpt lat="48.27827" lon="5.35872">
        <ele>267.93</ele>
        <time>2025-01-04T15:28:40.683Z</time>
      </trkpt>
      <trkpt lat="48.27826" lon="5.35866">
        <ele>268.11</ele>
        <time>2025-01-04T15:28:46.932Z</time>
      </trkpt>
      <trkpt lat="48.27825" lon="5.35854">
        <ele>268.28</ele>
        <time>2025-01-04T15:28:53.182Z</time>
      </trkpt>
      <trkpt lat="48.27822" lon="5.35836">
        <ele>268.42</ele>
        <time>2025-01-04T15:28:59.434Z</time>
      </trkpt>
      <trkpt lat="48.27816" lon="5.35792">
        <ele>268.56</ele>
        <time>2025-01-04T15:29:05.691Z</time>
      </trkpt>
      <trkpt lat="48.27812" lon="5.35766">
        <ele>268.68</ele>
        <time>2025-01-04T15:29:11.951Z</time>
      </trkpt>
      <trkpt lat="48.27809" lon="5.35751">
        <ele>268.75</ele>
        <time>2025-01-04T15:29:18.212Z</time>
      </trkpt>
      <trkpt lat="48.27809" lon="5.35752">
        <ele>268.73</ele>
        <time>2025-01-04T15:29:24.473Z</time>
      </trkpt>
      <trkpt lat="48.278" lon="5.35749">
        <ele>268.67</ele>
        <time>2025-01-04T15:29:30.736Z</time>
      </trkpt>
      <trkpt lat="48.27813" lon="5.35776">
        <ele>268.47</ele>
        <time>2025-01-04T15:29:37.002Z</time>
      </trkpt>
      <trkpt lat="48.27817" lon="5.35805">
        <ele>268.3</ele>
        <time>2025-01-04T15:29:43.271Z</time>
      </trkpt>
      <trkpt lat="48.27822" lon="5.35838">
        <ele>268.09</ele>
        <time>2025-01-04T15:29:49.544Z</time>
      </trkpt>
      <trkpt lat="48.27829" lon="5.35881">
        <ele>267.83</ele>
        <time>2025-01-04T15:29:55.822Z</time>
      </trkpt>
      <trkpt lat="48.27835" lon="5.35925">
        <ele>267.58</ele>
        <time>2025-01-04T15:30:02.105Z</time>
      </trkpt>
      <trkpt lat="48.27836" lon="5.35931">
        <ele>267.31</ele>
        <time>2025-01-04T15:30:08.388Z</time>
      </trkpt>
      <trkpt lat="48.27837" lon="5.35943">
        <ele>267.01</ele>
        <time>2025-01-04T15:30:14.672Z</time>
      </trkpt>
      <trkpt lat="48.2784" lon="5.35961">
        <ele>266.72</ele>
        <time>2025-01-04T15:30:20.958Z</time>
      </trkpt>
      <trkpt lat="48.27841" lon="5.35987">
        <ele>266.34</ele>
        <time>2025-01-04T15:30:27.247Z</time>
      </trkpt>
      <trkpt lat="48.27842" lon="5.36014">
        <ele>265.96</ele>
        <time>2025-01-04T15:30:33.539Z</time>
      </trkpt>
      <trkpt lat="48.27841" lon="5.36043">
        <ele>265.57</ele>
        <time>2025-01-04T15:30:39.834Z</time>
      </trkpt>
      <trkpt lat="48.27841" lon="5.36048">
        <ele>265.22</ele>
        <time>2025-01-04T15:30:46.130Z</time>
      </trkpt>
      <trkpt lat="48.27838" lon="5.36057">
        <ele>264.87</ele>
        <time>2025-01-04T15:30:52.427Z</time>
      </trkpt>
      <trkpt lat="48.27832" lon="5.3606">
        <ele>264.52</ele>
        <time>2025-01-04T15:30:58.725Z</time>
      </trkpt>
      <trkpt lat="48.27819" lon="5.36066">
        <ele>264.17</ele>
        <time>2025-01-04T15:31:05.025Z</time>
      </trkpt>
      <trkpt lat="48.27795" lon="5.36076">
        <ele>263.84</ele>
        <time>2025-01-04T15:31:11.329Z</time>
      </trkpt>
      <trkpt lat="48.27772" lon="5.36087">
        <ele>263.47</ele>
        <time>2025-01-04T15:31:17.637Z</time>
      </trkpt>
      <trkpt lat="48.27751" lon="5.36097">
        <ele>263.1</ele>
        <time>2025-01-04T15:31:23.948Z</time>
      </trkpt>
      <trkpt lat="48.27738" lon="5.36103">
        <ele>262.77</ele>
        <time>2025-01-04T15:31:30.262Z</time>
      </trkpt>
      <trkpt lat="48.27729" lon="5.36093">
        <ele>262.46</ele>
        <time>2025-01-04T15:31:36.577Z</time>
      </trkpt>
      <trkpt lat="48.27708" lon="5.36068">
        <ele>262.16</ele>
        <time>2025-01-04T15:31:42.897Z</time>
      </trkpt>
      <trkpt lat="48.27693" lon="5.36051">
        <ele>261.88</ele>
        <time>2025-01-04T15:31:49.220Z</time>
      </trkpt>
      <trkpt lat="48.27679" lon="5.36045">
        <ele>261.62</ele>
        <time>2025-01-04T15:31:55.545Z</time>
      </trkpt>
      <trkpt lat="48.27663" lon="5.36039">
        <ele>261.4</ele>
        <time>2025-01-04T15:32:01.873Z</time>
      </trkpt>
      <trkpt lat="48.27653" lon="5.36036">
        <ele>261.19</ele>
        <time>2025-01-04T15:32:08.202Z</time>
      </trkpt>
      <trkpt lat="48.27649" lon="5.36035">
        <ele>261</ele>
        <time>2025-01-04T15:32:14.532Z</time>
      </trkpt>
      <trkpt lat="48.27649" lon="5.36029">
        <ele>260.82</ele>
        <time>2025-01-04T15:32:20.862Z</time>
      </trkpt>
      <trkpt lat="48.27653" lon="5.36011">
        <ele>260.64</ele>
        <time>2025-01-04T15:32:27.195Z</time>
      </trkpt>
      <trkpt lat="48.27655" lon="5.36001">
        <ele>260.53</ele>
        <time>2025-01-04T15:32:33.529Z</time>
      </trkpt>
      <trkpt lat="48.27658" lon="5.35983">
        <ele>260.43</ele>
        <time>2025-01-04T15:32:39.865Z</time>
      </trkpt>
      <trkpt lat="48.27664" lon="5.35954">
        <ele>260.35</ele>
        <time>2025-01-04T15:32:46.204Z</time>
      </trkpt>
      <trkpt lat="48.27665" lon="5.35948">
        <ele>260.34</ele>
        <time>2025-01-04T15:32:52.544Z</time>
      </trkpt>
      <trkpt lat="48.27671" lon="5.35902">
        <ele>260.38</ele>
        <time>2025-01-04T15:32:58.889Z</time>
      </trkpt>
      <trkpt lat="48.27673" lon="5.35857">
        <ele>260.48</ele>
        <time>2025-01-04T15:33:05.238Z</time>
      </trkpt>
      <trkpt lat="48.27671" lon="5.35827">
        <ele>260.6</ele>
        <time>2025-01-04T15:33:11.591Z</time>
      </trkpt>
      <trkpt lat="48.2767" lon="5.3582">
        <ele>260.76</ele>
        <time>2025-01-04T15:33:17.944Z</time>
      </trkpt>
      <trkpt lat="48.2767" lon="5.35818">
        <ele>260.97</ele>
        <time>2025-01-04T15:33:24.298Z</time>
      </trkpt>
      <trkpt lat="48.2767" lon="5.35816">
        <ele>261.23</ele>
        <time>2025-01-04T15:33:30.652Z</time>
      </trkpt>
      <trkpt lat="48.2767" lon="5.35814">
        <ele>261.54</ele>
        <time>2025-01-04T15:33:37.006Z</time>
      </trkpt>
      <trkpt lat="48.27667" lon="5.35804">
        <ele>261.9</ele>
        <time>2025-01-04T15:33:43.361Z</time>
      </trkpt>
      <trkpt lat="48.27667" lon="5.35802">
        <ele>262.31</ele>
        <time>2025-01-04T15:33:49.716Z</time>
      </trkpt>
      <trkpt lat="48.27665" lon="5.35799">
        <ele>262.77</ele>
        <time>2025-01-04T15:33:56.072Z</time>
      </trkpt>
      <trkpt lat="48.27669" lon="5.35809">
        <ele>263.26</ele>
        <time>2025-01-04T15:34:02.429Z</time>
      </trkpt>
      <trkpt lat="48.27672" lon="5.35808">
        <ele>263.82</ele>
        <time>2025-01-04T15:34:08.786Z</time>
      </trkpt>
      <trkpt lat="48.27669" lon="5.35809">
        <ele>264.42</ele>
        <time>2025-01-04T15:34:15.144Z</time>
      </trkpt>
      <trkpt lat="48.2767" lon="5.35813">
        <ele>265.06</ele>
        <time>2025-01-04T15:34:21.502Z</time>
      </trkpt>
      <trkpt lat="48.2767" lon="5.35815">
        <ele>265.75</ele>
        <time>2025-01-04T15:34:27.860Z</time>
      </trkpt>
      <trkpt lat="48.27675" lon="5.35807">
        <ele>266.48</ele>
        <time>2025-01-04T15:34:34.220Z</time>
      </trkpt>
      <trkpt lat="48.27682" lon="5.35805">
        <ele>267.25</ele>
        <time>2025-01-04T15:34:40.581Z</time>
      </trkpt>
      <trkpt lat="48.27699" lon="5.35799">
        <ele>268.08</ele>
        <time>2025-01-04T15:34:46.945Z</time>
      </trkpt>
      <trkpt lat="48.27727" lon="5.35789">
        <ele>268.98</ele>
        <time>2025-01-04T15:34:53.313Z</time>
      </trkpt>
      <trkpt lat="48.27756" lon="5.35779">
        <ele>269.97</ele>
        <time>2025-01-04T15:34:59.686Z</time>
      </trkpt>
      <trkpt lat="48.2778" lon="5.35768">
        <ele>270.87</ele>
        <time>2025-01-04T15:35:06.063Z</time>
      </trkpt>
      <trkpt lat="48.278" lon="5.35749">
        <ele>268.67</ele>
        <time>2025-01-04T15:35:12.444Z</time>
      </trkpt>
      <trkpt lat="48.27807" lon="5.35734">
        <ele>272.7</ele>
        <time>2025-01-04T15:35:18.827Z</time>
      </trkpt>
      <trkpt lat="48.27809" lon="5.35705">
        <ele>273.56</ele>
        <time>2025-01-04T15:35:25.213Z</time>
      </trkpt>
      <trkpt lat="48.27806" lon="5.35662">
        <ele>274.33</ele>
        <time>2025-01-04T15:35:31.603Z</time>
      </trkpt>
      <trkpt lat="48.27803" lon="5.3563">
        <ele>275.06</ele>
        <time>2025-01-04T15:35:37.997Z</time>
      </trkpt>
      <trkpt lat="48.27801" lon="5.35599">
        <ele>275.72</ele>
        <time>2025-01-04T15:35:44.394Z</time>
      </trkpt>
      <trkpt lat="48.27799" lon="5.35571">
        <ele>276.36</ele>
        <time>2025-01-04T15:35:50.794Z</time>
      </trkpt>
      <trkpt lat="48.27797" lon="5.35544">
        <ele>276.98</ele>
        <time>2025-01-04T15:35:57.197Z</time>
      </trkpt>
      <trkpt lat="48.27793" lon="5.355">
        <ele>277.69</ele>
        <time>2025-01-04T15:36:03.605Z</time>
      </trkpt>
      <trkpt lat="48.27791" lon="5.35469">
        <ele>278.26</ele>
        <time>2025-01-04T15:36:10.016Z</time>
      </trkpt>
      <trkpt lat="48.27788" lon="5.35437">
        <ele>278.71</ele>
        <time>2025-01-04T15:36:16.431Z</time>
      </trkpt>
      <trkpt lat="48.27785" lon="5.35394">
        <ele>279.05</ele>
        <time>2025-01-04T15:36:22.850Z</time>
      </trkpt>
      <trkpt lat="48.27783" lon="5.35363">
        <ele>279.24</ele>
        <time>2025-01-04T15:36:29.273Z</time>
      </trkpt>
      <trkpt lat="48.27783" lon="5.35351">
        <ele>279.36</ele>
        <time>2025-01-04T15:36:35.697Z</time>
      </trkpt>
      <trkpt lat="48.27783" lon="5.35322">
        <ele>279.39</ele>
        <time>2025-01-04T15:36:42.124Z</time>
      </trkpt>
      <trkpt lat="48.27783" lon="5.35293">
        <ele>279.34</ele>
        <time>2025-01-04T15:36:48.554Z</time>
      </trkpt>
      <trkpt lat="48.27785" lon="5.35268">
        <ele>279.18</ele>
        <time>2025-01-04T15:36:54.987Z</time>
      </trkpt>
      <trkpt lat="48.27787" lon="5.35243">
        <ele>278.98</ele>
        <time>2025-01-04T15:37:01.422Z</time>
      </trkpt>
      <trkpt lat="48.27789" lon="5.35219">
        <ele>278.7</ele>
        <time>2025-01-04T15:37:07.860Z</time>
      </trkpt>
      <trkpt lat="48.27791" lon="5.35196">
        <ele>278.31</ele>
        <time>2025-01-04T15:37:14.301Z</time>
      </trkpt>
      <trkpt lat="48.27794" lon="5.35158">
        <ele>277.81</ele>
        <time>2025-01-04T15:37:20.746Z</time>
      </trkpt>
      <trkpt lat="48.27796" lon="5.35121">
        <ele>277.2</ele>
        <time>2025-01-04T15:37:27.195Z</time>
      </trkpt>
      <trkpt lat="48.27799" lon="5.35081">
        <ele>276.43</ele>
        <time>2025-01-04T15:37:33.648Z</time>
      </trkpt>
      <trkpt lat="48.27801" lon="5.3504">
        <ele>275.49</ele>
        <time>2025-01-04T15:37:40.105Z</time>
      </trkpt>
      <trkpt lat="48.27801" lon="5.34996">
        <ele>274.55</ele>
        <time>2025-01-04T15:37:46.567Z</time>
      </trkpt>
      <trkpt lat="48.27802" lon="5.34952">
        <ele>273.81</ele>
        <time>2025-01-04T15:37:53.034Z</time>
      </trkpt>
      <trkpt lat="48.27801" lon="5.34918">
        <ele>273.17</ele>
        <time>2025-01-04T15:37:59.504Z</time>
      </trkpt>
      <trkpt lat="48.278" lon="5.34883">
        <ele>272.57</ele>
        <time>2025-01-04T15:38:05.978Z</time>
      </trkpt>
      <trkpt lat="48.27799" lon="5.3485">
        <ele>271.92</ele>
        <time>2025-01-04T15:38:12.456Z</time>
      </trkpt>
      <trkpt lat="48.27798" lon="5.34817">
        <ele>271.22</ele>
        <time>2025-01-04T15:38:18.937Z</time>
      </trkpt>
      <trkpt lat="48.27796" lon="5.34774">
        <ele>270.49</ele>
        <time>2025-01-04T15:38:25.423Z</time>
      </trkpt>
      <trkpt lat="48.27795" lon="5.34731">
        <ele>269.91</ele>
        <time>2025-01-04T15:38:31.913Z</time>
      </trkpt>
      <trkpt lat="48.27795" lon="5.34704">
        <ele>269.5</ele>
        <time>2025-01-04T15:38:38.406Z</time>
      </trkpt>
      <trkpt lat="48.27796" lon="5.34677">
        <ele>269.23</ele>
        <time>2025-01-04T15:38:44.902Z</time>
      </trkpt>
      <trkpt lat="48.278" lon="5.34641">
        <ele>269.07</ele>
        <time>2025-01-04T15:38:51.402Z</time>
      </trkpt>
      <trkpt lat="48.27803" lon="5.34605">
        <ele>269.01</ele>
        <time>2025-01-04T15:38:57.906Z</time>
      </trkpt>
      <trkpt lat="48.27808" lon="5.34573">
        <ele>269.09</ele>
        <time>2025-01-04T15:39:04.413Z</time>
      </trkpt>
      <trkpt lat="48.27813" lon="5.34541">
        <ele>269.22</ele>
        <time>2025-01-04T15:39:10.924Z</time>
      </trkpt>
      <trkpt lat="48.27815" lon="5.3453">
        <ele>269.44</ele>
        <time>2025-01-04T15:39:17.436Z</time>
      </trkpt>
      <trkpt lat="48.27817" lon="5.34498">
        <ele>269.8</ele>
        <time>2025-01-04T15:39:23.952Z</time>
      </trkpt>
      <trkpt lat="48.27817" lon="5.34477">
        <ele>270.23</ele>
        <time>2025-01-04T15:39:30.470Z</time>
      </trkpt>
      <trkpt lat="48.2781" lon="5.34449">
        <ele>270.77</ele>
        <time>2025-01-04T15:39:36.991Z</time>
      </trkpt>
      <trkpt lat="48.27807" lon="5.3444">
        <ele>271.31</ele>
        <time>2025-01-04T15:39:43.513Z</time>
      </trkpt>
      <trkpt lat="48.27798" lon="5.34408">
        <ele>272.07</ele>
        <time>2025-01-04T15:39:50.039Z</time>
      </trkpt>
      <trkpt lat="48.27789" lon="5.34377">
        <ele>272.92</ele>
        <time>2025-01-04T15:39:56.568Z</time>
      </trkpt>
      <trkpt lat="48.27786" lon="5.34369">
        <ele>273.62</ele>
        <time>2025-01-04T15:40:03.098Z</time>
      </trkpt>
      <trkpt lat="48.27774" lon="5.34335">
        <ele>274.43</ele>
        <time>2025-01-04T15:40:09.632Z</time>
      </trkpt>
      <trkpt lat="48.27765" lon="5.34311">
        <ele>275.06</ele>
        <time>2025-01-04T15:40:16.169Z</time>
      </trkpt>
      <trkpt lat="48.27756" lon="5.34287">
        <ele>275.68</ele>
        <time>2025-01-04T15:40:22.709Z</time>
      </trkpt>
      <trkpt lat="48.27746" lon="5.34258">
        <ele>276.23</ele>
        <time>2025-01-04T15:40:29.253Z</time>
      </trkpt>
      <trkpt lat="48.27736" lon="5.3423">
        <ele>276.72</ele>
        <time>2025-01-04T15:40:35.800Z</time>
      </trkpt>
      <trkpt lat="48.27727" lon="5.34204">
        <ele>277.19</ele>
        <time>2025-01-04T15:40:42.350Z</time>
      </trkpt>
      <trkpt lat="48.27717" lon="5.34177">
        <ele>277.6</ele>
        <time>2025-01-04T15:40:48.904Z</time>
      </trkpt>
      <trkpt lat="48.27704" lon="5.3414">
        <ele>277.93</ele>
        <time>2025-01-04T15:40:55.462Z</time>
      </trkpt>
      <trkpt lat="48.277" lon="5.34131">
        <ele>278.18</ele>
        <time>2025-01-04T15:41:02.021Z</time>
      </trkpt>
      <trkpt lat="48.27697" lon="5.34123">
        <ele>278.34</ele>
        <time>2025-01-04T15:41:08.581Z</time>
      </trkpt>
      <trkpt lat="48.27691" lon="5.34105">
        <ele>278.39</ele>
        <time>2025-01-04T15:41:15.143Z</time>
      </trkpt>
      <trkpt lat="48.27688" lon="5.34096">
        <ele>278.37</ele>
        <time>2025-01-04T15:41:21.706Z</time>
      </trkpt>
      <trkpt lat="48.27677" lon="5.34062">
        <ele>278.25</ele>
        <time>2025-01-04T15:41:28.274Z</time>
      </trkpt>
      <trkpt lat="48.27665" lon="5.34028">
        <ele>278.15</ele>
        <time>2025-01-04T15:41:34.846Z</time>
      </trkpt>
      <trkpt lat="48.27663" lon="5.34018">
        <ele>277.89</ele>
        <time>2025-01-04T15:41:41.419Z</time>
      </trkpt>
      <trkpt lat="48.27658" lon="5.33999">
        <ele>277.48</ele>
        <time>2025-01-04T15:41:47.994Z</time>
      </trkpt>
      <trkpt lat="48.27656" lon="5.33988">
        <ele>276.97</ele>
        <time>2025-01-04T15:41:54.570Z</time>
      </trkpt>
      <trkpt lat="48.27654" lon="5.33978">
        <ele>276.36</ele>
        <time>2025-01-04T15:42:01.147Z</time>
      </trkpt>
      <trkpt lat="48.27655" lon="5.33952">
        <ele>275.63</ele>
        <time>2025-01-04T15:42:07.727Z</time>
      </trkpt>
      <trkpt lat="48.27655" lon="5.33938">
        <ele>274.84</ele>
        <time>2025-01-04T15:42:14.309Z</time>
      </trkpt>
      <trkpt lat="48.27657" lon="5.33893">
        <ele>273.94</ele>
        <time>2025-01-04T15:42:20.895Z</time>
      </trkpt>
      <trkpt lat="48.27658" lon="5.33848">
        <ele>272.99</ele>
        <time>2025-01-04T15:42:27.486Z</time>
      </trkpt>
      <trkpt lat="48.27659" lon="5.33817">
        <ele>272</ele>
        <time>2025-01-04T15:42:34.081Z</time>
      </trkpt>
      <trkpt lat="48.27659" lon="5.33785">
        <ele>270.92</ele>
        <time>2025-01-04T15:42:40.679Z</time>
      </trkpt>
      <trkpt lat="48.2766" lon="5.33754">
        <ele>269.78</ele>
        <time>2025-01-04T15:42:47.280Z</time>
      </trkpt>
      <trkpt lat="48.27661" lon="5.33738">
        <ele>268.63</ele>
        <time>2025-01-04T15:42:53.883Z</time>
      </trkpt>
      <trkpt lat="48.27662" lon="5.33694">
        <ele>267.35</ele>
        <time>2025-01-04T15:43:00.491Z</time>
      </trkpt>
      <trkpt lat="48.27663" lon="5.33651">
        <ele>265.98</ele>
        <time>2025-01-04T15:43:07.103Z</time>
      </trkpt>
      <trkpt lat="48.27664" lon="5.33623">
        <ele>264.7</ele>
        <time>2025-01-04T15:43:13.718Z</time>
      </trkpt>
      <trkpt lat="48.27665" lon="5.33585">
        <ele>263.38</ele>
        <time>2025-01-04T15:43:20.337Z</time>
      </trkpt>
      <trkpt lat="48.27666" lon="5.33548">
        <ele>262.12</ele>
        <time>2025-01-04T15:43:26.960Z</time>
      </trkpt>
      <trkpt lat="48.27666" lon="5.33521">
        <ele>260.94</ele>
        <time>2025-01-04T15:43:33.586Z</time>
      </trkpt>
      <trkpt lat="48.27667" lon="5.33493">
        <ele>259.82</ele>
        <time>2025-01-04T15:43:40.215Z</time>
      </trkpt>
      <trkpt lat="48.27667" lon="5.33484">
        <ele>258.74</ele>
        <time>2025-01-04T15:43:46.845Z</time>
      </trkpt>
      <trkpt lat="48.27668" lon="5.33471">
        <ele>257.7</ele>
        <time>2025-01-04T15:43:53.476Z</time>
      </trkpt>
      <trkpt lat="48.2765" lon="5.33467">
        <ele>256.7</ele>
        <time>2025-01-04T15:44:00.110Z</time>
      </trkpt>
      <trkpt lat="48.27644" lon="5.33466">
        <ele>255.75</ele>
        <time>2025-01-04T15:44:06.745Z</time>
      </trkpt>
      <trkpt lat="48.27622" lon="5.33462">
        <ele>254.84</ele>
        <time>2025-01-04T15:44:13.384Z</time>
      </trkpt>
      <trkpt lat="48.276" lon="5.33458">
        <ele>253.98</ele>
        <time>2025-01-04T15:44:20.026Z</time>
      </trkpt>
      <trkpt lat="48.27577" lon="5.33453">
        <ele>253.1</ele>
        <time>2025-01-04T15:44:26.672Z</time>
      </trkpt>
      <trkpt lat="48.27554" lon="5.33449">
        <ele>252.33</ele>
        <time>2025-01-04T15:44:33.322Z</time>
      </trkpt>
      <trkpt lat="48.27526" lon="5.33444">
        <ele>251.65</ele>
        <time>2025-01-04T15:44:39.976Z</time>
      </trkpt>
      <trkpt lat="48.27498" lon="5.33439">
        <ele>251.01</ele>
        <time>2025-01-04T15:44:46.635Z</time>
      </trkpt>
      <trkpt lat="48.27491" lon="5.33438">
        <ele>250.48</ele>
        <time>2025-01-04T15:44:53.295Z</time>
      </trkpt>
      <trkpt lat="48.27467" lon="5.33433">
        <ele>250.06</ele>
        <time>2025-01-04T15:44:59.959Z</time>
      </trkpt>
      <trkpt lat="48.27443" lon="5.33429">
        <ele>249.68</ele>
        <time>2025-01-04T15:45:06.627Z</time>
      </trkpt>
      <trkpt lat="48.27415" lon="5.33424">
        <ele>249.35</ele>
        <time>2025-01-04T15:45:13.299Z</time>
      </trkpt>
      <trkpt lat="48.27387" lon="5.33419">
        <ele>249.04</ele>
        <time>2025-01-04T15:45:19.976Z</time>
      </trkpt>
      <trkpt lat="48.2736" lon="5.33413">
        <ele>248.82</ele>
        <time>2025-01-04T15:45:26.657Z</time>
      </trkpt>
      <trkpt lat="48.27332" lon="5.33408">
        <ele>248.71</ele>
        <time>2025-01-04T15:45:33.343Z</time>
      </trkpt>
      <trkpt lat="48.27313" lon="5.33405">
        <ele>248.62</ele>
        <time>2025-01-04T15:45:40.032Z</time>
      </trkpt>
      <trkpt lat="48.27293" lon="5.33401">
        <ele>248.57</ele>
        <time>2025-01-04T15:45:46.724Z</time>
      </trkpt>
      <trkpt lat="48.27266" lon="5.33396">
        <ele>248.62</ele>
        <time>2025-01-04T15:45:53.420Z</time>
      </trkpt>
      <trkpt lat="48.27238" lon="5.3339">
        <ele>248.69</ele>
        <time>2025-01-04T15:46:00.121Z</time>
      </trkpt>
      <trkpt lat="48.27211" lon="5.33385">
        <ele>248.77</ele>
        <time>2025-01-04T15:46:06.826Z</time>
      </trkpt>
      <trkpt lat="48.27183" lon="5.3338">
        <ele>248.9</ele>
        <time>2025-01-04T15:46:13.536Z</time>
      </trkpt>
      <trkpt lat="48.27156" lon="5.33375">
        <ele>249.15</ele>
        <time>2025-01-04T15:46:20.250Z</time>
      </trkpt>
      <trkpt lat="48.27128" lon="5.3337">
        <ele>249.41</ele>
        <time>2025-01-04T15:46:26.969Z</time>
      </trkpt>
      <trkpt lat="48.27105" lon="5.33365">
        <ele>249.71</ele>
        <time>2025-01-04T15:46:33.691Z</time>
      </trkpt>
      <trkpt lat="48.27082" lon="5.33361">
        <ele>250.06</ele>
        <time>2025-01-04T15:46:40.417Z</time>
      </trkpt>
      <trkpt lat="48.27058" lon="5.33357">
        <ele>250.45</ele>
        <time>2025-01-04T15:46:47.147Z</time>
      </trkpt>
      <trkpt lat="48.27034" lon="5.33352">
        <ele>250.81</ele>
        <time>2025-01-04T15:46:53.881Z</time>
      </trkpt>
      <trkpt lat="48.2701" lon="5.33348">
        <ele>251.16</ele>
        <time>2025-01-04T15:47:00.619Z</time>
      </trkpt>
      <trkpt lat="48.26987" lon="5.33343">
        <ele>251.52</ele>
        <time>2025-01-04T15:47:07.360Z</time>
      </trkpt>
      <trkpt lat="48.26959" lon="5.33338">
        <ele>251.97</ele>
        <time>2025-01-04T15:47:14.106Z</time>
      </trkpt>
      <trkpt lat="48.2693" lon="5.33332">
        <ele>252.43</ele>
        <time>2025-01-04T15:47:20.856Z</time>
      </trkpt>
      <trkpt lat="48.26915" lon="5.3333">
        <ele>252.9</ele>
        <time>2025-01-04T15:47:27.609Z</time>
      </trkpt>
      <trkpt lat="48.26889" lon="5.33325">
        <ele>253.46</ele>
        <time>2025-01-04T15:47:34.366Z</time>
      </trkpt>
      <trkpt lat="48.26864" lon="5.3332">
        <ele>254.04</ele>
        <time>2025-01-04T15:47:41.127Z</time>
      </trkpt>
      <trkpt lat="48.26837" lon="5.33315">
        <ele>254.65</ele>
        <time>2025-01-04T15:47:47.893Z</time>
      </trkpt>
      <trkpt lat="48.2681" lon="5.3331">
        <ele>255.28</ele>
        <time>2025-01-04T15:47:54.663Z</time>
      </trkpt>
      <trkpt lat="48.26788" lon="5.33306">
        <ele>255.9</ele>
        <time>2025-01-04T15:48:01.436Z</time>
      </trkpt>
      <trkpt lat="48.26765" lon="5.33301">
        <ele>256.54</ele>
        <time>2025-01-04T15:48:08.213Z</time>
      </trkpt>
      <trkpt lat="48.26736" lon="5.33296">
        <ele>257.23</ele>
        <time>2025-01-04T15:48:14.995Z</time>
      </trkpt>
      <trkpt lat="48.26707" lon="5.3329">
        <ele>257.89</ele>
        <time>2025-01-04T15:48:21.781Z</time>
      </trkpt>
      <trkpt lat="48.26687" lon="5.33287">
        <ele>258.47</ele>
        <time>2025-01-04T15:48:28.571Z</time>
      </trkpt>
      <trkpt lat="48.26667" lon="5.33283">
        <ele>258.94</ele>
        <time>2025-01-04T15:48:35.364Z</time>
      </trkpt>
      <trkpt lat="48.26647" lon="5.33279">
        <ele>259.38</ele>
        <time>2025-01-04T15:48:42.160Z</time>
      </trkpt>
      <trkpt lat="48.26628" lon="5.33275">
        <ele>259.75</ele>
        <time>2025-01-04T15:48:48.959Z</time>
      </trkpt>
      <trkpt lat="48.26606" lon="5.33271">
        <ele>260.02</ele>
        <time>2025-01-04T15:48:55.762Z</time>
      </trkpt>
      <trkpt lat="48.26584" lon="5.33267">
        <ele>260.22</ele>
        <time>2025-01-04T15:49:02.568Z</time>
      </trkpt>
      <trkpt lat="48.26565" lon="5.33263">
        <ele>260.41</ele>
        <time>2025-01-04T15:49:09.377Z</time>
      </trkpt>
      <trkpt lat="48.26545" lon="5.3326">
        <ele>260.58</ele>
        <time>2025-01-04T15:49:16.190Z</time>
      </trkpt>
      <trkpt lat="48.26525" lon="5.33256">
        <ele>260.75</ele>
        <time>2025-01-04T15:49:23.006Z</time>
      </trkpt>
      <trkpt lat="48.26504" lon="5.33251">
        <ele>260.89</ele>
        <time>2025-01-04T15:49:29.825Z</time>
      </trkpt>
      <trkpt lat="48.2648" lon="5.33245">
        <ele>260.95</ele>
        <time>2025-01-04T15:49:36.648Z</time>
      </trkpt>
      <trkpt lat="48.26471" lon="5.33243">
        <ele>260.9</ele>
        <time>2025-01-04T15:49:43.473Z</time>
      </trkpt>
      <trkpt lat="48.26441" lon="5.33236">
        <ele>260.8</ele>
        <time>2025-01-04T15:49:50.302Z</time>
      </trkpt>
      <trkpt lat="48.26418" lon="5.3323">
        <ele>260.59</ele>
        <time>2025-01-04T15:49:57.135Z</time>
      </trkpt>
      <trkpt lat="48.26413" lon="5.33226">
        <ele>260.36</ele>
        <time>2025-01-04T15:50:03.969Z</time>
      </trkpt>
      <trkpt lat="48.26408" lon="5.3322">
        <ele>260.07</ele>
        <time>2025-01-04T15:50:10.804Z</time>
      </trkpt>
      <trkpt lat="48.26389" lon="5.33197">
        <ele>259.67</ele>
        <time>2025-01-04T15:50:17.643Z</time>
      </trkpt>
      <trkpt lat="48.26374" lon="5.33178">
        <ele>259.21</ele>
        <time>2025-01-04T15:50:24.485Z</time>
      </trkpt>
      <trkpt lat="48.26358" lon="5.33159">
        <ele>258.72</ele>
        <time>2025-01-04T15:50:31.330Z</time>
      </trkpt>
      <trkpt lat="48.26339" lon="5.33136">
        <ele>258.34</ele>
        <time>2025-01-04T15:50:38.179Z</time>
      </trkpt>
      <trkpt lat="48.2632" lon="5.33112">
        <ele>257.89</ele>
        <time>2025-01-04T15:50:45.032Z</time>
      </trkpt>
      <trkpt lat="48.26299" lon="5.33087">
        <ele>257.37</ele>
        <time>2025-01-04T15:50:51.890Z</time>
      </trkpt>
      <trkpt lat="48.26279" lon="5.33062">
        <ele>256.75</ele>
        <time>2025-01-04T15:50:58.752Z</time>
      </trkpt>
      <trkpt lat="48.26257" lon="5.33035">
        <ele>256.13</ele>
        <time>2025-01-04T15:51:05.618Z</time>
      </trkpt>
      <trkpt lat="48.26234" lon="5.33008">
        <ele>255.52</ele>
        <time>2025-01-04T15:51:12.489Z</time>
      </trkpt>
      <trkpt lat="48.26222" lon="5.32994">
        <ele>254.96</ele>
        <time>2025-01-04T15:51:19.362Z</time>
      </trkpt>
      <trkpt lat="48.26202" lon="5.3297">
        <ele>254.37</ele>
        <time>2025-01-04T15:51:26.240Z</time>
      </trkpt>
      <trkpt lat="48.26183" lon="5.32946">
        <ele>253.81</ele>
        <time>2025-01-04T15:51:33.122Z</time>
      </trkpt>
      <trkpt lat="48.26167" lon="5.32926">
        <ele>253.26</ele>
        <time>2025-01-04T15:51:40.007Z</time>
      </trkpt>
      <trkpt lat="48.26151" lon="5.32907">
        <ele>252.75</ele>
        <time>2025-01-04T15:51:46.895Z</time>
      </trkpt>
      <trkpt lat="48.26143" lon="5.329">
        <ele>252.31</ele>
        <time>2025-01-04T15:51:53.785Z</time>
      </trkpt>
      <trkpt lat="48.26137" lon="5.32896">
        <ele>251.9</ele>
        <time>2025-01-04T15:52:00.676Z</time>
      </trkpt>
      <trkpt lat="48.26132" lon="5.32906">
        <ele>251.54</ele>
        <time>2025-01-04T15:52:07.568Z</time>
      </trkpt>
      <trkpt lat="48.26122" lon="5.32935">
        <ele>251.26</ele>
        <time>2025-01-04T15:52:14.464Z</time>
      </trkpt>
      <trkpt lat="48.26113" lon="5.32961">
        <ele>250.92</ele>
        <time>2025-01-04T15:52:21.363Z</time>
      </trkpt>
      <trkpt lat="48.26105" lon="5.32987">
        <ele>250.62</ele>
        <time>2025-01-04T15:52:28.265Z</time>
      </trkpt>
      <trkpt lat="48.26094" lon="5.33021">
        <ele>250.31</ele>
        <time>2025-01-04T15:52:35.171Z</time>
      </trkpt>
      <trkpt lat="48.26082" lon="5.33056">
        <ele>250.18</ele>
        <time>2025-01-04T15:52:42.081Z</time>
      </trkpt>
      <trkpt lat="48.26071" lon="5.33081">
        <ele>250.14</ele>
        <time>2025-01-04T15:52:48.994Z</time>
      </trkpt>
      <trkpt lat="48.2606" lon="5.33105">
        <ele>250.1</ele>
        <time>2025-01-04T15:52:55.910Z</time>
      </trkpt>
      <trkpt lat="48.26049" lon="5.33118">
        <ele>250.13</ele>
        <time>2025-01-04T15:53:02.829Z</time>
      </trkpt>
      <trkpt lat="48.26037" lon="5.33127">
        <ele>250.26</ele>
        <time>2025-01-04T15:53:09.750Z</time>
      </trkpt>
      <trkpt lat="48.26013" lon="5.33145">
        <ele>250.43</ele>
        <time>2025-01-04T15:53:16.675Z</time>
      </trkpt>
      <trkpt lat="48.2599" lon="5.33162">
        <ele>250.66</ele>
        <time>2025-01-04T15:53:23.604Z</time>
      </trkpt>
      <trkpt lat="48.2597" lon="5.33174">
        <ele>251.06</ele>
        <time>2025-01-04T15:53:30.536Z</time>
      </trkpt>
      <trkpt lat="48.25951" lon="5.33187">
        <ele>251.47</ele>
        <time>2025-01-04T15:53:37.472Z</time>
      </trkpt>
      <trkpt lat="48.25924" lon="5.33204">
        <ele>251.93</ele>
        <time>2025-01-04T15:53:44.413Z</time>
      </trkpt>
      <trkpt lat="48.25902" lon="5.33219">
        <ele>252.45</ele>
        <time>2025-01-04T15:53:51.357Z</time>
      </trkpt>
      <trkpt lat="48.25879" lon="5.33233">
        <ele>253.02</ele>
        <time>2025-01-04T15:53:58.305Z</time>
      </trkpt>
      <trkpt lat="48.25854" lon="5.3325">
        <ele>253.66</ele>
        <time>2025-01-04T15:54:05.258Z</time>
      </trkpt>
      <trkpt lat="48.25828" lon="5.33266">
        <ele>254.2</ele>
        <time>2025-01-04T15:54:12.215Z</time>
      </trkpt>
      <trkpt lat="48.25809" lon="5.33278">
        <ele>254.74</ele>
        <time>2025-01-04T15:54:19.176Z</time>
      </trkpt>
      <trkpt lat="48.2579" lon="5.33291">
        <ele>255.32</ele>
        <time>2025-01-04T15:54:26.140Z</time>
      </trkpt>
      <trkpt lat="48.25769" lon="5.33304">
        <ele>255.78</ele>
        <time>2025-01-04T15:54:33.108Z</time>
      </trkpt>
      <trkpt lat="48.25747" lon="5.33318">
        <ele>256.25</ele>
        <time>2025-01-04T15:54:40.079Z</time>
      </trkpt>
      <trkpt lat="48.25732" lon="5.33327">
        <ele>256.74</ele>
        <time>2025-01-04T15:54:47.053Z</time>
      </trkpt>
      <trkpt lat="48.25716" lon="5.33337">
        <ele>257.27</ele>
        <time>2025-01-04T15:54:54.030Z</time>
      </trkpt>
      <trkpt lat="48.25699" lon="5.33346">
        <ele>257.73</ele>
        <time>2025-01-04T15:55:01.010Z</time>
      </trkpt>
      <trkpt lat="48.25682" lon="5.33356">
        <ele>258.24</ele>
        <time>2025-01-04T15:55:07.993Z</time>
      </trkpt>
      <trkpt lat="48.25676" lon="5.33359">
        <ele>258.66</ele>
        <time>2025-01-04T15:55:14.977Z</time>
      </trkpt>
      <trkpt lat="48.25653" lon="5.33357">
        <ele>259.04</ele>
        <time>2025-01-04T15:55:21.964Z</time>
      </trkpt>
      <trkpt lat="48.25635" lon="5.33354">
        <ele>259.44</ele>
        <time>2025-01-04T15:55:28.954Z</time>
      </trkpt>
      <trkpt lat="48.25617" lon="5.33351">
        <ele>259.83</ele>
        <time>2025-01-04T15:55:35.947Z</time>
      </trkpt>
      <trkpt lat="48.25595" lon="5.33344">
        <ele>260.2</ele>
        <time>2025-01-04T15:55:42.944Z</time>
      </trkpt>
      <trkpt lat="48.25572" lon="5.33337">
        <ele>260.56</ele>
        <time>2025-01-04T15:55:49.944Z</time>
      </trkpt>
      <trkpt lat="48.25561" lon="5.33334">
        <ele>260.83</ele>
        <time>2025-01-04T15:55:56.946Z</time>
      </trkpt>
      <trkpt lat="48.25538" lon="5.33327">
        <ele>261.06</ele>
        <time>2025-01-04T15:56:03.952Z</time>
      </trkpt>
      <trkpt lat="48.25524" lon="5.33325">
        <ele>261.2</ele>
        <time>2025-01-04T15:56:10.960Z</time>
      </trkpt>
      <trkpt lat="48.25515" lon="5.33327">
        <ele>261.31</ele>
        <time>2025-01-04T15:56:17.970Z</time>
      </trkpt>
      <trkpt lat="48.25504" lon="5.33334">
        <ele>261.38</ele>
        <time>2025-01-04T15:56:24.982Z</time>
      </trkpt>
      <trkpt lat="48.25499" lon="5.33338">
        <ele>261.37</ele>
        <time>2025-01-04T15:56:31.995Z</time>
      </trkpt>
      <trkpt lat="48.25486" lon="5.33333">
        <ele>261.31</ele>
        <time>2025-01-04T15:56:39.010Z</time>
      </trkpt>
      <trkpt lat="48.25465" lon="5.33312">
        <ele>261.2</ele>
        <time>2025-01-04T15:56:46.029Z</time>
      </trkpt>
      <trkpt lat="48.25439" lon="5.333">
        <ele>261</ele>
        <time>2025-01-04T15:56:53.052Z</time>
      </trkpt>
      <trkpt lat="48.25433" lon="5.33297">
        <ele>260.77</ele>
        <time>2025-01-04T15:57:00.076Z</time>
      </trkpt>
      <trkpt lat="48.2541" lon="5.33286">
        <ele>260.47</ele>
        <time>2025-01-04T15:57:07.104Z</time>
      </trkpt>
      <trkpt lat="48.25387" lon="5.33275">
        <ele>260.16</ele>
        <time>2025-01-04T15:57:14.136Z</time>
      </trkpt>
      <trkpt lat="48.25369" lon="5.33267">
        <ele>259.9</ele>
        <time>2025-01-04T15:57:21.171Z</time>
      </trkpt>
      <trkpt lat="48.25352" lon="5.33259">
        <ele>259.65</ele>
        <time>2025-01-04T15:57:28.209Z</time>
      </trkpt>
      <trkpt lat="48.25334" lon="5.33248">
        <ele>259.42</ele>
        <time>2025-01-04T15:57:35.250Z</time>
      </trkpt>
      <trkpt lat="48.25317" lon="5.33232">
        <ele>259.19</ele>
        <time>2025-01-04T15:57:42.294Z</time>
      </trkpt>
      <trkpt lat="48.25297" lon="5.33207">
        <ele>258.95</ele>
        <time>2025-01-04T15:57:49.342Z</time>
      </trkpt>
      <trkpt lat="48.25276" lon="5.33181">
        <ele>258.66</ele>
        <time>2025-01-04T15:57:56.395Z</time>
      </trkpt>
      <trkpt lat="48.25258" lon="5.33159">
        <ele>258.38</ele>
        <time>2025-01-04T15:58:03.451Z</time>
      </trkpt>
      <trkpt lat="48.2524" lon="5.33137">
        <ele>258.04</ele>
        <time>2025-01-04T15:58:10.511Z</time>
      </trkpt>
      <trkpt lat="48.25218" lon="5.33113">
        <ele>257.62</ele>
        <time>2025-01-04T15:58:17.575Z</time>
      </trkpt>
      <trkpt lat="48.25196" lon="5.33089">
        <ele>257.24</ele>
        <time>2025-01-04T15:58:24.644Z</time>
      </trkpt>
      <trkpt lat="48.25175" lon="5.33068">
        <ele>256.94</ele>
        <time>2025-01-04T15:58:31.717Z</time>
      </trkpt>
      <trkpt lat="48.25165" lon="5.33058">
        <ele>256.68</ele>
        <time>2025-01-04T15:58:38.792Z</time>
      </trkpt>
      <trkpt lat="48.25149" lon="5.3304">
        <ele>256.42</ele>
        <time>2025-01-04T15:58:45.870Z</time>
      </trkpt>
      <trkpt lat="48.25134" lon="5.33023">
        <ele>256.22</ele>
        <time>2025-01-04T15:58:52.951Z</time>
      </trkpt>
      <trkpt lat="48.2512" lon="5.33004">
        <ele>256.02</ele>
        <time>2025-01-04T15:59:00.035Z</time>
      </trkpt>
      <trkpt lat="48.25106" lon="5.32985">
        <ele>255.97</ele>
        <time>2025-01-04T15:59:07.122Z</time>
      </trkpt>
      <trkpt lat="48.25087" lon="5.3297">
        <ele>256.1</ele>
        <time>2025-01-04T15:59:14.212Z</time>
      </trkpt>
      <trkpt lat="48.25069" lon="5.32955">
        <ele>256.23</ele>
        <time>2025-01-04T15:59:21.306Z</time>
      </trkpt>
      <trkpt lat="48.2505" lon="5.32943">
        <ele>256.36</ele>
        <time>2025-01-04T15:59:28.403Z</time>
      </trkpt>
      <trkpt lat="48.25032" lon="5.32931">
        <ele>256.5</ele>
        <time>2025-01-04T15:59:35.503Z</time>
      </trkpt>
      <trkpt lat="48.25015" lon="5.3293">
        <ele>256.65</ele>
        <time>2025-01-04T15:59:42.606Z</time>
      </trkpt>
      <trkpt lat="48.24999" lon="5.32928">
        <ele>256.71</ele>
        <time>2025-01-04T15:59:49.711Z</time>
      </trkpt>
      <trkpt lat="48.24982" lon="5.32927">
        <ele>256.67</ele>
        <time>2025-01-04T15:59:56.819Z</time>
      </trkpt>
    </trkseg>
  </trk>
</gpx>